GFSMW_850_spd_000.txt.gz
Wind_Speed
16 18 23 27 32 30 32 34 35 35 34 34 33 32 31 32 34 34 34 33 32 30 30 29 29 29 30 30 26 24 24 23 22 20 22 22 23 26 30 31 31 30 32
12 10 12 16 25 33 36 31 31 33 34 33 34 32 29 32 33 32 33 33 33 33 33 32 31 31 30 30 28 26 24 24 22 21 18 18 19 21 22 24 26 22 18
17 17 15 12 13 21 26 32 31 28 29 30 31 32 33 35 34 33 32 30 30 31 32 34 33 33 33 34 33 30 30 28 24 27 22 11 13 8 11 15 16 17 17
24 24 25 18 12 8 13 21 27 27 25 25 29 30 32 32 31 30 31 30 27 26 25 27 30 33 34 36 36 36 34 34 36 31 33 35 27 15 14 15 15 14 17
26 28 31 26 20 11 5 7 16 22 23 24 27 30 32 32 31 29 31 29 28 26 27 28 28 31 34 37 36 33 36 38 39 37 35 33 35 38 38 28 26 22 22
24 25 27 28 24 16 11 4 8 13 18 21 25 30 32 31 31 31 30 28 28 27 27 28 30 31 33 35 37 39 40 40 41 39 41 40 29 35 41 40 38 32 32
25 26 31 29 26 23 17 13 9 6 6 9 15 19 23 26 28 29 28 27 28 28 29 28 29 30 31 31 33 38 41 42 43 43 44 44 44 40 36 34 36 31 30
22 24 26 27 24 22 20 17 16 15 14 14 14 14 16 19 20 20 20 22 23 25 27 29 30 31 32 32 32 34 38 42 44 45 46 46 47 45 42 41 32 28 30
19 21 22 23 22 22 21 20 18 17 17 17 15 14 14 15 17 19 22 24 25 27 28 30 31 31 33 35 36 37 38 39 42 46 47 47 47 47 45 44 42 37 29
16 17 17 18 19 19 19 19 20 20 19 17 16 16 16 16 18 20 21 24 26 28 29 30 31 32 33 33 35 39 39 38 41 44 45 48 49 48 49 45 43 43 42
15 12 12 12 13 15 18 20 22 22 22 21 20 18 17 16 16 17 19 22 25 28 30 31 32 33 34 36 36 39 40 40 40 43 45 48 48 50 49 47 45 45 43
7 8 8 8 11 14 16 19 22 23 24 23 20 20 21 19 17 17 18 20 22 24 27 30 32 35 36 37 36 38 41 43 43 42 44 48 47 48 48 47 45 44 42
5 6 8 8 10 12 15 19 22 24 24 25 25 24 21 19 20 20 20 20 21 23 26 29 31 34 35 35 38 40 41 41 43 44 44 45 47 50 50 48 45 42 38
3 5 7 9 13 16 18 18 20 24 25 25 25 26 27 28 27 24 22 21 22 24 24 25 29 33 35 35 38 38 41 43 42 42 45 47 49 49 49 48 46 41 38
7 12 15 16 18 19 21 23 26 27 27 26 24 22 24 26 28 29 30 32 34 34 32 30 27 27 31 36 38 38 38 42 44 43 43 46 47 51 48 45 45 41 39
8 11 14 17 19 18 22 24 23 24 25 25 25 27 29 31 32 33 32 32 33 34 34 35 35 33 30 30 34 34 32 34 36 42 43 44 44 47 50 46 45 41 40
14 15 16 16 16 18 19 19 23 26 26 26 25 27 29 31 32 32 33 34 32 30 32 32 32 36 37 33 32 32 32 34 40 42 42 39 43 43 48 47 45 37 37
16 17 16 14 14 14 18 22 26 28 29 25 26 29 30 31 31 30 29 30 31 30 31 33 34 36 38 34 35 31 29 36 35 39 37 42 41 44 47 44 45 40 43
14 11 12 13 14 18 23 28 29 31 30 30 32 33 33 32 32 32 32 32 31 32 32 34 36 36 39 36 34 34 31 35 40 41 37 38 43 42 49 42 43 42 41
15 15 16 18 20 24 29 30 28 27 23 28 31 31 31 31 33 32 33 32 31 33 35 35 33 33 37 37 31 31 32 32 39 42 42 37 38 41 48 42 39 39 38
17 18 20 21 23 25 26 25 24 22 26 29 29 29 30 29 30 31 29 30 30 30 30 31 29 29 31 34 34 29 31 30 35 38 42 41 36 36 44 41 39 42 38
20 21 21 20 20 19 19 20 21 23 27 29 30 30 29 29 29 28 28 28 27 28 29 30 33 31 29 33 31 30 30 28 28 32 36 37 31 29 31 37 39 37 39
18 19 20 21 20 19 22 24 25 28 29 29 28 29 29 28 26 27 27 27 25 25 28 31 36 38 40 37 34 33 31 30 25 27 29 33 30 24 24 33 39 34 36
17 19 21 22 22 24 28 28 30 31 30 29 29 29 30 30 28 27 25 24 25 27 28 34 36 38 41 38 37 36 35 33 27 25 24 26 24 26 26 37 40 36 32
18 21 23 24 25 29 31 30 30 31 30 30 30 30 30 31 31 28 27 27 26 29 32 34 33 35 40 39 38 38 36 34 29 24 24 22 23 25 32 37 37 35 33
20 23 24 25 29 32 32 32 31 28 28 31 31 31 33 31 32 31 33 30 35 34 34 32 31 33 35 37 38 37 33 29 24 21 25 25 25 29 35 36 37 37 36

GFSMW_850_spd_003.txt.gz
Wind_Speed
10 9 10 15 20 22 23 24 25 28 25 27 30 31 32 31 30 30 30 31 31 31 31 32 30 30 30 30 29 27 27 27 24 21 26 26 29 30 34 36 37 40 37
13 11 10 9 11 16 21 22 22 23 24 24 24 24 24 26 29 29 31 33 32 33 33 34 34 33 32 32 31 30 30 31 26 27 24 23 24 29 31 32 33 35 31
20 19 17 14 10 8 13 18 20 21 21 24 23 23 23 26 28 31 34 36 34 33 33 34 34 34 33 36 34 33 33 34 32 32 28 12 17 18 20 28 29 24 23
20 20 20 20 18 13 8 8 13 16 19 20 22 24 28 30 30 30 30 29 31 32 32 31 33 34 35 36 34 33 34 35 37 31 36 39 32 16 14 17 22 22 20
17 20 21 21 20 19 16 9 6 9 13 16 18 23 25 29 29 26 24 26 27 30 31 31 31 33 34 35 34 32 33 35 38 39 33 37 41 41 37 29 32 28 28
16 17 19 20 21 20 18 17 14 11 10 12 15 18 22 22 23 23 21 22 22 24 27 29 30 32 33 35 34 34 34 36 38 40 41 43 35 40 41 39 39 37 36
14 15 20 21 21 21 20 18 15 14 11 9 9 11 13 17 21 24 24 22 24 24 27 28 29 31 32 34 36 37 39 39 41 42 45 46 49 46 37 37 37 32 32
12 12 15 16 16 17 18 19 19 19 18 16 15 12 13 14 15 15 17 19 20 22 22 25 28 28 31 34 36 38 39 40 41 42 46 49 51 50 49 44 40 32 32
10 9 10 12 13 13 16 17 17 18 19 19 18 17 16 13 13 16 17 19 20 22 23 24 27 28 30 32 35 38 41 42 42 45 44 46 49 52 51 49 45 42 32
5 5 7 8 8 9 13 15 16 17 18 19 19 19 19 18 18 17 16 17 18 19 22 24 25 27 29 32 32 36 39 40 42 45 46 47 46 47 51 51 48 46 44
3 5 6 6 8 10 12 14 16 17 19 21 21 21 21 21 21 19 19 19 21 20 20 21 22 25 27 29 32 34 38 41 43 43 44 45 47 45 45 47 49 47 47
1 5 5 5 7 9 12 14 15 16 17 19 20 21 22 22 22 23 25 26 26 25 24 25 26 26 26 28 31 35 39 41 43 45 44 47 46 46 45 43 46 48 51
3 3 5 6 9 12 14 16 18 18 19 20 21 20 19 21 21 23 24 25 26 29 32 33 34 34 32 31 31 32 38 42 42 44 45 46 45 46 46 46 45 48 50
3 4 6 9 11 13 14 16 18 19 19 22 21 21 22 25 28 31 33 35 36 36 34 31 32 34 35 35 35 35 36 39 40 43 43 43 46 48 48 46 45 44 48
4 6 9 11 13 16 16 18 17 18 19 20 21 23 26 26 27 31 31 32 32 33 34 36 37 35 33 33 36 37 38 38 39 42 42 46 44 48 52 47 48 46 46
6 9 12 15 17 16 16 15 14 16 18 18 20 21 25 30 33 34 36 36 36 36 34 34 33 33 33 34 37 38 38 39 38 39 42 45 43 43 49 51 52 50 49
8 11 14 16 15 15 15 15 17 19 19 21 21 22 23 25 27 27 27 29 31 32 33 32 33 34 35 36 35 36 38 41 39 39 41 44 42 42 44 47 48 48 55
10 12 12 12 14 13 14 18 20 21 23 25 24 26 28 28 29 28 29 30 30 29 30 31 31 33 34 34 36 37 38 39 39 38 40 38 42 40 42 46 46 44 47
8 9 11 11 13 13 16 19 21 21 23 22 25 27 27 29 29 29 30 31 31 32 32 32 32 31 32 31 32 34 38 38 38 42 42 38 40 40 39 42 42 41 43
8 10 13 14 13 15 18 21 21 22 22 24 26 27 27 28 30 31 33 32 32 32 33 32 29 29 31 31 34 34 35 39 36 37 48 51 39 38 32 36 36 46 43
8 10 11 12 14 16 17 19 21 21 23 25 26 27 27 29 29 31 31 33 34 34 33 32 30 31 31 34 38 34 35 35 37 39 39 41 43 37 36 33 37 40 46
11 13 15 15 15 16 18 20 22 24 26 27 27 29 29 29 30 30 32 31 30 30 30 30 32 34 35 39 40 38 35 39 43 43 40 38 40 36 35 36 33 42 47
15 13 14 15 16 17 19 22 24 26 28 29 29 30 30 30 29 31 31 33 29 28 29 30 34 37 40 41 40 39 43 42 43 45 45 37 35 32 31 31 37 38 43
12 14 15 17 19 20 23 24 27 27 28 30 30 31 31 31 30 30 30 29 29 30 29 33 36 38 43 40 41 44 46 46 45 47 45 42 35 28 30 30 31 36 39
13 15 18 19 22 23 25 24 25 25 27 28 30 31 30 31 33 31 31 29 28 29 35 37 37 38 39 39 39 41 43 46 44 45 43 40 37 30 26 27 32 34 34
14 16 18 20 23 24 24 24 24 24 27 30 31 31 32 33 35 33 33 32 32 32 32 34 32 34 36 38 39 39 39 40 39 39 34 34 32 30 26 30 34 35 32

GFSMW_850_spd_006.txt.gz
Wind_Speed
9 5 5 8 19 15 11 20 24 26 28 31 33 35 37 35 34 35 36 35 35 33 34 36 35 34 35 34 33 32 32 33 32 30 32 32 31 34 36 36 39 41 43
14 14 13 11 7 9 19 19 16 22 24 29 32 33 33 35 34 34 35 35 35 36 36 37 38 38 38 38 38 36 35 35 32 32 30 30 31 37 41 42 43 43 40
15 16 17 17 15 12 8 10 20 12 19 21 25 29 28 29 30 31 31 33 33 33 35 36 38 39 39 39 40 39 37 37 34 33 28 15 20 21 22 23 25 29 33
16 17 19 20 19 19 17 12 7 15 12 16 18 23 26 29 29 29 29 29 28 29 30 31 35 39 41 41 41 40 40 37 39 35 39 41 40 26 21 26 27 25 29
14 17 18 18 20 19 18 16 13 9 4 15 17 20 22 25 26 26 26 28 28 28 33 35 33 34 39 42 42 40 40 40 40 41 38 39 43 48 42 33 34 33 35
11 14 14 15 17 18 20 20 19 17 14 9 6 7 15 20 23 26 27 27 28 26 29 32 35 35 35 40 42 42 43 45 44 44 42 41 37 41 38 38 44 37 38
7 9 10 12 13 15 17 18 18 19 18 17 16 14 12 13 15 18 19 21 22 23 24 27 31 33 33 35 39 42 44 46 47 47 48 47 48 47 41 43 47 36 40
6 6 8 10 12 13 15 16 16 17 18 18 19 19 18 19 18 18 19 20 21 22 22 24 25 28 32 32 32 37 41 44 47 48 50 51 49 45 44 44 39 38 38
4 4 6 6 7 10 14 16 16 16 18 19 20 22 22 23 23 23 23 23 22 22 22 23 25 26 29 31 33 35 37 42 45 48 49 51 51 48 48 48 47 45 39
3 1 2 4 7 10 12 14 16 17 18 19 20 21 22 23 23 22 23 24 24 25 25 24 23 23 24 26 28 32 37 40 44 47 48 49 49 49 50 51 47 47 48
2 1 2 5 8 8 11 12 13 16 19 20 21 19 18 17 20 21 22 25 28 28 29 28 29 29 29 27 26 27 33 37 40 43 46 47 47 47 47 47 47 47 46
6 4 1 2 5 10 10 8 10 13 17 21 23 23 23 22 24 26 27 28 30 31 31 31 31 32 32 32 33 33 32 32 32 37 41 44 45 47 47 48 51 50 48
7 4 1 3 5 8 11 13 17 19 21 22 22 22 23 26 28 30 31 33 34 34 33 33 34 33 31 31 31 32 35 34 32 32 32 34 39 44 46 48 52 51 49
7 3 1 4 7 11 13 15 20 20 20 20 21 22 23 25 28 31 35 37 37 37 36 36 34 34 34 32 30 30 34 36 38 38 38 37 37 40 44 46 48 51 50
6 1 4 7 10 13 14 18 17 18 19 21 23 23 25 29 31 34 35 36 35 35 36 37 36 34 32 31 31 35 37 38 39 39 39 38 39 38 38 44 48 46 47
4 1 5 8 10 11 15 21 20 22 22 23 25 22 25 28 30 31 31 30 30 32 34 33 34 35 34 35 34 31 36 38 40 43 42 38 37 37 35 36 41 46 50
6 1 4 7 13 18 20 20 22 23 22 23 26 23 29 30 29 29 29 28 30 31 28 32 31 33 33 32 31 32 35 38 41 42 41 40 37 38 36 36 38 42 43
5 2 8 15 17 18 18 20 22 23 23 24 21 27 29 30 31 31 31 32 33 30 33 31 32 31 31 27 28 32 35 39 39 38 38 35 37 36 35 35 42 40 42
4 8 12 14 14 11 15 20 21 19 20 19 26 28 29 32 33 34 35 37 33 34 34 32 31 31 29 30 31 33 36 37 38 34 36 36 39 40 37 37 38 43 41
9 11 13 12 10 14 16 16 15 18 19 25 28 30 32 33 34 34 37 37 34 39 34 36 31 30 31 32 33 35 33 38 40 44 45 42 39 38 39 36 37 41 45
9 12 12 11 13 12 14 17 19 22 25 29 31 34 34 34 34 35 35 35 40 36 39 36 32 32 32 37 36 36 33 32 43 46 48 49 42 41 39 39 36 39 43
11 13 12 11 11 14 19 23 26 28 31 33 35 35 34 34 34 33 34 36 37 35 34 34 35 33 39 41 41 37 34 37 42 45 48 49 47 44 42 40 38 34 35
14 13 13 13 15 17 21 26 28 29 31 32 33 33 35 35 33 34 36 35 32 34 32 34 35 43 46 42 41 36 39 43 43 43 46 47 47 43 39 38 36 31 33
11 13 15 17 19 21 23 25 27 28 30 32 34 36 36 36 38 38 33 35 33 32 34 36 39 41 43 43 38 40 46 46 44 44 45 42 41 38 36 33 29 27 27
11 14 17 19 21 24 25 26 27 28 30 33 35 37 38 38 40 39 37 31 29 31 35 36 37 39 39 40 39 39 43 43 40 39 37 41 42 40 35 33 29 28 24
14 16 18 21 24 26 27 28 27 28 30 33 35 36 36 36 39 36 37 36 32 32 32 33 30 33 34 36 38 41 40 36 34 32 32 40 40 38 34 29 26 23 22

GFSMW_850_spd_009.txt.gz
Wind_Speed
7 7 9 11 10 13 9 18 24 27 29 29 29 29 31 31 32 33 34 35 35 36 35 36 37 38 37 38 38 38 38 39 38 35 38 38 38 41 43 42 42 43 42
11 12 12 11 10 7 5 14 14 14 20 28 28 29 30 31 31 30 31 32 35 36 37 37 39 40 40 40 41 41 41 43 42 40 38 33 37 44 42 40 41 45 45
12 14 15 16 15 15 12 8 5 13 12 13 15 24 28 28 28 29 30 29 30 31 33 34 36 38 40 42 43 43 43 45 44 42 33 13 19 23 27 21 22 24 30
11 13 16 18 18 16 15 14 10 3 9 11 11 10 17 22 24 26 27 27 26 28 29 31 34 34 36 38 40 43 44 42 45 42 46 47 44 30 26 31 25 25 30
12 14 15 15 16 16 16 16 15 12 7 7 13 15 15 17 19 19 21 22 22 21 23 26 29 33 34 35 37 39 42 43 43 44 43 42 45 49 43 37 45 38 41
10 10 11 11 13 14 14 15 15 16 16 14 11 9 8 9 12 13 15 17 17 17 17 17 20 26 33 36 36 36 38 40 44 46 46 45 38 38 39 39 40 42 44
8 8 8 9 10 11 12 12 13 14 16 16 17 18 18 17 18 18 19 19 18 18 18 19 21 23 25 28 33 36 37 35 37 43 49 51 51 50 49 43 45 42 42
6 4 4 4 6 9 11 12 12 12 14 15 16 16 16 16 16 16 17 17 18 18 18 17 17 18 22 25 26 28 33 36 39 40 40 46 49 50 52 47 43 42 42
5 3 1 2 4 7 11 13 14 14 15 16 17 18 18 19 21 20 20 21 23 24 25 25 25 24 22 20 21 24 26 30 35 38 40 43 45 47 49 50 47 44 39
10 5 3 1 2 6 10 10 9 12 15 18 20 20 19 19 20 21 22 24 24 26 27 27 27 27 27 27 28 28 28 28 30 33 35 36 39 42 44 45 47 50 48
11 6 3 1 3 6 3 3 8 13 18 20 21 20 21 22 24 25 25 27 29 30 31 31 31 31 31 29 28 27 28 30 30 31 31 31 31 35 39 42 45 47 48
9 5 3 3 1 1 1 6 11 16 20 20 21 21 22 24 25 26 29 33 36 37 36 34 33 33 32 31 30 30 28 29 27 27 28 31 35 36 37 38 41 43 47
8 7 7 5 5 4 4 9 15 19 21 21 22 22 23 26 27 30 32 35 37 37 36 35 35 34 32 31 31 28 30 35 35 35 35 35 35 37 39 38 39 39 43
11 10 7 4 2 5 9 13 18 22 21 20 22 24 26 28 31 34 36 36 34 33 34 35 35 34 36 34 30 33 34 32 33 35 35 36 35 35 37 37 38 39 40
12 11 7 3 2 7 12 16 21 21 21 23 24 25 27 29 32 33 32 32 32 32 33 34 33 35 33 34 35 31 37 32 34 39 43 42 39 37 34 32 34 35 37
15 11 6 1 5 10 15 18 19 21 22 23 24 26 28 30 32 32 32 32 33 32 33 31 33 32 32 33 26 33 34 37 41 42 42 40 40 37 32 33 34 35 37
13 9 4 3 8 11 15 19 21 22 24 24 23 25 28 31 32 33 33 33 33 35 32 30 35 32 31 28 30 30 35 41 40 40 39 37 35 41 39 40 36 36 38
10 5 2 8 12 15 17 18 20 21 20 21 23 27 30 32 33 33 33 33 34 34 34 37 31 36 32 28 28 32 36 38 38 37 37 38 42 39 38 37 40 43 42
5 1 8 14 16 17 19 20 18 18 20 22 25 28 30 31 32 33 33 33 34 34 36 33 35 29 32 27 31 36 40 41 39 34 37 41 41 39 41 39 41 45 48
3 8 15 21 23 19 18 16 16 18 20 23 26 27 28 29 30 30 31 31 33 35 33 31 32 30 29 34 39 39 35 39 37 36 44 43 41 42 42 42 45 50 50
10 17 19 23 15 14 14 16 18 20 22 25 26 27 28 29 30 32 32 33 34 32 33 31 27 29 32 38 36 31 34 36 38 43 47 48 45 43 40 41 42 43 43
19 19 18 12 10 12 15 18 21 23 24 26 28 29 30 31 32 32 34 34 34 34 32 31 31 34 36 38 34 33 32 33 39 43 47 49 45 43 44 42 39 40 40
18 18 12 10 11 14 18 21 23 24 26 28 29 31 32 33 32 34 35 36 35 34 32 31 36 36 40 38 36 33 36 38 41 42 44 44 43 39 43 38 37 34 33
14 10 11 13 16 18 20 22 24 25 27 29 31 33 35 35 36 36 36 36 35 33 32 36 36 39 40 38 36 41 42 45 45 47 45 40 34 36 40 41 37 34 33
9 10 14 16 18 21 22 23 24 26 29 31 33 35 36 37 38 37 36 35 34 29 32 34 35 36 36 37 38 36 40 41 41 41 38 34 34 39 41 43 39 36 31
11 14 15 18 21 22 23 24 24 26 29 32 33 34 35 37 38 38 41 37 35 31 29 29 26 31 32 34 35 36 36 36 36 34 31 33 36 40 41 45 43 36 29

GFSMW_850_spd_012.txt.gz
Wind_Speed
6 4 3 3 6 10 13 9 14 23 28 29 32 31 29 29 28 27 27 27 29 31 33 35 36 36 37 38 38 39 40 42 43 44 47 48 47 48 49 48 48 48 48
8 10 11 12 12 10 7 4 10 12 13 15 22 29 31 31 30 28 27 27 27 27 28 30 32 34 36 36 37 39 40 42 42 43 40 32 39 45 45 38 34 32 34
11 13 13 15 14 15 16 14 11 7 8 8 8 13 20 26 24 22 22 23 24 24 26 28 31 33 34 36 37 37 38 42 40 42 36 19 21 32 36 31 28 32 34
9 11 13 15 17 19 17 16 14 9 5 4 4 4 7 11 13 17 19 20 20 23 23 22 23 25 27 33 35 38 39 40 41 38 41 45 46 31 31 38 37 33 38
9 11 13 15 16 16 17 16 15 15 15 13 9 6 5 7 9 10 12 15 16 15 16 17 18 20 21 24 27 32 38 41 43 42 42 43 43 47 45 36 44 43 40
9 9 11 11 12 12 13 13 13 14 13 12 12 13 12 11 11 12 13 14 14 14 14 15 18 21 22 23 23 27 29 32 37 43 45 43 36 35 37 39 40 44 51
9 8 7 7 8 9 10 11 11 12 13 14 15 15 15 14 15 15 17 19 21 22 22 22 21 21 21 21 21 22 25 29 33 35 38 41 43 44 46 45 44 41 42
10 7 6 5 5 7 8 8 8 9 11 13 14 13 13 14 15 16 18 19 21 22 23 25 25 25 25 25 27 27 26 25 26 29 30 33 35 38 41 43 41 42 43
11 9 5 3 4 5 4 5 7 8 10 13 14 14 15 16 18 19 20 21 22 24 26 27 28 28 28 27 27 28 29 29 30 31 31 29 30 30 32 35 37 41 37
13 9 6 5 5 3 1 1 4 7 11 14 16 17 18 19 20 21 23 25 27 30 32 33 33 32 30 30 29 30 29 28 27 27 28 29 30 31 32 32 33 36 38
15 10 7 6 6 4 5 2 4 9 14 17 17 18 20 22 22 24 27 30 32 35 35 34 33 33 32 31 30 30 29 27 28 31 33 33 33 35 36 37 38 38 37
15 10 9 9 8 8 5 3 7 12 16 18 18 19 22 24 25 27 29 32 34 33 33 33 34 35 34 32 32 29 28 33 35 34 30 32 32 34 36 37 38 40 39
15 13 12 11 11 8 4 6 10 15 18 19 20 22 23 24 26 29 31 31 31 32 32 33 33 33 32 33 31 27 35 33 32 30 32 35 39 41 40 37 38 41 40
16 16 16 14 11 6 4 7 12 16 19 21 23 23 24 25 26 28 29 31 32 33 34 34 34 33 33 33 29 33 33 35 33 31 35 39 39 37 36 35 33 34 37
18 17 15 12 7 3 4 10 15 19 22 21 21 21 22 23 27 29 31 32 32 33 34 35 35 34 34 32 33 33 36 35 37 39 41 42 39 37 27 31 38 32 39
18 16 13 9 5 4 9 15 20 21 21 20 19 20 23 26 28 30 31 31 31 32 32 33 34 36 34 33 32 30 35 35 39 45 46 44 43 39 34 38 35 35 34
19 16 12 6 3 10 17 18 18 19 17 16 18 21 25 27 28 29 30 31 32 33 34 34 34 34 33 31 28 30 35 40 43 47 48 48 43 42 44 42 40 41 40
18 12 4 3 10 15 15 15 16 14 16 19 21 24 26 28 29 30 31 32 32 33 34 35 33 34 33 27 29 35 42 45 44 40 43 39 40 45 43 43 46 47 46
11 5 3 9 13 16 16 15 14 16 18 21 23 25 27 29 30 31 32 32 34 34 34 33 33 31 29 28 35 36 37 38 37 38 35 36 42 45 38 42 45 49 50
4 3 9 13 18 18 16 15 17 19 21 23 25 26 26 27 29 30 31 33 33 35 35 35 32 30 29 35 34 33 35 37 37 37 39 41 41 40 40 41 45 48 49
4 10 17 19 21 17 16 17 19 21 22 23 25 25 26 28 29 31 31 34 35 36 36 36 35 31 32 35 32 31 32 34 37 40 42 45 43 42 44 42 39 39 44
9 12 15 20 16 14 16 17 19 21 22 24 25 27 28 29 31 31 33 34 36 36 38 36 34 34 35 35 32 31 30 34 38 40 43 45 45 46 41 36 35 39 41
10 13 16 14 11 13 15 18 20 22 24 26 27 29 30 31 31 33 35 36 36 36 35 32 34 37 39 38 35 33 35 37 38 39 40 42 39 37 34 35 35 37 42
11 12 8 9 12 14 16 18 21 23 25 28 30 31 32 33 33 35 36 35 35 33 32 34 35 37 38 37 38 38 42 41 41 41 45 38 34 32 34 35 39 41 43
7 6 10 12 14 16 17 18 20 24 27 29 30 31 32 33 36 37 37 35 33 26 31 34 35 35 37 38 35 37 37 38 37 41 39 37 39 40 40 42 40 42 44
6 9 11 14 16 18 19 20 22 24 27 30 31 31 32 35 38 39 41 37 32 29 28 28 27 31 30 32 35 34 34 32 37 36 33 38 38 38 39 44 44 45 45

GFSMW_850_spd_015.txt.gz
Wind_Speed
7 5 5 4 4 5 7 9 8 9 11 19 25 28 30 30 29 28 29 29 28 28 30 32 33 32 33 34 37 39 39 40 39 41 41 41 42 44 45 43 43 43 42
9 10 12 13 14 13 12 9 7 7 7 5 9 17 20 22 19 19 20 19 24 26 28 28 29 30 32 32 33 35 38 41 39 41 38 29 32 35 38 38 37 38 35
13 14 15 17 17 18 17 16 14 12 11 9 5 3 6 9 11 13 14 15 16 18 20 22 23 24 25 28 29 30 32 35 34 37 38 21 20 30 37 39 42 42 41
12 14 17 18 19 20 18 16 15 15 15 11 7 6 5 4 6 9 11 13 15 15 16 17 19 20 22 23 24 23 25 28 34 33 36 39 43 31 33 33 35 44 44
12 14 16 16 17 15 14 13 13 14 15 15 15 14 13 12 9 7 7 9 10 12 14 15 17 19 20 21 22 24 25 24 29 33 35 37 43 43 42 38 34 36 44
13 13 13 13 12 11 10 10 11 12 12 11 10 10 9 9 9 11 13 16 17 19 20 21 22 23 24 25 25 25 25 26 26 28 30 32 33 34 32 35 36 41 44
14 13 12 10 9 8 8 9 9 9 9 10 11 12 12 13 14 16 19 21 24 25 26 26 27 27 28 28 29 29 28 27 27 28 29 31 32 32 33 35 41 36 39
14 13 10 8 6 5 5 6 7 8 10 12 13 13 13 15 16 18 19 21 23 24 26 27 29 30 30 30 30 30 29 29 29 29 28 29 31 30 29 31 33 38 38
16 13 10 7 5 3 2 4 5 7 10 12 13 14 15 17 20 21 22 23 25 28 30 31 33 33 33 33 32 32 32 31 30 29 29 30 32 33 32 31 30 31 35
16 13 10 9 6 3 2 3 3 6 10 12 14 16 17 18 20 22 25 27 29 30 32 32 33 33 33 32 32 32 31 30 30 33 34 34 31 32 33 35 36 35 36
15 13 12 10 8 6 4 4 3 6 10 13 15 17 19 21 23 25 27 29 30 31 32 32 33 33 33 33 33 32 29 29 35 34 33 32 29 33 36 39 39 39 34
13 13 13 11 10 8 8 6 4 7 11 13 16 19 21 24 26 27 27 29 31 32 33 34 34 34 34 34 34 33 30 35 35 34 31 30 32 36 37 39 41 40 37
15 15 14 13 12 12 9 5 6 11 14 18 21 23 25 25 25 26 29 30 31 32 33 33 34 35 35 35 34 30 35 37 35 32 32 35 37 39 39 40 39 34 32
15 17 16 16 14 11 6 4 8 12 16 20 22 23 22 22 24 26 27 28 30 31 33 33 34 35 36 36 35 35 35 36 36 36 36 39 38 39 44 42 35 35 43
18 18 18 16 12 7 2 6 11 15 19 21 21 20 21 23 25 26 28 29 30 31 32 34 34 34 34 34 35 34 35 35 41 43 45 46 42 43 35 34 36 41 42
16 16 15 13 6 1 5 11 16 19 21 20 20 21 23 24 25 27 28 30 31 32 34 35 35 37 36 35 33 31 33 38 44 48 48 46 45 41 36 32 36 37 36
16 17 13 7 3 4 11 16 20 21 19 18 19 22 24 25 27 28 30 32 34 35 36 36 36 36 36 34 32 31 34 41 42 41 43 43 40 38 39 44 43 42 38
16 14 10 5 2 10 15 17 20 18 18 19 20 22 24 26 28 30 32 33 34 35 36 37 37 37 36 34 31 32 36 38 38 38 38 39 40 42 40 44 47 48 47
13 11 7 2 11 19 23 20 17 16 17 19 21 23 26 28 30 31 32 33 34 36 36 37 37 37 37 33 32 33 35 38 38 39 38 37 40 39 40 42 46 49 49
9 7 4 10 12 12 13 13 14 17 19 22 23 24 25 28 30 31 32 33 34 36 36 37 37 36 36 36 32 32 34 37 38 41 42 42 39 41 39 43 47 46 44
9 7 8 7 10 12 12 13 16 19 21 22 23 24 26 28 29 31 31 33 36 37 38 39 40 38 36 37 32 31 33 36 39 42 44 45 42 41 44 41 41 37 38
8 6 7 10 12 12 13 16 18 19 21 23 25 26 28 29 30 31 34 36 37 37 38 39 40 38 37 37 33 32 33 33 39 42 44 42 43 44 41 39 36 36 36
9 8 11 12 10 12 15 17 18 20 22 25 27 28 30 31 31 34 36 37 37 37 37 36 35 37 40 39 35 33 33 37 38 40 36 41 43 40 40 37 34 33 37
10 11 11 10 12 13 15 17 19 21 24 27 29 31 32 34 34 35 36 36 36 36 33 34 35 39 39 37 39 39 42 41 40 37 41 45 39 34 37 35 37 38 39
11 9 9 11 12 14 16 17 20 23 26 29 31 33 34 35 36 37 37 36 34 28 30 33 35 36 37 37 35 37 39 38 38 39 43 45 38 39 39 39 41 42 43
9 8 10 12 14 15 16 18 20 24 28 31 33 34 34 35 37 39 42 38 33 29 28 28 27 30 31 32 34 35 34 35 35 38 40 38 37 38 41 42 44 46 45

GFSMW_850_spd_018.txt.gz
Wind_Speed
7 7 6 5 6 5 4 4 6 6 6 5 8 13 15 17 19 21 22 23 24 24 23 25 26 27 28 29 29 31 33 34 35 37 40 40 39 38 37 38 38 36 41
9 10 11 12 12 13 14 14 15 14 13 9 6 4 5 6 5 6 9 11 12 14 16 19 21 22 24 26 26 26 27 29 29 31 35 27 28 32 30 32 40 41 40
13 14 16 17 17 18 18 18 18 16 15 13 9 6 4 4 2 5 5 8 10 13 15 16 18 19 20 22 23 24 24 26 26 27 28 20 23 33 36 32 38 39 41
14 16 18 18 17 18 16 15 16 16 17 15 13 9 8 8 11 10 10 10 11 13 14 16 17 19 21 22 23 24 24 24 26 25 27 31 36 33 36 32 34 37 42
16 16 17 17 16 14 13 13 13 14 15 15 15 14 13 13 10 9 10 13 15 18 19 21 23 24 25 26 27 27 28 27 27 26 27 29 32 33 31 38 31 35 35
17 17 16 14 14 12 10 10 11 13 13 12 13 13 13 13 13 15 17 19 21 23 25 26 27 27 28 29 30 30 30 30 30 30 29 28 27 30 32 34 37 36 37
20 18 15 13 11 10 9 9 9 11 11 13 14 14 14 14 16 18 21 24 26 29 30 31 32 33 33 33 33 33 32 31 31 30 30 29 29 30 30 31 36 34 41
19 17 14 12 9 8 7 7 7 9 10 12 13 13 14 16 18 20 23 25 27 28 30 31 31 32 32 33 33 33 32 31 29 29 29 31 32 31 29 27 30 36 36
21 18 14 10 8 6 5 4 6 8 8 11 12 14 15 18 21 23 25 27 28 28 29 30 31 31 32 33 34 34 34 32 30 30 33 33 32 29 26 25 27 26 31
20 17 14 11 8 6 4 3 2 4 7 10 12 15 17 20 23 24 25 26 27 28 30 31 31 32 32 33 34 35 34 33 32 35 35 33 30 28 24 32 32 30 28
19 17 15 12 9 8 5 2 0 4 7 10 13 16 19 21 23 24 25 26 27 28 29 31 32 33 35 35 35 35 34 34 36 36 34 29 30 32 37 38 37 37 37
16 17 15 12 11 10 7 3 1 4 8 11 15 18 21 23 23 24 25 26 27 28 30 32 33 34 35 36 37 36 36 36 37 35 32 36 36 39 40 35 40 39 35
17 17 16 15 13 10 6 2 2 7 10 14 19 22 23 23 23 24 25 26 28 29 30 32 34 36 37 38 37 38 39 37 37 33 39 42 43 42 35 39 37 34 35
15 16 17 16 13 9 5 3 5 8 14 19 22 22 22 23 24 25 26 27 28 30 32 34 35 36 37 37 37 38 38 38 37 39 43 45 42 40 38 37 35 36 35
15 16 16 15 12 8 4 2 7 13 18 21 20 21 22 23 24 25 26 28 30 32 34 36 37 38 39 38 38 37 37 37 39 43 45 44 40 35 31 34 38 38 40
12 14 15 13 10 7 3 5 13 18 19 20 21 21 23 24 25 26 28 31 33 35 36 38 39 40 39 38 36 33 34 37 40 43 43 40 39 37 37 36 38 36 39
9 13 13 12 10 5 4 12 20 22 22 21 22 23 24 24 25 28 31 33 35 38 38 39 38 39 38 37 34 31 32 37 39 39 39 40 40 40 41 43 41 43 41
10 14 14 11 6 3 9 14 16 16 18 19 22 22 23 25 27 30 33 35 37 38 38 38 38 38 38 36 34 31 34 36 37 38 39 38 40 41 39 43 46 47 50
10 12 10 8 3 7 10 14 15 16 18 19 20 22 24 27 30 32 34 35 36 37 39 39 39 39 40 36 31 32 35 37 39 41 41 35 40 40 39 40 49 49 49
10 12 10 5 6 8 13 14 15 17 17 18 21 23 25 28 31 32 34 34 35 38 40 41 40 39 39 36 31 32 34 37 40 42 40 43 37 37 38 45 45 43 50
12 11 7 5 6 11 14 14 13 15 18 20 22 24 26 29 31 32 32 35 38 40 41 43 42 40 35 35 32 31 32 35 40 42 46 45 41 35 45 43 40 40 42
10 8 7 8 11 12 11 12 14 17 19 21 24 26 28 30 31 32 35 37 39 41 42 42 42 37 33 35 33 31 30 33 38 42 44 48 35 44 44 37 36 37 35
8 8 9 9 9 9 11 14 17 19 22 24 26 28 30 31 32 35 37 39 40 40 40 38 35 36 37 38 36 32 34 36 38 40 39 38 42 44 42 36 36 34 38
9 8 7 7 7 10 13 16 19 22 24 26 28 30 32 34 34 35 37 38 39 37 33 32 34 38 40 38 38 39 41 40 41 42 40 41 43 39 36 40 43 40 39
7 7 9 8 9 12 15 17 20 23 25 27 30 33 35 36 37 37 37 37 35 27 30 32 34 36 37 38 35 36 38 39 39 41 41 42 40 41 42 44 44 44 43
6 7 8 9 11 15 16 18 20 23 26 30 33 34 36 36 37 38 41 37 32 26 28 27 26 30 31 32 34 35 35 35 38 36 35 35 39 37 41 43 46 47 44

GFSMW_850_spd_021.txt.gz
Wind_Speed
5 6 6 6 7 8 9 11 12 13 9 6 5 2 2 3 6 7 8 8 9 10 12 13 14 17 19 21 22 24 25 27 28 30 33 31 36 26 29 30 27 30 34
10 9 10 12 14 16 17 17 18 17 15 13 11 9 8 8 7 7 6 7 8 10 12 13 15 16 18 19 21 23 25 26 25 23 29 22 29 25 21 35 37 39 36
14 15 16 18 17 17 18 19 19 18 18 17 14 13 11 12 9 9 9 10 10 11 13 15 16 18 20 21 23 24 25 27 27 23 18 17 20 36 33 31 32 31 32
18 18 18 18 17 17 16 17 18 19 20 17 15 13 13 12 13 10 10 9 11 13 16 18 21 23 25 26 27 28 28 29 30 30 25 27 30 24 32 23 27 32 27
20 20 18 16 16 15 14 14 15 16 16 15 14 13 13 13 11 9 11 14 17 20 23 25 27 28 28 28 28 28 28 27 28 26 26 27 26 23 26 38 30 36 30
21 20 17 16 15 13 12 12 12 15 14 13 13 13 12 11 11 13 16 20 23 26 29 30 31 31 31 31 31 30 29 28 28 28 27 20 21 24 27 33 41 39 36
23 22 19 16 14 12 11 10 10 12 11 10 11 12 12 13 15 18 21 24 27 29 30 29 29 29 29 28 29 29 29 29 29 27 27 27 27 26 25 28 34 35 37
24 21 18 15 13 12 10 9 8 9 9 9 10 11 12 14 17 20 23 26 26 27 27 27 27 27 28 29 30 30 31 31 29 27 28 31 30 26 23 27 29 34 36
26 22 19 16 14 12 10 7 6 6 6 7 8 10 12 15 19 22 24 24 25 25 26 26 26 27 27 28 30 31 33 33 32 34 34 33 30 22 25 23 30 27 33
25 22 19 16 15 12 10 7 5 3 4 5 7 10 14 17 21 23 24 24 24 24 24 24 25 27 29 31 33 35 35 35 35 34 34 31 25 31 31 33 34 32 27
25 23 19 17 16 14 10 7 4 1 2 5 8 12 16 20 22 23 23 23 22 23 23 25 28 30 32 33 34 35 36 37 36 34 33 26 29 34 33 36 30 27 28
22 21 19 18 17 14 10 7 4 1 3 7 11 16 18 20 22 22 21 21 22 23 25 27 29 31 33 35 36 37 37 36 35 33 26 28 32 35 33 28 28 29 28
20 20 20 19 17 14 11 7 4 2 5 10 15 19 20 20 20 20 21 21 23 25 26 29 31 34 35 36 36 37 37 35 32 31 30 33 32 34 31 30 32 30 32
19 20 20 19 16 13 10 7 3 4 11 16 21 22 21 20 20 20 21 22 24 27 29 31 33 34 36 36 36 37 35 33 33 32 31 34 31 30 33 33 33 34 36
19 20 21 19 17 14 10 5 2 9 14 19 20 20 20 20 20 20 22 23 26 29 32 34 35 35 36 36 36 34 34 34 35 35 35 32 31 31 30 32 38 38 39
16 18 19 19 17 13 7 2 5 12 16 17 18 19 19 20 20 21 24 27 30 32 34 36 37 36 36 36 36 34 33 31 33 36 36 34 35 34 34 35 37 34 38
14 17 19 18 14 10 5 3 8 13 14 16 16 18 19 20 21 24 27 30 32 35 37 37 37 38 38 37 35 31 29 32 33 32 35 39 36 35 39 37 37 40 35
11 15 17 16 13 8 2 5 11 13 14 15 17 18 19 21 23 26 29 32 35 37 38 38 38 39 39 37 33 29 30 33 31 32 34 37 39 40 36 40 45 44 49
8 12 13 13 10 4 4 9 12 15 16 16 16 18 20 23 26 29 32 34 36 38 39 39 40 39 39 35 30 29 33 35 35 34 35 33 41 38 38 40 44 51 50
8 12 13 11 7 4 6 12 15 14 14 15 17 19 22 25 27 30 33 34 36 38 40 41 40 37 37 34 28 30 33 37 39 37 35 38 36 37 34 43 45 44 47
9 11 11 8 5 6 9 11 13 13 14 16 18 20 23 26 30 32 34 35 38 40 41 42 40 37 33 30 30 30 32 35 39 42 41 42 40 35 42 42 40 38 41
11 11 9 6 7 9 8 11 12 13 15 17 19 22 25 29 31 33 34 36 38 39 41 41 39 35 31 31 31 31 30 32 37 41 43 43 41 45 42 39 35 36 36
12 11 8 7 8 8 9 10 12 14 16 19 22 25 28 31 32 34 36 37 37 38 38 35 35 35 39 35 32 31 32 34 37 39 37 41 43 39 38 37 36 34 38
12 9 7 8 8 9 9 10 12 16 19 22 25 29 32 33 33 34 35 36 36 35 32 32 33 37 37 37 37 38 40 39 40 38 43 43 37 33 38 38 38 39 38
10 8 7 6 7 7 8 11 14 18 21 25 29 32 32 33 35 35 35 34 32 27 28 31 32 33 34 36 34 36 38 37 37 41 41 39 36 39 41 40 39 42 42
8 8 6 5 6 8 9 12 16 20 25 29 31 31 33 34 35 36 38 32 30 28 26 25 25 29 29 31 34 35 34 33 37 37 35 35 35 38 39 40 44 46 44

GFSMW_850_spd_024.txt.gz
Wind_Speed
5 5 7 9 10 11 11 12 11 9 9 9 10 9 7 6 6 7 6 5 5 7 9 10 12 14 16 19 20 20 22 19 19 23 25 24 25 18 24 22 21 27 30
9 9 12 14 16 17 17 17 17 16 14 13 13 13 12 12 11 10 8 9 10 11 12 13 15 17 18 20 22 23 25 22 20 20 26 20 27 17 20 30 30 27 30
15 13 16 19 20 19 19 19 18 18 18 16 15 15 14 14 13 11 10 10 10 11 13 15 17 19 20 21 22 21 20 19 19 17 16 18 17 35 28 28 27 22 24
17 16 17 19 20 20 19 18 18 17 18 16 15 14 13 13 13 11 10 10 12 14 17 20 21 22 22 22 23 21 20 17 18 19 17 19 24 29 32 21 30 25 24
18 18 18 20 20 19 18 17 16 17 16 14 13 12 12 12 11 10 10 13 16 19 22 23 24 24 24 23 23 22 21 20 18 18 20 21 22 24 29 39 28 35 29
19 18 20 20 19 17 16 15 14 15 14 11 11 11 11 10 9 11 15 19 20 22 24 24 25 24 24 24 24 24 24 26 25 23 18 18 21 25 27 34 39 39 36
20 19 20 19 18 16 15 14 12 13 11 9 8 9 9 9 11 15 19 22 22 23 25 25 24 23 23 24 25 26 26 27 27 25 19 22 21 22 25 29 36 38 39
21 19 18 18 18 16 14 12 11 11 9 6 6 7 8 10 14 18 21 22 22 22 23 23 22 22 23 24 25 26 26 25 24 20 22 22 22 22 23 26 31 38 42
22 21 19 18 17 16 14 12 10 8 7 5 5 5 7 10 14 17 20 21 22 22 21 21 21 22 24 26 28 27 26 25 21 22 22 24 24 23 23 25 26 29 36
21 20 18 17 16 16 14 12 10 7 5 3 3 5 9 12 14 15 18 20 20 20 20 21 22 24 26 28 28 26 25 22 24 23 24 24 25 25 26 27 28 29 31
22 20 18 17 17 16 14 12 9 6 3 1 4 9 13 15 18 18 18 18 19 20 20 22 24 25 27 28 27 26 24 23 25 25 25 27 26 27 28 29 30 29 30
22 20 18 19 18 17 15 12 9 6 2 3 8 11 15 17 18 18 18 18 18 19 21 23 25 26 28 29 29 26 25 25 26 27 27 28 27 29 30 29 30 32 33
20 19 18 18 18 17 15 12 9 5 0 5 9 13 15 17 18 17 17 17 18 20 22 24 26 28 30 30 27 25 26 26 27 28 28 29 29 31 30 30 33 34 35
20 19 19 18 17 17 15 12 8 4 2 7 11 13 16 17 17 17 17 18 20 22 25 27 28 29 30 30 25 31 28 28 28 28 28 29 29 29 32 34 33 35 37
19 20 19 19 18 17 15 12 7 3 5 7 9 12 14 17 17 17 18 20 23 25 26 28 28 29 30 26 33 32 29 28 29 29 29 29 29 31 30 33 38 36 40
18 18 18 18 18 17 15 11 6 4 6 9 11 14 16 17 17 18 20 23 25 26 28 28 28 29 29 32 33 32 28 28 29 30 31 30 30 29 33 33 36 35 40
16 18 18 18 17 16 14 9 5 5 8 10 13 16 16 16 17 20 23 25 27 29 28 27 29 30 31 32 33 28 27 28 28 29 31 32 32 34 35 39 38 38 39
14 16 18 18 18 16 12 7 4 7 9 12 15 16 15 16 19 22 24 27 29 28 26 26 30 29 27 30 27 27 27 28 28 28 29 32 35 34 37 42 45 43 41
12 14 16 17 17 14 10 6 6 7 11 15 15 15 16 19 22 25 28 29 30 28 27 27 26 28 28 27 26 26 29 29 30 30 30 33 36 37 38 43 45 49 47
11 15 17 17 15 11 7 5 5 8 12 13 14 16 18 21 24 27 29 29 27 28 29 26 24 25 26 23 24 27 29 32 33 35 34 35 35 38 39 44 46 44 45
13 14 15 15 12 7 4 4 7 9 11 13 15 17 20 23 26 28 27 27 28 28 27 26 24 21 21 24 27 27 30 32 38 40 40 39 38 39 44 42 40 39 43
14 15 14 12 8 5 5 8 9 10 11 14 16 19 22 25 26 26 27 26 26 27 27 25 23 21 23 25 27 29 30 32 36 40 41 42 40 45 42 37 34 37 37
12 12 10 8 5 7 10 9 8 10 13 16 19 21 24 25 24 25 26 25 25 24 25 24 26 27 27 26 28 30 32 35 37 38 40 39 43 39 37 33 35 34 35
11 10 9 7 10 9 6 6 9 12 15 17 21 23 24 25 24 26 25 25 23 23 23 25 28 31 30 30 32 37 41 39 40 40 40 41 35 33 33 35 35 36 37
12 12 10 9 8 5 5 8 10 13 15 19 22 22 24 25 27 27 25 25 23 22 24 26 27 31 33 33 34 36 40 39 39 39 41 34 34 37 38 38 38 40 40
13 11 9 7 6 5 7 9 11 13 17 21 21 24 26 26 28 27 25 21 22 23 25 25 24 28 29 32 35 36 35 35 35 36 31 34 35 36 38 40 43 43 42

GFSMW_850_spd_027.txt.gz
Wind_Speed
6 6 6 7 8 9 10 10 11 11 12 12 13 12 11 9 8 8 8 7 7 7 8 9 11 13 13 15 17 18 21 22 19 24 25 26 12 17 20 21 21 25 29
10 9 11 11 12 13 14 15 15 15 14 15 15 15 14 13 12 11 10 8 8 10 11 12 14 16 17 18 20 20 21 19 19 20 26 15 24 13 21 30 27 27 26
14 13 15 15 15 16 16 17 18 18 17 17 17 17 16 14 11 9 9 10 10 11 13 16 17 18 18 19 20 20 19 19 21 16 14 15 13 34 25 26 19 22 29
16 16 17 17 17 18 18 18 18 18 17 15 15 14 13 12 10 9 8 8 11 14 17 19 20 20 20 19 19 17 18 16 18 21 17 19 23 28 29 18 31 23 25
19 19 17 17 18 19 18 18 18 18 17 16 14 13 12 11 9 7 8 11 15 20 21 22 21 21 20 20 20 20 19 19 21 22 22 22 23 26 30 36 28 32 29
21 19 17 18 19 19 18 17 17 17 15 14 13 11 11 9 7 8 10 13 16 19 23 22 21 20 20 21 22 23 23 24 25 25 25 20 23 27 28 35 38 38 34
22 20 18 17 17 17 16 16 15 15 13 12 11 9 8 6 6 8 11 14 16 19 22 22 21 20 21 22 23 25 26 26 27 28 25 24 26 26 28 32 38 38 39
21 20 18 17 16 15 14 14 13 13 11 10 8 6 5 4 6 9 11 13 16 19 21 21 20 21 22 23 24 26 25 22 26 25 24 26 27 27 28 31 32 43 41
23 21 18 16 15 15 14 13 12 10 9 7 5 4 4 7 10 12 15 17 17 17 18 19 20 21 22 22 24 26 25 24 26 25 27 26 29 29 29 29 30 31 41
23 21 19 17 15 14 14 12 10 9 7 4 3 3 6 10 12 14 17 18 17 17 18 18 19 21 23 24 26 27 27 25 24 27 28 29 30 31 31 32 31 32 35
24 22 20 17 16 14 13 12 10 8 6 3 1 5 8 11 14 17 18 17 16 16 17 19 21 23 25 26 26 26 25 23 27 27 29 31 32 32 32 32 34 34 32
24 22 20 18 16 14 13 11 9 8 5 2 2 5 9 12 15 17 17 16 15 16 19 21 24 25 26 26 25 25 23 27 29 30 30 31 32 32 32 32 33 34 35
23 22 20 18 16 15 13 11 9 8 5 2 3 6 10 14 16 16 15 15 17 19 21 23 25 26 26 25 24 23 26 28 29 30 30 32 31 33 32 32 34 37 36
23 22 20 18 16 14 13 11 10 8 6 3 5 8 12 15 16 15 15 17 19 22 24 25 26 26 24 24 23 25 31 30 29 29 29 30 31 31 33 36 35 34 38
23 22 20 19 17 15 13 12 10 8 5 5 7 11 14 15 14 14 16 19 21 24 25 26 25 24 24 23 26 30 31 31 31 30 30 30 31 31 31 32 35 40 41
20 19 19 18 17 15 14 13 11 8 4 5 9 13 14 14 14 16 19 21 24 25 25 25 24 25 26 25 26 27 30 30 29 31 32 32 32 31 32 34 36 36 40
19 19 18 17 16 15 14 12 10 6 4 6 10 12 13 14 16 19 22 23 24 26 25 24 25 27 29 26 27 27 28 28 30 31 33 35 33 33 40 38 38 39 40
16 16 16 16 15 15 13 12 9 5 4 8 10 12 14 16 18 21 22 23 24 24 25 26 27 28 28 26 27 26 29 30 30 31 32 34 37 39 37 40 44 46 45
15 16 16 16 16 15 14 11 6 4 6 7 9 13 15 17 20 22 24 25 25 27 27 28 29 28 29 26 25 27 30 33 34 32 33 36 37 37 37 41 46 47 45
15 17 17 16 15 14 11 7 3 4 4 9 11 13 17 19 21 24 25 25 26 27 28 28 28 26 28 24 25 27 31 34 35 37 40 36 36 37 39 43 45 43 45
15 15 15 15 14 12 8 4 3 5 8 10 12 15 18 21 23 24 24 25 26 27 28 28 27 25 24 26 27 27 30 33 38 43 41 39 38 39 41 42 39 40 42
15 15 15 13 11 8 5 4 4 8 9 11 14 17 20 22 24 24 24 25 25 26 27 27 27 25 25 26 28 28 30 34 38 41 41 43 40 41 41 36 35 36 36
15 14 13 11 9 7 2 3 7 8 10 12 15 18 21 23 23 23 24 24 24 25 26 27 27 28 29 30 28 30 34 36 38 39 40 39 42 37 35 35 33 33 37
13 12 11 10 7 3 5 8 7 8 10 13 17 21 23 23 23 21 22 22 24 25 26 29 30 31 32 30 34 39 42 41 42 41 40 40 34 33 34 36 36 36 36
12 11 10 8 5 6 7 6 6 8 12 16 20 21 22 22 22 22 22 23 22 23 27 30 31 33 34 36 35 37 40 40 39 39 38 34 34 38 38 38 37 39 40
11 11 10 8 8 7 6 5 7 11 14 18 20 20 22 22 22 23 27 22 22 22 24 25 25 29 31 33 36 37 36 35 35 33 33 34 35 36 38 39 42 43 42

GFSMW_850_spd_030.txt.gz
Wind_Speed
14 6 5 6 9 10 9 8 9 10 14 20 17 17 16 13 10 8 9 7 6 6 6 7 9 11 12 15 17 20 22 22 22 26 30 29 17 20 20 16 26 30 32
13 9 11 9 11 14 16 18 19 19 21 22 19 14 12 13 13 11 10 9 8 8 9 12 14 15 15 17 19 20 22 21 20 21 24 15 27 6 29 26 32 18 19
22 16 16 15 16 17 18 19 19 20 20 17 15 16 18 16 13 11 9 8 9 11 14 16 17 17 18 19 19 19 19 21 21 19 15 13 9 40 16 32 19 22 34
24 21 18 18 18 19 20 20 22 21 19 18 18 16 15 14 11 9 8 8 10 14 18 20 20 21 20 19 19 19 19 19 22 23 22 20 23 24 25 18 39 26 34
28 24 20 19 20 20 22 22 22 22 20 18 15 15 15 13 10 8 6 7 12 17 19 22 22 22 21 20 19 20 20 22 23 24 26 28 27 28 34 38 30 38 32
28 25 22 21 21 21 21 21 21 21 20 18 17 15 13 11 8 5 4 6 11 17 19 20 21 21 20 20 20 22 23 24 25 26 27 27 25 31 32 37 41 41 37
30 27 24 22 22 21 20 20 19 20 18 17 15 13 11 8 5 4 6 10 14 18 20 21 20 20 20 20 22 24 25 27 27 28 30 27 29 30 30 34 40 40 42
28 25 23 23 22 21 19 18 18 18 16 14 12 10 7 4 5 7 11 14 17 19 20 20 18 18 19 21 24 26 27 28 28 29 27 29 31 29 31 33 36 46 44
29 27 24 22 22 21 19 17 16 15 13 11 9 7 4 3 6 9 13 16 18 20 19 18 17 19 21 24 26 28 29 29 29 27 30 31 32 32 31 33 34 35 42
29 28 25 22 21 20 18 16 14 14 11 9 6 3 2 5 8 12 16 18 19 18 16 16 18 21 24 27 29 30 30 29 27 29 34 33 33 34 35 32 33 33 35
31 30 26 22 22 20 18 17 14 12 10 8 5 1 2 6 10 14 17 18 16 15 16 19 21 24 27 29 30 30 30 29 29 34 35 34 35 34 34 35 34 35 32
30 29 26 25 23 20 19 16 14 12 10 7 4 1 4 8 11 15 16 16 15 16 18 21 24 27 29 30 30 31 30 28 34 40 37 36 35 36 34 34 36 34 37
29 28 27 26 22 20 18 15 14 12 10 6 3 2 6 10 13 15 15 15 15 18 21 24 27 29 30 30 30 30 29 33 40 39 36 36 33 34 34 36 38 40 37
31 29 28 24 21 20 18 16 14 12 10 6 3 4 8 12 14 15 14 15 18 21 23 27 29 30 30 30 31 28 35 37 40 38 35 31 32 34 36 38 37 33 35
29 29 28 23 23 21 18 16 14 12 9 5 2 5 10 13 14 14 15 17 20 23 27 29 29 29 30 31 28 31 33 37 40 36 31 32 33 33 33 33 36 40 43
30 28 25 25 24 22 19 18 15 12 8 4 2 7 11 13 14 15 17 20 23 26 28 29 28 29 31 33 28 27 31 35 36 35 35 34 35 34 34 36 39 36 40
28 27 26 26 24 21 21 19 14 12 7 3 5 8 11 12 14 17 20 23 26 28 28 29 30 31 33 30 27 27 30 33 37 34 36 37 36 37 42 40 38 40 40
27 26 25 24 23 21 19 16 14 10 5 3 6 10 11 12 15 18 22 25 27 27 30 31 32 32 32 28 28 27 30 35 36 36 35 35 41 42 37 42 44 46 47
26 25 25 25 23 21 19 15 12 7 3 3 7 9 11 14 17 21 25 26 27 29 31 32 32 32 30 30 27 27 32 37 37 35 33 37 40 38 39 42 45 46 44
24 26 25 23 21 20 16 13 8 4 2 5 7 9 12 16 20 24 25 27 28 30 31 32 31 31 33 29 26 27 32 34 37 38 43 39 37 39 39 41 45 40 45
23 22 21 20 18 15 13 10 6 2 3 6 7 10 14 18 22 23 25 28 28 30 31 33 33 33 30 29 27 28 29 33 38 43 46 43 39 39 40 39 36 39 40
22 20 20 18 15 14 11 7 3 2 4 5 8 12 17 20 21 24 26 26 29 30 32 35 36 34 33 30 30 28 30 32 38 41 44 44 40 40 36 35 34 34 35
22 18 16 16 15 11 7 4 2 2 4 7 11 15 18 20 23 25 26 28 29 30 33 35 37 38 37 37 33 31 33 37 38 41 39 38 38 35 35 34 32 33 41
18 15 15 14 12 9 5 2 1 1 5 9 12 16 20 23 24 24 26 28 30 31 32 34 36 37 38 37 38 38 41 40 43 43 38 36 36 32 33 36 39 39 38
16 13 12 11 9 6 4 2 1 3 7 10 14 18 22 24 25 25 27 28 27 25 28 30 32 33 34 35 35 36 39 40 39 38 39 40 36 38 38 39 40 41 40
14 12 11 9 6 5 3 2 3 5 8 13 17 20 23 24 26 29 33 29 29 26 24 24 25 28 28 31 34 35 36 35 34 34 35 35 36 36 38 41 43 43 42

GFSMW_850_spd_033.txt.gz
Wind_Speed
21 16 10 9 10 13 14 12 14 18 27 27 26 24 22 19 16 12 9 6 6 5 3 5 8 11 14 16 18 19 20 20 23 26 29 26 18 10 4 12 25 24 23
24 17 13 12 13 12 13 17 20 23 25 25 23 21 18 14 11 10 11 9 7 6 7 10 13 15 16 17 18 19 20 20 21 23 24 16 23 6 37 16 31 26 20
29 23 20 17 18 18 17 17 19 23 22 20 19 16 16 17 16 14 11 8 5 6 10 13 15 16 18 18 18 17 19 20 20 20 14 10 9 39 16 34 23 21 32
30 29 26 23 21 21 20 19 20 21 17 13 15 18 20 19 15 12 8 5 4 8 12 15 17 18 18 17 17 16 17 19 21 23 21 17 20 16 20 19 42 31 40
37 33 29 26 23 22 23 23 23 21 19 19 19 19 19 16 13 9 4 1 5 10 14 17 18 18 18 16 16 17 18 20 21 22 25 28 30 28 26 31 27 40 40
36 32 28 28 27 25 25 24 24 23 21 19 18 17 16 15 11 7 1 4 9 13 15 17 19 18 17 16 17 19 20 22 23 23 24 25 25 29 34 40 40 37 35
39 34 32 31 29 28 27 25 24 25 22 21 20 17 14 11 8 4 2 6 10 15 18 20 18 16 16 17 18 21 23 24 25 25 26 24 25 29 31 35 41 36 38
38 34 32 32 30 29 27 27 26 25 22 20 18 15 12 8 5 2 5 9 13 17 19 17 15 15 17 18 21 23 25 26 26 26 25 26 30 32 31 32 36 45 43
38 34 31 31 30 29 27 26 25 23 21 19 16 13 9 5 2 4 8 12 16 17 16 14 14 16 18 21 24 26 27 27 27 27 26 29 35 34 33 33 31 33 41
35 32 32 31 29 27 25 23 21 20 19 17 14 10 6 3 2 6 10 14 16 15 13 14 15 18 21 24 26 27 27 28 28 27 30 35 37 35 32 30 33 33 35
36 34 32 31 29 27 25 23 21 19 17 14 12 7 4 1 4 8 12 15 15 13 13 16 19 22 24 26 27 27 28 29 29 31 36 37 36 34 32 30 31 32 33
37 36 33 32 30 27 25 23 21 18 16 13 10 6 2 2 6 11 13 14 12 13 16 18 21 23 25 26 27 29 29 30 33 36 36 37 36 32 30 32 34 37 39
38 37 35 33 31 27 24 22 20 18 15 12 9 5 1 4 8 11 12 12 13 15 17 21 23 25 27 28 29 30 29 32 33 35 37 38 33 31 32 34 37 37 35
41 39 37 34 30 27 25 22 20 17 15 11 8 4 1 6 10 11 11 12 14 17 20 23 24 26 28 29 31 30 31 31 34 36 36 36 32 32 33 36 35 33 39
40 41 40 35 29 27 24 22 19 17 14 11 7 3 3 7 9 10 10 13 16 20 22 24 25 27 28 30 30 29 29 32 35 36 37 37 31 30 30 32 39 41 42
37 40 38 32 30 28 26 23 19 16 14 10 6 2 4 8 8 10 13 16 19 21 22 24 26 27 29 29 27 26 29 32 33 37 39 38 37 34 34 37 36 34 40
39 39 37 32 31 29 26 23 19 15 13 9 4 2 5 7 9 12 15 18 20 22 23 25 27 29 29 28 27 27 29 31 34 36 38 39 37 37 41 40 38 41 40
38 37 34 31 31 28 24 21 16 13 11 7 3 3 6 7 10 13 17 19 21 23 25 27 28 28 28 28 27 27 28 32 35 34 36 36 41 40 38 42 43 43 42
36 34 31 32 31 27 23 18 15 14 10 5 1 4 6 8 12 15 18 20 22 24 27 28 28 29 30 29 26 25 29 33 33 36 36 36 38 39 36 40 44 42 39
33 32 32 31 28 24 18 15 15 12 7 2 2 3 6 10 14 17 19 22 23 26 27 28 28 29 29 30 25 25 27 32 36 38 42 38 37 35 37 39 38 40 43
32 30 29 27 22 19 16 16 13 9 4 1 1 4 8 12 15 18 21 23 25 27 29 30 30 30 31 33 28 26 27 31 35 41 42 45 39 35 37 36 37 34 37
28 25 25 22 19 17 17 14 10 6 3 2 2 5 10 13 16 20 21 23 26 28 30 32 33 33 34 33 33 27 28 28 35 37 44 40 36 38 36 31 29 32 34
25 21 21 21 19 17 12 10 7 5 4 1 3 7 11 15 18 21 22 25 27 28 30 31 34 36 35 35 34 32 31 34 34 39 36 34 37 34 31 29 31 32 37
22 21 20 20 19 15 12 7 6 5 3 1 5 9 14 17 19 20 23 26 28 28 29 30 32 34 35 33 34 35 38 37 40 38 40 39 32 30 30 33 36 37 35
21 18 18 17 15 12 9 7 6 4 1 3 7 12 16 19 21 22 25 26 25 22 25 26 27 30 33 32 31 33 35 36 35 36 37 35 35 37 36 37 38 38 37
18 17 16 15 13 10 9 8 6 2 2 6 11 15 18 21 22 25 27 24 25 25 23 22 22 26 25 29 31 31 33 34 32 30 32 34 34 34 36 38 40 39 37

GFSMW_850_spd_036.txt.gz
Wind_Speed
23 27 24 19 17 16 17 22 25 25 27 29 28 30 26 20 16 13 11 9 6 5 2 2 6 10 13 16 17 18 18 18 21 24 24 20 10 8 4 13 15 20 21
25 26 22 19 17 17 18 18 21 26 28 29 29 28 25 20 16 12 9 10 8 4 0 5 8 12 15 17 17 18 17 17 20 23 20 14 17 4 25 12 29 20 28
34 30 24 20 19 19 17 19 19 20 23 27 27 25 21 18 13 14 15 12 7 2 4 8 12 15 17 17 16 16 17 19 18 19 12 9 8 36 15 35 25 35 30
35 33 27 24 22 20 19 20 21 23 24 22 22 21 20 19 19 17 14 9 4 2 7 12 15 17 17 16 15 14 16 17 20 20 17 15 18 14 19 26 41 34 42
39 37 32 27 24 22 23 23 23 22 20 18 17 19 23 22 20 16 11 6 1 6 11 14 17 17 16 14 13 14 16 18 20 21 23 24 25 22 19 31 33 44 42
40 38 33 30 28 27 26 26 27 26 21 20 22 22 21 20 17 13 8 2 3 8 12 16 17 15 13 13 15 16 18 20 21 22 22 23 22 24 29 36 36 33 36
45 42 38 34 31 30 29 29 27 26 25 24 22 20 17 15 11 8 4 2 6 10 14 15 13 12 13 15 17 19 21 23 24 24 24 23 22 25 31 35 41 34 39
48 44 40 37 34 33 32 31 29 29 26 23 22 19 16 13 10 6 2 3 8 12 14 13 11 12 15 17 19 21 23 24 24 25 25 24 26 30 33 32 33 41 32
48 45 40 37 36 34 32 30 30 28 25 24 22 19 15 12 8 4 2 5 9 12 12 11 12 14 17 19 22 23 24 24 26 26 26 28 32 32 32 30 28 30 38
41 42 39 38 36 32 31 30 28 27 26 23 20 17 14 10 5 1 4 8 11 11 10 11 13 16 19 21 23 23 24 26 26 27 30 31 32 33 32 30 28 27 31
43 42 39 37 34 32 31 30 28 27 25 22 19 16 12 8 3 2 6 9 10 9 10 13 16 19 21 22 23 25 26 26 28 30 31 32 33 34 33 31 30 30 31
41 40 39 38 35 33 31 29 27 25 23 21 17 13 9 5 1 4 7 8 8 9 12 15 18 20 22 23 25 27 26 28 29 29 31 33 34 36 34 32 31 34 35
39 40 40 38 36 33 30 28 26 24 21 19 15 12 8 4 2 5 7 7 8 11 14 17 19 21 23 25 26 26 27 26 27 30 33 35 35 38 35 33 35 35 32
41 41 40 38 35 32 30 27 25 22 20 17 14 10 6 3 3 5 6 7 10 13 16 18 20 22 24 26 26 27 27 29 30 31 33 34 36 37 33 36 34 34 40
38 42 41 39 36 33 29 27 24 21 18 16 12 9 5 2 4 5 6 9 12 16 17 19 21 23 25 26 27 26 28 30 32 31 32 34 36 31 31 32 38 40 41
39 41 40 39 36 34 31 27 23 20 17 14 11 8 4 3 4 6 8 11 14 16 18 20 23 24 25 26 25 25 28 30 31 33 36 36 36 31 34 36 34 33 38
41 42 41 38 36 33 30 27 23 19 16 14 11 7 3 3 5 7 10 13 15 17 19 21 23 25 26 27 29 28 28 30 33 33 32 35 36 38 39 38 35 39 35
38 40 39 38 34 31 28 24 20 17 16 14 9 5 3 4 5 9 12 14 16 18 21 22 24 26 28 29 30 29 29 32 31 32 32 35 39 38 35 38 44 34 43
35 37 36 35 32 29 27 23 20 17 16 12 8 4 3 4 7 10 13 15 17 19 21 24 26 27 29 28 28 26 30 32 34 33 34 34 35 37 35 37 41 41 46
32 34 34 32 30 29 26 22 19 17 14 10 6 4 2 5 8 11 14 17 18 21 23 24 26 27 28 27 27 24 28 34 35 37 40 36 37 34 34 39 39 42 37
30 31 32 31 30 29 24 20 18 16 12 8 5 3 2 6 9 13 16 18 20 23 25 27 27 27 28 28 26 23 26 31 35 39 39 43 34 35 36 33 32 31 36
33 32 32 31 29 25 21 18 17 14 10 7 5 2 3 7 11 14 16 19 22 25 27 28 29 29 29 28 27 23 25 27 34 37 41 37 36 35 31 28 27 30 31
32 31 31 30 25 19 16 18 15 11 9 7 4 2 5 9 13 16 18 21 24 26 27 28 29 31 30 29 26 26 28 30 32 36 34 34 35 30 29 27 27 28 33
31 29 27 25 24 20 17 12 11 10 9 6 2 3 7 11 14 17 20 23 24 26 27 27 29 30 31 30 29 31 34 35 36 36 39 36 30 28 27 30 33 33 32
26 23 22 22 22 20 16 11 10 10 7 4 3 6 9 13 16 19 21 23 23 23 23 24 24 27 30 28 28 30 32 33 34 33 34 31 32 33 32 34 36 36 35
24 22 20 20 19 16 13 12 11 8 5 3 5 8 11 15 19 21 22 21 23 23 22 22 21 24 23 26 28 27 29 31 29 28 30 32 32 33 34 37 39 37 35

GFSMW_850_spd_039.txt.gz
Wind_Speed
34 30 28 25 25 23 20 21 21 28 33 32 32 30 26 24 23 18 14 9 8 7 6 5 5 7 11 15 18 18 18 18 21 23 22 15 6 19 10 10 18 22 28
35 27 20 25 25 21 19 21 22 25 33 33 33 32 30 25 22 17 11 8 7 8 6 4 6 10 14 17 18 18 17 16 20 22 19 13 16 5 9 26 16 28 23
39 27 23 26 25 22 21 21 24 27 28 30 32 32 30 23 20 15 11 12 10 8 4 6 9 13 16 16 16 16 16 17 17 18 12 9 7 35 13 30 24 28 33
38 35 31 31 27 23 21 20 23 26 29 30 31 31 29 25 19 16 15 14 11 6 5 8 12 15 15 14 14 14 16 17 19 18 15 14 17 14 19 24 43 37 44
40 37 35 35 28 24 21 20 22 24 26 29 28 27 25 22 21 19 17 13 8 5 7 10 14 15 14 13 13 14 16 18 19 20 22 22 22 19 16 34 41 49 48
37 35 36 33 29 26 24 23 24 27 27 26 24 23 23 23 23 20 15 10 5 5 8 12 14 14 13 12 14 16 18 19 20 20 20 21 20 22 25 36 43 42 45
36 35 39 35 31 29 28 27 27 28 26 24 22 22 22 21 19 16 12 7 3 6 10 12 13 12 12 14 16 18 20 21 22 22 22 21 20 23 28 34 43 40 47
37 40 43 39 35 32 31 32 31 30 26 24 26 24 22 20 17 13 8 4 4 7 10 12 12 12 14 15 18 20 21 22 22 23 23 23 24 27 28 30 33 44 31
40 46 46 42 38 35 33 34 33 29 28 28 27 24 20 16 13 10 6 3 6 8 10 10 11 13 15 18 20 22 22 23 24 24 25 28 27 28 29 29 29 29 35
36 46 47 43 37 35 34 33 31 31 30 28 25 22 18 15 12 8 4 4 7 8 9 10 12 14 17 20 22 22 23 24 24 26 28 28 29 30 31 31 31 29 30
40 45 45 41 38 35 34 34 32 31 30 26 23 20 18 14 10 6 4 5 7 8 9 11 14 17 20 21 22 23 25 25 26 26 27 29 30 32 33 34 34 32 33
39 45 43 40 38 36 35 34 33 31 28 25 22 19 15 11 7 4 4 6 7 9 11 13 17 19 20 21 23 24 25 26 26 27 28 30 31 32 35 37 35 36 35
39 41 40 40 38 37 35 34 32 29 26 23 21 17 13 9 5 3 5 6 8 10 13 16 18 19 21 22 24 25 25 26 27 28 29 30 32 35 37 33 36 34 35
41 41 41 39 38 37 35 33 30 26 25 22 18 14 11 7 4 4 5 7 9 12 15 16 18 20 22 23 25 25 26 27 28 29 30 32 34 34 32 32 33 37 42
37 41 42 40 39 37 34 31 28 26 23 20 16 13 10 7 5 5 6 8 11 14 15 17 18 21 23 25 26 26 27 28 31 32 33 32 29 27 27 31 37 36 38
36 40 41 41 39 37 34 31 27 24 21 18 15 12 9 7 5 5 7 9 12 14 16 18 21 22 25 26 27 24 28 30 31 32 31 30 29 33 31 32 29 29 36
38 40 41 41 39 36 33 30 27 23 20 17 15 12 9 6 5 6 8 10 13 15 17 19 22 24 26 26 26 26 28 30 30 30 30 31 33 34 37 36 35 35 31
37 38 39 39 37 34 31 27 24 21 19 17 15 11 8 6 6 6 9 11 14 16 19 21 24 26 27 26 26 28 30 30 30 31 30 33 36 35 35 38 36 43 44
35 36 35 35 35 32 29 26 24 21 19 17 14 10 7 5 6 8 10 12 15 18 20 23 25 26 26 26 28 29 30 30 33 32 33 31 32 37 33 37 41 42 44
31 32 32 32 32 31 29 27 24 21 18 15 12 9 6 6 6 8 12 15 17 20 22 24 24 25 26 27 28 26 27 31 33 36 35 36 35 33 33 37 38 41 36
27 28 30 32 31 31 29 26 21 19 17 15 10 8 6 5 7 10 14 17 19 22 24 24 25 26 27 28 27 23 25 29 34 39 40 42 34 34 35 31 33 31 35
28 30 32 32 31 29 27 23 20 18 16 12 9 7 4 5 8 12 15 18 21 24 25 26 27 27 28 28 26 22 23 26 33 36 41 38 35 34 31 29 27 29 31
30 30 31 31 29 27 22 20 19 17 14 11 9 5 4 7 10 14 17 20 22 24 25 27 29 30 30 28 24 25 26 29 29 34 34 34 34 32 29 26 27 27 31
29 30 31 31 30 23 18 16 18 15 12 9 6 4 5 8 12 16 19 21 23 24 26 27 28 29 30 29 27 29 31 31 33 35 37 35 30 28 27 28 31 32 31
31 31 30 29 26 24 21 17 14 12 11 8 5 4 7 10 14 17 20 21 22 22 24 24 25 27 29 27 26 27 29 31 33 32 32 32 31 31 30 32 34 34 34
29 27 25 24 25 22 19 15 13 11 8 6 4 6 9 13 16 19 20 20 22 23 22 23 24 25 24 25 27 26 28 29 27 28 29 31 31 31 32 35 38 36 36

GFSMW_850_spd_042.txt.gz
Wind_Speed
28 28 30 27 24 27 23 23 22 24 24 33 35 31 29 26 24 22 20 18 15 7 8 7 6 6 9 13 17 18 18 18 19 20 19 11 3 15 14 10 16 21 25
35 31 25 24 25 25 23 22 22 22 24 31 36 34 31 28 26 24 22 13 10 8 8 7 6 8 12 16 18 17 16 17 20 21 19 12 12 3 7 24 21 23 21
39 36 30 23 22 24 23 22 20 20 23 30 36 34 31 28 29 26 20 15 12 11 9 7 7 10 14 16 17 16 15 15 17 19 14 8 6 31 11 30 17 28 31
41 39 32 26 24 23 22 21 19 21 23 30 34 34 33 33 30 25 20 16 14 11 8 6 8 12 14 15 14 15 16 17 18 17 16 14 15 12 19 21 39 34 43
38 41 36 31 27 26 25 23 20 23 25 28 31 33 33 31 29 25 19 16 14 10 6 6 10 13 13 14 13 14 16 18 19 20 20 20 19 17 16 34 41 48 46
33 36 36 34 31 29 26 24 23 24 26 27 29 30 30 29 25 21 20 17 12 6 5 8 11 12 13 13 14 16 17 18 20 20 19 20 18 20 22 34 42 43 43
34 33 34 36 33 31 29 26 23 25 25 27 28 26 26 23 23 21 18 13 8 4 6 9 11 12 13 13 15 17 18 20 20 20 20 19 19 22 25 29 38 43 51
23 31 34 36 35 33 31 28 27 28 29 27 27 25 24 22 22 19 15 10 5 3 6 9 11 12 13 14 16 18 20 20 20 20 21 22 22 22 23 26 31 44 31
27 26 32 37 38 37 34 32 31 31 31 29 26 26 26 24 21 16 12 7 3 5 7 9 11 12 14 16 18 19 20 20 21 22 23 24 23 24 25 26 26 28 36
26 28 34 41 40 38 36 34 32 31 30 29 29 29 25 21 17 13 8 4 3 6 8 10 12 14 17 18 19 19 21 21 22 23 23 24 25 26 26 26 27 29 32
29 32 37 42 42 39 37 36 34 32 32 31 30 27 24 19 15 10 6 3 4 6 9 11 13 15 18 19 20 21 22 23 24 24 26 27 27 28 28 28 30 31 30
32 35 40 42 40 39 39 37 35 33 32 30 28 24 20 17 12 8 4 3 5 7 10 12 14 17 18 20 21 23 23 24 26 27 28 29 29 29 30 30 30 31 31
33 35 39 42 41 40 39 37 35 34 32 29 26 22 19 15 10 6 3 3 6 9 11 14 16 17 19 21 22 23 24 25 27 28 29 31 31 30 29 28 29 32 32
36 38 41 40 40 39 38 37 35 32 30 27 24 21 17 12 8 5 3 4 7 10 12 15 17 19 21 22 23 25 26 27 28 29 29 29 28 28 28 29 30 33 38
34 40 43 41 40 39 37 35 33 31 28 25 22 18 14 11 7 4 3 6 9 11 13 16 18 20 22 24 27 26 27 28 29 29 28 28 27 26 26 28 33 33 34
31 38 41 40 40 38 37 35 32 30 26 23 20 16 13 9 6 3 5 7 10 12 15 17 19 21 23 26 27 26 27 28 29 29 29 28 29 32 27 29 27 27 36
36 40 40 39 37 36 35 34 30 27 24 21 18 15 12 8 5 4 5 8 10 13 16 18 21 23 25 27 28 27 27 28 28 28 30 31 33 30 34 34 32 31 35
36 37 38 37 35 34 32 29 27 25 23 20 17 14 10 7 5 4 6 8 11 14 17 20 23 25 26 28 29 28 27 27 27 29 30 34 34 33 33 35 35 40 41
35 34 33 33 33 32 30 29 27 24 22 19 15 12 9 6 4 4 6 9 13 16 19 22 24 26 27 28 29 27 27 28 30 30 30 33 31 35 31 34 39 40 40
28 29 29 31 32 32 30 29 27 24 20 17 14 11 9 5 3 5 7 12 15 18 21 22 24 26 28 28 28 24 25 29 30 31 37 34 32 30 31 33 35 39 34
25 26 28 31 32 32 30 28 25 21 18 16 14 11 6 4 3 6 10 13 17 20 22 23 24 26 27 28 27 25 24 27 30 36 36 38 30 32 32 30 31 28 33
26 27 30 32 32 31 29 26 23 20 18 16 12 8 5 3 5 8 12 16 19 21 24 25 26 26 27 28 28 24 23 25 30 33 37 35 32 32 30 27 25 27 28
28 28 29 32 32 29 27 25 22 19 17 14 9 6 4 3 7 11 14 17 21 24 25 26 28 29 30 29 27 26 26 28 28 32 32 33 32 32 29 26 25 27 29
28 29 31 32 33 29 25 19 19 18 14 10 8 5 3 5 9 13 17 20 23 24 24 26 28 30 31 30 27 29 30 31 32 34 36 33 30 27 26 26 28 30 30
28 29 32 32 31 27 22 18 17 14 11 9 7 4 4 7 11 15 19 21 21 22 24 25 27 29 29 27 25 26 28 29 30 30 31 32 31 31 29 29 31 32 32
30 32 32 31 29 24 21 18 14 11 9 8 5 3 6 10 14 17 18 19 20 21 22 23 24 26 25 25 25 24 26 27 27 28 30 30 30 30 31 33 36 34 34

GFSMW_850_spd_045.txt.gz
Wind_Speed
32 27 27 28 28 25 24 26 23 25 23 23 26 34 35 32 28 24 22 23 21 16 13 9 7 6 7 9 13 15 16 16 17 16 14 9 3 13 11 7 15 21 20
40 36 32 27 29 27 25 27 25 26 24 24 26 35 37 34 30 27 26 25 22 15 12 9 8 7 8 11 13 14 14 16 17 18 15 7 7 4 7 23 13 21 14
38 41 40 34 26 25 25 25 26 26 25 23 26 33 35 32 30 29 29 25 19 15 12 11 8 7 9 11 13 14 13 14 16 16 12 7 4 23 7 20 15 21 25
40 41 40 40 34 25 23 23 24 24 23 22 25 31 38 35 34 32 28 23 18 15 13 9 6 7 9 12 13 13 14 14 14 15 15 12 13 9 13 17 30 28 37
31 36 39 40 36 29 25 22 24 23 22 22 25 33 37 35 34 31 26 21 18 15 11 7 5 7 10 11 12 13 14 15 16 16 16 16 16 15 15 23 31 38 36
29 29 31 36 37 33 30 26 25 24 23 24 27 32 35 32 33 31 26 23 19 14 10 5 5 8 9 11 12 13 15 16 17 18 18 18 16 18 19 20 28 31 30
28 32 34 32 34 36 35 30 27 26 25 26 27 30 33 32 31 29 25 21 18 13 7 3 5 8 10 11 12 13 16 16 17 18 18 18 20 22 24 27 29 30 38
28 26 32 31 33 38 37 32 30 27 27 27 28 31 32 31 28 24 22 19 14 9 4 4 6 8 10 11 13 15 16 17 18 18 19 20 20 22 23 26 28 39 26
31 32 21 27 34 41 39 34 32 29 28 28 29 30 30 29 26 25 21 16 10 5 2 5 7 8 10 12 14 15 16 17 18 19 20 21 22 23 24 26 26 25 36
34 33 31 27 33 41 41 37 32 30 31 30 30 30 29 28 26 23 18 12 7 3 3 5 7 9 11 13 14 15 17 17 19 20 21 23 24 25 26 26 27 28 28
35 31 29 29 36 43 41 39 35 34 35 32 32 32 32 28 24 19 14 9 5 2 3 6 8 10 12 14 15 16 18 19 20 21 23 24 25 27 27 28 28 28 27
30 30 33 35 39 42 40 39 38 37 35 35 35 34 31 27 22 16 11 7 3 2 4 7 9 11 13 14 16 17 19 20 22 23 25 26 27 27 27 27 27 27 27
25 28 32 37 41 42 42 42 40 38 37 37 36 33 28 23 18 13 9 5 2 3 5 8 10 12 13 16 18 19 20 22 24 25 26 27 27 29 28 26 26 26 25
26 30 34 38 42 43 44 42 40 38 38 37 33 30 25 20 15 11 7 3 1 4 7 9 11 13 15 18 19 21 22 23 24 25 26 26 27 27 25 25 25 26 32
22 29 37 42 43 44 43 41 40 39 37 34 30 26 22 17 13 9 5 2 2 5 7 10 12 15 17 19 21 23 24 25 26 26 26 26 26 24 23 23 26 29 31
20 28 38 42 43 43 42 41 40 37 34 31 27 23 19 15 11 7 3 1 3 6 9 11 14 17 18 20 22 24 24 25 26 27 27 26 25 29 24 27 24 25 31
24 34 40 41 42 42 41 40 38 35 31 27 24 20 17 13 9 5 2 2 4 7 10 13 16 19 20 22 23 23 24 25 26 26 27 27 29 29 31 30 29 29 29
31 36 38 39 39 40 38 37 35 32 28 24 21 18 14 10 8 4 1 3 6 9 12 16 18 20 22 23 24 25 25 26 26 26 26 30 33 29 29 31 32 37 33
31 34 35 36 37 37 37 35 33 29 25 22 19 16 12 9 6 2 1 4 8 11 14 18 20 21 22 24 25 26 26 26 27 27 29 31 27 29 27 31 36 33 32
28 31 33 35 36 37 35 33 31 27 23 20 17 14 11 7 3 1 3 6 9 13 16 18 20 21 23 24 25 24 23 23 25 26 28 26 29 26 28 32 32 32 31
27 30 32 34 35 35 33 29 27 24 21 18 16 12 9 4 2 2 5 8 12 15 18 19 20 21 23 25 25 24 20 23 26 29 28 31 27 28 30 28 28 26 30
28 30 33 34 33 31 29 27 25 23 19 16 13 10 6 3 2 3 7 11 14 17 19 20 21 22 24 26 25 23 20 21 26 27 31 30 30 30 29 26 24 24 25
30 30 32 34 32 30 27 26 24 21 18 15 11 7 5 3 2 6 9 13 16 18 20 22 24 26 27 26 25 24 24 24 24 28 28 30 32 30 27 24 22 24 26
29 30 32 34 33 30 26 21 22 19 15 13 9 8 5 2 4 8 12 15 17 19 21 24 26 28 28 27 27 28 28 27 29 30 32 30 28 25 24 23 23 26 27
28 30 33 34 32 28 25 20 18 16 14 11 9 6 3 3 6 10 13 16 18 20 22 23 25 27 27 26 23 25 25 27 28 28 29 30 28 27 26 25 26 28 28
29 30 32 31 30 27 24 20 17 13 10 10 8 4 2 5 9 12 14 15 17 18 20 21 23 24 24 24 23 22 24 26 25 26 27 27 27 27 27 29 31 30 31

GFSMW_850_spd_048.txt.gz
Wind_Speed
26 25 23 21 23 31 33 30 29 26 23 24 24 23 26 33 33 30 30 29 26 22 20 16 13 10 7 6 8 11 13 15 15 12 12 9 7 13 10 11 12 20 17
34 32 29 28 25 26 31 30 30 27 25 25 24 21 28 36 35 33 30 29 26 24 20 17 14 10 7 6 8 10 13 13 13 12 9 4 5 4 6 18 18 14 16
35 34 34 33 29 27 28 31 31 30 28 27 27 31 34 36 36 32 28 27 26 24 20 16 12 10 6 7 8 10 11 11 12 11 6 4 3 13 8 14 14 13 22
30 32 33 33 32 29 30 29 31 31 30 31 30 29 31 38 37 32 30 28 27 23 18 14 11 8 6 6 9 10 10 9 10 11 10 7 9 5 10 8 13 18 20
24 26 27 30 29 30 34 31 30 30 31 30 28 27 30 36 36 32 30 29 26 21 16 14 12 7 5 7 8 10 9 10 10 10 11 11 10 9 8 19 15 22 22
19 22 21 22 24 26 34 34 32 30 30 28 26 28 31 35 36 33 32 29 24 20 18 13 9 5 5 7 9 9 10 11 11 12 12 11 9 9 11 18 22 26 24
16 17 18 19 20 24 31 35 33 32 31 29 28 28 28 31 33 31 33 30 25 23 17 12 7 4 5 7 9 10 11 11 12 12 13 14 13 15 16 18 24 26 27
21 20 19 19 22 24 29 35 36 33 32 30 28 27 28 33 34 31 30 26 24 19 13 9 5 4 5 7 9 10 11 12 13 14 15 15 16 17 17 18 22 31 26
18 19 20 19 21 23 29 37 36 34 31 31 30 29 30 34 34 31 27 24 21 16 11 7 4 3 6 8 9 10 12 13 14 15 16 17 18 19 18 19 19 23 34
25 28 24 22 19 20 26 32 33 34 32 32 30 30 31 33 32 30 28 23 18 13 9 5 2 4 6 8 9 11 12 14 15 16 18 19 19 20 20 19 20 21 27
42 40 28 22 19 20 26 29 31 34 33 33 33 32 34 35 32 30 26 20 15 11 6 3 2 4 7 8 10 12 14 15 16 18 19 20 21 21 20 20 20 22 24
31 32 27 23 23 24 27 29 32 33 34 35 35 36 36 35 32 29 23 17 12 8 5 2 3 5 7 9 11 13 15 17 18 20 20 21 22 23 20 19 21 23 25
2 17 22 23 27 25 27 31 33 35 37 37 38 38 37 34 30 25 20 15 11 6 2 2 4 6 8 10 13 15 17 18 20 20 22 23 22 21 20 21 22 24 27
7 16 20 24 27 26 28 33 36 38 40 39 39 38 36 31 27 22 17 13 8 4 1 2 4 7 10 13 15 16 18 19 20 22 23 23 22 20 21 22 24 25 28
12 16 21 25 31 30 33 37 40 42 41 41 39 37 33 28 23 19 14 10 6 2 0 3 6 9 12 14 16 17 18 19 20 22 22 20 21 24 22 22 24 27 30
13 17 22 28 30 34 40 41 42 42 41 39 37 33 29 24 20 16 12 8 4 1 2 5 8 11 13 16 18 19 19 20 21 21 20 20 21 21 23 23 25 26 29
15 18 23 29 33 39 41 43 43 42 39 36 33 29 25 22 18 14 10 6 3 1 4 7 10 13 15 17 19 21 22 20 21 20 20 20 20 22 23 25 26 27 29
15 19 26 30 36 40 42 42 41 39 36 32 29 26 22 18 15 11 7 4 2 3 6 9 12 15 17 18 20 22 22 20 19 19 20 20 21 22 24 28 30 32 29
18 25 28 33 37 40 41 41 39 35 32 29 26 23 19 15 12 9 5 2 2 5 8 12 15 16 18 20 21 23 20 17 18 19 20 21 23 22 27 28 33 31 29
21 27 30 33 36 38 38 37 36 32 28 26 23 20 16 13 10 6 3 0 3 7 11 14 16 18 19 21 22 23 19 17 19 20 21 22 22 26 26 30 31 32 29
24 27 30 34 36 37 36 34 31 28 25 23 21 18 14 10 6 4 1 2 6 10 13 15 17 18 20 21 22 22 18 17 21 22 23 22 25 27 30 28 27 25 28
27 29 33 34 34 33 32 30 28 26 24 21 18 15 11 8 5 2 2 5 9 12 15 16 17 18 19 22 22 22 18 18 21 23 23 27 28 30 29 27 24 24 25
29 29 32 33 32 31 30 30 28 25 23 19 16 13 8 5 3 1 4 8 12 14 15 17 18 19 21 21 22 21 20 22 23 23 28 29 29 29 27 23 22 21 18
27 30 33 33 32 31 28 24 25 22 19 17 14 9 7 5 2 3 7 10 13 14 15 16 19 20 20 18 19 20 22 21 23 27 29 27 26 23 22 21 19 18 19
27 30 33 33 32 29 26 23 21 19 17 13 10 8 6 3 2 6 9 12 13 14 16 18 21 20 20 19 22 23 23 24 26 28 23 21 20 20 20 19 19 20 21
29 32 33 31 31 29 25 22 18 16 13 11 10 7 4 2 5 8 11 12 13 15 17 19 20 22 22 24 22 21 22 24 24 23 18 18 18 19 20 21 24 26 28

GFSMW_850_spd_051.txt.gz
Wind_Speed
27 28 27 30 32 32 31 29 27 24 23 24 24 22 23 26 27 27 29 30 26 27 24 20 17 13 12 10 7 7 10 12 12 9 8 10 9 10 11 9 8 14 18
33 32 30 32 33 33 32 31 30 27 26 24 24 23 25 29 34 37 36 33 33 28 22 21 17 14 12 11 6 7 9 11 11 9 8 2 7 7 7 10 16 13 16
34 34 34 34 34 35 34 32 31 29 28 25 23 25 32 38 39 37 36 33 31 28 25 24 19 13 11 9 6 7 7 10 11 9 4 2 3 13 9 13 12 14 16
32 35 34 35 36 36 34 33 31 30 28 28 29 34 36 39 38 37 35 32 29 26 26 22 15 14 11 8 7 7 8 8 9 11 8 6 9 4 9 7 9 16 19
20 23 27 31 32 32 35 32 30 30 29 30 33 35 31 28 31 34 33 29 27 25 24 20 17 15 11 9 7 7 8 8 9 9 10 10 9 9 9 17 12 21 20
11 16 21 21 24 29 24 32 31 33 31 34 34 30 27 32 32 35 33 30 28 28 25 21 14 12 9 7 6 7 8 9 10 10 10 9 8 9 12 16 23 27 27
19 15 15 18 19 21 28 27 29 30 33 33 27 25 32 29 28 31 33 31 29 27 23 18 16 14 8 6 5 6 8 10 10 11 11 13 12 14 16 18 24 27 31
17 18 20 18 18 19 21 27 27 28 28 28 26 30 29 27 29 32 34 30 29 26 21 19 14 10 6 4 4 6 9 10 11 12 13 14 15 15 17 19 21 29 25
8 11 13 13 14 17 20 26 25 27 27 27 30 29 29 29 32 34 31 30 26 24 21 16 12 8 4 3 5 8 9 11 13 13 15 16 16 18 19 21 21 21 27
18 19 23 23 19 17 20 24 26 26 27 28 28 29 29 30 33 34 33 28 25 22 18 14 9 5 3 3 6 8 10 12 13 14 15 17 18 19 20 21 21 21 26
32 35 32 28 27 21 20 24 26 27 28 27 27 28 31 31 33 32 29 27 23 21 15 11 7 3 2 5 7 9 12 13 14 16 18 19 19 21 21 21 22 23 24
39 30 34 37 32 24 23 28 28 27 29 30 29 29 32 34 34 32 30 25 22 17 12 8 5 2 3 5 8 10 12 14 16 17 18 19 18 22 21 21 21 24 25
20 22 27 28 31 26 26 29 32 29 29 31 31 32 37 36 34 31 27 24 19 14 10 6 3 2 4 6 9 11 13 16 16 17 18 21 20 22 21 22 23 24 27
9 7 9 21 25 28 29 29 33 32 31 33 34 38 39 36 32 29 25 21 16 12 8 4 2 3 5 8 11 13 15 16 17 18 20 21 22 22 22 25 23 25 28
1 4 10 17 23 27 29 30 33 34 34 38 39 40 38 34 30 26 22 18 13 9 5 2 2 5 8 10 12 15 16 17 18 19 20 21 22 25 22 22 26 28 31
5 9 14 19 24 27 27 36 39 39 40 40 41 38 34 31 27 23 19 14 10 7 3 1 4 7 10 12 15 16 18 19 20 22 23 21 21 20 20 22 23 25 31
9 11 16 19 22 27 29 38 43 43 42 41 37 34 31 28 24 20 16 12 8 5 1 2 6 9 13 14 16 18 20 22 21 21 20 21 19 21 22 24 24 29 29
12 16 17 21 25 31 34 42 42 41 39 37 34 31 28 24 20 16 12 9 5 2 1 5 8 11 14 15 17 20 22 20 19 20 20 21 23 23 24 26 32 33 33
12 14 19 24 31 37 40 41 40 38 35 33 30 27 23 20 17 13 10 6 3 0 4 7 11 13 13 18 19 22 22 20 19 18 20 21 24 23 23 29 34 36 38
16 22 27 31 33 36 38 40 38 33 29 28 26 23 20 16 14 11 7 3 2 2 6 10 12 14 15 18 20 22 22 20 18 20 21 20 21 22 26 30 35 38 36
19 20 23 28 31 33 33 31 29 28 27 26 24 21 18 15 11 6 5 3 1 6 9 12 13 15 16 18 22 22 20 18 21 24 24 25 22 27 29 29 31 30 28
20 22 26 28 27 27 29 30 28 27 26 24 20 18 15 11 6 6 3 1 5 8 10 12 13 12 15 18 20 21 17 18 22 25 27 29 29 30 29 27 23 24 26
21 22 27 29 27 26 24 27 27 25 23 20 18 14 9 9 7 3 1 4 8 10 11 13 14 15 17 17 15 15 17 20 22 24 26 30 29 26 25 22 22 21 21
19 22 25 26 26 25 23 20 22 21 18 16 14 13 10 7 4 1 3 7 9 11 13 14 16 18 18 17 18 24 25 23 24 28 31 30 24 21 21 22 21 21 21
20 23 26 26 26 24 21 21 20 18 17 17 14 10 7 5 2 3 5 8 12 12 14 16 18 19 20 20 23 24 24 23 26 28 28 23 22 23 23 23 23 23 25
23 25 27 25 26 25 22 21 19 17 16 14 10 8 5 3 3 6 10 11 11 13 15 16 18 19 20 22 24 24 22 23 24 24 20 20 22 23 24 25 27 28 29

GFSMW_850_spd_054.txt.gz
Wind_Speed
26 29 30 33 36 38 33 36 34 35 34 33 33 29 23 26 26 23 24 27 32 28 27 25 23 20 16 12 8 7 7 9 11 10 9 9 8 10 10 9 8 14 19
33 33 31 34 35 36 39 34 36 34 34 36 34 34 30 28 28 29 29 33 35 32 28 26 24 22 17 13 7 6 10 10 10 8 9 3 8 8 8 15 15 15 16
33 33 34 32 34 35 34 36 37 33 34 33 35 34 32 32 34 34 36 37 39 34 29 29 27 22 16 12 8 9 11 11 9 7 5 3 3 9 8 9 13 14 18
34 31 28 33 35 35 37 33 34 41 32 34 38 39 40 41 40 39 41 41 38 30 29 27 25 20 16 12 11 11 10 9 8 8 7 7 8 5 7 5 10 14 19
21 23 27 31 30 23 36 38 36 33 36 37 40 43 43 42 39 40 39 39 36 31 30 27 24 21 16 13 11 9 7 7 9 9 9 8 8 8 9 18 17 21 24
4 7 10 14 21 27 30 19 38 38 36 35 41 43 45 41 40 38 39 38 32 30 27 25 23 20 16 13 10 9 8 7 8 8 8 9 9 8 12 19 26 28 30
7 9 12 16 18 19 22 26 19 35 34 33 40 39 43 39 37 36 36 34 33 31 29 27 24 19 15 13 9 7 7 7 8 9 9 10 11 13 15 18 24 29 35
16 13 11 11 12 12 17 20 25 23 32 34 37 38 35 34 32 30 30 30 32 31 30 27 23 18 15 10 8 7 6 7 8 9 10 12 13 14 16 19 22 30 31
5 4 6 10 11 10 12 18 22 25 25 31 35 34 31 33 30 31 30 32 34 32 28 23 19 16 13 9 6 5 6 7 9 11 13 14 15 16 18 19 20 22 25
20 17 16 16 16 15 12 13 20 26 29 30 34 34 36 32 30 31 34 35 32 28 25 21 19 15 10 6 5 6 6 8 11 13 14 16 16 18 19 20 21 22 26
31 36 38 38 28 29 22 19 25 25 30 36 37 37 35 31 32 34 35 33 30 27 24 20 16 11 7 5 4 5 7 9 12 14 16 17 18 20 21 23 24 24 24
30 34 39 30 29 30 25 24 26 28 35 37 37 34 29 31 34 36 34 30 29 26 21 17 13 9 5 4 4 6 9 11 13 15 17 19 20 22 23 24 23 25 27
25 25 24 25 31 36 32 32 33 38 35 36 35 30 31 32 34 34 32 30 26 23 19 14 10 6 3 3 5 8 10 12 15 16 18 21 23 25 25 25 26 29 28
17 20 20 28 22 28 32 36 39 39 38 33 31 32 34 36 37 34 32 28 24 20 15 12 7 4 3 5 7 10 12 14 15 17 20 22 23 24 26 28 26 27 29
12 15 8 16 25 32 36 39 39 38 37 32 34 38 39 38 36 33 29 25 21 16 12 7 5 3 4 6 9 12 14 15 17 18 20 22 23 23 21 21 23 25 28
6 10 8 14 23 31 34 35 35 34 33 36 40 41 40 38 34 30 27 22 18 13 9 6 2 2 5 8 11 13 15 17 19 20 21 22 23 23 20 20 20 23 26
1 3 12 17 20 26 29 31 32 33 36 40 42 42 38 34 31 27 23 18 15 10 7 3 1 5 8 10 13 15 17 19 20 21 21 23 23 24 24 24 24 25 28
6 6 9 12 16 21 26 30 32 35 38 42 42 38 35 32 27 23 19 15 11 7 4 1 4 7 11 12 14 17 19 21 20 20 20 22 24 24 23 24 27 31 36
8 9 10 13 18 21 27 32 34 35 37 40 38 34 29 28 25 20 16 12 8 4 2 3 7 9 12 15 16 19 21 22 21 20 21 23 21 21 21 25 32 36 38
11 13 16 21 23 24 27 33 36 37 36 33 30 29 26 23 20 16 13 8 5 2 3 6 9 11 12 15 20 23 23 23 22 22 25 24 20 23 22 28 33 37 39
13 14 19 26 30 32 34 34 33 33 34 30 27 25 21 19 16 11 8 6 3 2 5 8 10 12 15 18 21 23 23 23 25 27 28 26 24 23 27 28 30 32 27
15 16 19 23 25 27 30 31 30 29 28 27 25 22 18 15 10 7 7 3 2 5 7 9 11 11 14 17 18 17 16 20 24 27 27 27 27 28 27 24 24 23 25
18 22 27 28 27 25 23 26 27 27 27 24 22 19 14 9 8 6 3 2 4 7 8 11 13 15 17 18 18 20 23 26 24 24 25 28 28 26 22 23 21 22 24
23 26 27 26 25 23 24 23 26 23 21 19 15 12 8 8 6 3 2 4 7 9 11 13 15 17 18 19 20 23 25 26 25 27 30 29 25 21 23 24 22 22 23
25 26 28 27 25 22 21 23 23 19 17 15 11 10 8 6 4 2 4 7 8 10 12 14 16 18 20 20 22 24 25 25 25 27 27 25 24 25 25 24 24 24 26
25 25 23 23 23 22 25 24 20 16 12 14 10 8 6 4 1 3 5 8 10 11 14 15 16 17 19 21 23 24 22 22 23 23 25 25 24 25 26 26 27 28 29

GFSMW_850_spd_057.txt.gz
Wind_Speed
29 26 30 38 39 38 36 35 37 36 39 37 35 33 31 36 30 30 25 22 23 29 29 28 26 26 22 19 15 12 11 8 7 6 9 9 8 8 7 6 9 13 13
38 36 29 24 30 35 38 38 39 37 37 38 37 35 34 36 35 32 30 29 29 30 30 31 31 28 25 21 16 13 11 9 7 7 9 5 8 7 7 10 10 10 14
38 34 35 35 30 31 33 33 35 43 42 41 40 39 36 34 36 34 35 33 33 34 33 32 31 28 24 20 17 15 14 11 9 8 6 4 3 9 8 8 9 12 14
36 33 32 31 33 32 30 36 33 28 32 44 45 45 43 41 40 41 39 38 38 37 33 31 30 27 24 23 18 17 13 10 8 9 9 7 9 5 5 8 11 14 17
22 23 26 30 29 24 29 35 33 36 30 37 42 45 45 42 42 42 38 39 40 40 35 31 29 28 25 22 18 14 12 11 11 9 9 10 10 11 10 15 12 16 21
2 5 7 13 19 25 25 24 24 39 40 36 38 46 47 44 44 43 40 44 42 39 32 30 29 28 25 22 18 15 14 9 10 10 10 9 10 11 11 16 23 26 28
6 6 6 8 10 14 18 18 20 23 37 40 40 44 46 45 44 44 43 44 42 37 33 30 29 28 24 21 16 14 10 10 9 9 10 10 11 12 14 17 20 26 31
12 9 7 9 10 13 17 20 25 19 26 36 44 41 44 44 43 44 45 41 37 34 30 27 28 25 22 18 16 13 11 10 8 8 9 10 12 13 14 17 19 26 27
20 17 12 9 9 10 14 16 18 15 22 30 38 38 41 40 38 40 38 36 35 30 30 28 28 25 20 16 14 12 8 8 8 9 11 12 13 14 16 17 19 20 19
34 34 34 29 21 15 17 19 17 14 22 26 32 36 36 35 35 33 33 33 31 32 32 29 25 20 18 16 13 10 9 9 8 10 12 13 14 15 17 18 19 20 23
30 29 34 33 34 34 30 21 21 19 25 30 32 31 32 33 32 31 30 30 33 32 30 26 23 21 19 15 12 10 8 8 9 11 13 15 16 18 18 20 22 24 25
29 29 28 30 33 32 32 35 31 29 31 33 30 29 31 32 31 28 29 35 34 32 28 25 23 19 15 12 7 7 7 8 10 12 14 16 18 19 21 22 24 25 26
24 26 27 29 30 29 23 23 39 37 35 33 32 32 32 31 28 29 35 35 34 30 27 24 20 17 11 7 7 7 7 9 11 13 15 17 20 22 23 24 26 26 27
19 19 23 24 32 33 30 23 36 38 34 35 36 33 30 30 31 34 35 33 31 28 26 21 16 12 8 8 6 6 8 10 12 15 17 19 20 22 23 24 24 25 27
13 15 12 9 12 6 18 27 31 30 37 37 32 29 30 30 34 36 37 33 30 26 20 17 14 9 6 6 4 7 10 12 13 15 17 19 20 20 20 19 21 24 25
8 8 6 8 12 19 27 31 34 35 33 32 27 29 33 35 39 38 34 31 27 23 19 13 9 7 6 3 5 8 11 13 15 17 18 19 20 21 20 20 20 20 25
2 4 7 8 12 14 23 28 29 29 27 26 28 32 37 40 38 35 31 28 24 20 15 11 8 5 2 4 8 10 12 14 17 19 20 20 20 22 24 24 21 22 24
3 4 6 11 13 15 18 22 22 22 23 27 32 36 37 35 32 29 27 24 18 12 10 8 5 2 4 7 9 11 14 16 18 19 19 21 23 22 19 21 24 27 30
4 5 5 9 12 14 16 18 20 22 26 30 32 32 32 30 31 26 20 16 15 12 8 4 1 4 6 9 11 14 16 17 17 18 19 22 23 21 20 24 27 32 35
6 7 9 11 12 15 17 21 25 28 27 26 27 29 31 29 24 22 20 17 12 7 4 2 2 5 7 10 14 19 20 19 20 22 24 24 24 22 21 25 30 34 35
11 12 13 15 18 18 18 21 19 20 26 28 29 27 23 22 22 19 14 10 7 5 2 2 5 7 9 12 15 16 17 21 24 27 27 25 23 22 25 24 26 27 25
13 12 15 19 16 18 17 20 27 28 27 27 28 26 23 19 14 11 10 8 5 2 2 4 6 8 10 13 15 17 17 20 25 26 25 24 24 25 24 21 20 21 23
14 15 16 17 17 20 21 26 27 27 26 22 21 19 17 13 11 10 8 5 2 2 4 6 8 10 13 15 17 18 20 22 23 23 23 23 26 25 22 21 21 20 21
19 20 21 20 22 22 22 23 24 24 24 25 23 18 13 13 11 8 5 2 3 4 6 8 11 13 14 16 17 19 22 22 23 24 27 27 24 22 21 20 18 18 21
24 25 26 25 23 22 23 25 25 25 25 20 16 13 12 10 7 5 2 3 5 6 9 11 13 14 15 17 18 20 22 22 22 23 24 25 22 21 21 21 20 21 24
26 24 22 23 23 23 26 28 28 23 18 16 14 12 10 7 4 2 3 5 7 9 12 13 14 15 17 17 19 21 20 19 21 23 23 21 21 22 22 22 24 24 25

GFSMW_850_spd_060.txt.gz
Wind_Speed
33 27 26 30 37 42 42 39 37 31 38 38 38 37 34 31 32 29 28 26 25 28 29 28 28 26 24 22 20 17 14 14 13 10 9 9 8 7 6 7 7 9 10
37 33 29 24 25 32 39 38 36 34 38 41 41 39 36 33 34 34 30 31 29 26 28 31 31 29 27 25 22 19 17 15 14 10 9 6 7 7 8 10 11 11 12
41 39 36 34 32 30 25 34 39 39 37 41 45 43 38 36 37 36 35 36 35 32 29 28 31 31 30 26 23 21 18 17 15 11 8 5 5 6 10 10 13 13 13
30 29 28 31 33 31 31 28 27 31 34 41 45 46 45 43 39 40 40 39 39 37 32 31 33 34 31 28 25 22 20 17 15 12 12 10 10 6 5 8 11 14 15
14 16 17 19 23 26 27 28 28 28 32 30 40 46 46 45 42 41 41 43 43 38 37 34 37 36 28 27 26 22 21 17 16 13 12 11 11 10 10 11 11 14 17
7 2 4 8 12 15 23 24 23 30 32 33 36 36 46 45 44 43 42 44 43 41 39 39 37 31 26 29 27 23 20 17 14 13 12 11 10 11 11 14 19 22 22
14 7 5 3 6 9 13 19 25 26 25 27 35 37 36 43 45 43 42 43 42 40 40 39 35 31 26 28 27 23 20 16 15 14 12 11 13 13 14 15 18 22 28
21 16 13 9 7 8 12 15 18 23 25 29 29 35 38 39 41 43 41 42 43 42 40 38 34 30 27 27 26 22 19 16 15 13 12 13 12 13 14 15 17 23 25
25 21 17 15 15 13 11 15 18 22 23 26 31 32 38 41 39 42 41 41 41 40 38 35 32 28 26 27 22 20 15 13 12 13 14 12 12 14 15 16 18 19 17
26 26 26 26 25 25 24 21 19 22 26 26 27 29 34 39 40 39 39 38 38 37 35 33 30 27 27 24 21 18 15 13 13 12 12 13 13 14 15 17 18 20 22
31 30 29 30 29 27 28 28 30 25 27 26 22 23 31 38 37 36 36 35 33 34 32 31 29 27 25 23 19 16 14 11 12 13 14 13 13 15 17 18 20 22 24
25 26 26 25 26 26 27 30 30 34 29 29 22 20 24 29 31 31 31 31 31 31 31 30 29 26 23 19 15 13 11 10 11 12 13 14 15 16 18 20 22 23 24
28 24 22 24 28 33 32 25 26 31 31 32 27 24 26 26 27 28 27 27 29 32 32 30 28 25 20 17 14 11 8 8 10 13 15 15 17 18 20 22 24 24 25
20 17 19 24 29 33 31 19 21 21 22 33 31 28 30 26 26 24 24 28 32 34 31 28 23 21 18 15 11 8 8 9 12 14 15 16 18 20 21 23 22 23 25
14 14 18 22 23 20 14 4 13 18 26 37 31 28 28 26 25 26 28 32 33 32 29 25 20 16 13 10 6 6 8 10 11 13 15 17 19 20 20 20 21 22 26
10 10 13 15 12 8 2 6 11 17 26 27 28 28 26 26 26 27 29 33 32 29 27 23 17 13 7 8 6 6 9 11 12 14 16 17 19 20 20 21 22 20 22
6 4 6 8 7 4 3 6 11 16 21 23 22 24 25 26 28 28 30 30 28 26 23 18 15 10 8 7 6 8 9 11 13 16 17 18 19 21 23 21 17 19 22
4 1 2 1 5 8 10 13 16 17 20 23 24 23 24 24 24 28 28 27 24 21 17 14 11 8 6 6 6 7 9 12 14 15 17 19 21 22 21 21 21 23 26
3 4 5 6 8 9 11 12 15 14 14 16 15 17 16 25 29 27 27 24 20 17 14 10 5 4 4 5 7 8 11 12 14 16 18 22 23 23 20 21 25 30 32
4 5 7 9 11 9 8 9 13 12 14 16 15 20 26 28 29 24 21 18 14 14 8 6 6 3 3 6 9 13 15 17 18 20 22 23 23 21 18 23 27 30 30
6 8 10 9 9 9 8 11 14 16 18 20 23 26 28 26 23 21 18 16 11 8 8 4 2 2 4 7 10 12 16 18 22 24 24 24 21 18 22 21 23 23 23
10 10 10 12 14 13 11 17 15 21 25 27 28 25 23 22 20 16 13 11 10 7 4 1 1 4 7 10 12 14 16 18 22 23 23 22 20 22 23 23 22 20 21
11 11 9 12 14 11 9 21 25 26 26 23 22 21 20 16 15 14 12 9 6 3 1 1 3 6 9 11 12 15 17 19 20 21 20 23 26 25 24 20 19 18 19
15 17 18 19 18 19 22 22 23 22 21 20 20 18 16 16 14 10 8 5 2 0 2 4 6 8 9 12 14 16 18 19 20 21 24 24 24 21 19 18 16 16 19
18 18 19 21 22 22 21 20 20 20 19 17 15 14 14 12 11 8 5 2 1 2 4 6 8 9 11 13 15 18 19 18 19 22 23 22 20 18 18 17 17 18 20
23 21 20 20 21 20 21 20 19 17 14 15 14 14 12 10 8 4 2 2 2 5 8 10 11 13 15 15 17 18 18 20 21 22 22 20 18 19 19 19 21 20 22

GFSMW_850_spd_063.txt.gz
Wind_Speed
37 34 31 27 27 37 41 35 28 27 28 30 39 36 35 34 33 30 27 26 27 25 25 25 23 26 26 22 21 21 20 18 17 15 13 12 11 11 11 10 9 10 9
39 36 34 31 27 25 33 43 39 33 31 32 31 39 38 36 36 34 30 30 30 27 26 28 28 29 28 27 26 24 23 21 18 15 13 9 11 13 13 13 11 11 14
42 43 37 35 32 29 23 23 31 36 34 31 33 38 42 40 38 37 35 35 35 30 28 26 29 31 31 31 30 28 26 23 19 17 13 7 8 7 12 14 13 16 16
27 29 28 28 32 34 30 27 26 25 26 34 39 39 44 46 44 40 39 36 37 33 32 29 30 31 33 34 34 30 27 24 22 18 20 19 14 9 6 11 13 16 16
6 7 10 11 10 15 23 26 26 26 27 26 31 40 40 46 45 44 42 38 38 38 36 33 32 34 35 37 34 31 28 26 22 21 20 17 15 15 14 11 12 14 15
18 14 11 8 4 5 10 18 21 23 28 28 28 31 32 41 44 44 43 39 37 40 41 39 37 34 37 37 33 30 28 26 23 22 20 19 15 14 14 16 14 16 18
19 14 11 9 6 5 5 9 16 19 20 22 23 29 34 34 35 41 42 43 41 44 44 44 41 37 37 36 31 28 28 26 24 23 21 18 17 16 15 15 16 18 22
19 16 13 12 11 10 9 11 13 14 16 18 21 23 25 32 35 36 38 42 46 46 41 44 42 37 34 33 29 28 27 25 23 21 19 17 16 13 14 15 17 19 20
20 19 16 15 14 14 15 16 19 21 22 22 21 23 24 26 30 37 37 40 40 42 40 39 38 35 32 29 29 28 25 24 21 19 16 14 12 13 14 16 17 18 16
21 20 20 21 21 21 22 24 25 27 28 27 25 24 23 23 26 32 39 38 37 39 39 38 35 32 30 30 29 26 24 21 19 16 15 13 13 14 16 17 18 20 21
19 22 23 21 20 22 24 26 29 31 33 32 29 26 23 23 25 30 37 39 35 33 35 34 31 30 31 31 27 23 20 18 17 14 12 12 12 15 17 18 19 21 23
20 23 22 21 23 23 22 24 25 27 29 31 28 27 23 22 23 27 33 35 32 30 28 27 30 31 30 26 23 21 16 13 11 11 10 12 16 16 17 19 20 23 24
22 22 20 20 25 25 27 26 21 20 19 22 24 26 24 21 20 23 26 28 26 25 27 30 31 30 26 23 19 15 11 9 9 11 14 15 15 16 18 21 22 24 26
19 18 16 17 21 21 24 24 18 9 7 11 18 21 24 20 18 19 20 22 24 26 28 29 28 25 23 20 17 14 12 7 8 12 16 16 17 18 20 22 23 24 26
13 14 13 14 18 19 21 18 12 5 5 11 16 21 20 17 19 19 21 23 24 26 25 26 26 24 20 17 13 9 8 7 9 14 15 17 19 20 21 22 23 24 26
10 10 10 14 18 19 16 13 9 7 3 7 13 16 18 19 20 21 23 23 23 25 27 26 24 20 16 11 9 4 2 8 12 15 15 16 19 20 20 22 22 21 21
5 6 7 10 15 16 11 8 4 4 6 14 17 17 20 19 21 21 20 21 25 27 25 23 17 15 11 6 2 4 9 13 12 13 16 17 18 20 22 22 19 20 21
3 3 4 6 9 9 6 4 5 6 9 13 11 16 17 17 17 17 21 25 23 22 21 18 13 8 5 2 3 7 8 9 12 15 17 18 20 22 22 23 22 22 25
2 1 1 2 2 3 3 4 7 9 9 8 9 11 11 14 16 22 22 24 22 20 18 15 12 6 3 6 7 6 8 12 14 15 17 21 23 23 22 19 23 29 29
1 2 2 3 3 2 2 3 8 10 14 16 16 16 18 21 25 26 25 22 19 17 15 9 6 6 5 6 7 10 11 13 16 17 20 21 22 19 16 21 26 27 25
1 1 4 6 5 6 5 5 9 12 15 17 19 24 26 27 26 23 21 18 15 12 9 7 5 3 4 6 8 11 13 16 19 21 22 21 19 16 19 19 22 23 22
3 4 5 6 7 6 6 9 12 15 19 23 26 27 26 23 20 19 18 15 11 8 6 3 2 3 5 7 10 12 15 17 20 20 21 20 20 23 22 22 20 19 21
6 6 6 8 8 10 11 7 19 21 24 25 23 21 21 20 18 16 14 11 8 5 2 1 3 5 7 10 12 14 15 17 18 19 20 22 23 23 21 18 17 18 18
9 9 10 11 9 10 15 22 23 21 20 20 20 19 18 18 16 13 9 6 4 2 1 2 5 7 10 12 14 15 16 18 19 21 22 22 22 20 18 16 14 15 17
14 15 16 16 18 19 21 20 20 18 18 18 17 16 16 14 12 9 6 3 1 1 3 5 7 9 11 12 14 16 18 19 20 22 22 22 21 18 16 15 14 16 17
18 19 19 19 20 20 19 20 19 18 16 15 15 14 12 10 8 5 2 1 2 4 6 8 9 11 13 14 16 18 19 20 21 22 22 21 19 18 18 17 18 18 20

GFSMW_850_spd_066.txt.gz
Wind_Speed
24 25 28 28 24 24 31 31 31 27 27 26 28 34 36 33 32 29 27 24 26 25 26 27 26 26 26 24 23 23 22 21 19 17 16 16 15 15 14 14 13 13 13
33 31 28 27 26 24 23 28 32 34 34 34 31 31 28 35 33 31 29 29 27 27 27 28 29 29 26 27 28 26 24 24 22 20 17 13 16 18 19 16 16 16 17
31 32 32 31 28 25 24 23 23 29 36 37 33 34 34 33 35 35 33 33 33 31 30 30 29 30 29 29 29 29 27 27 25 22 18 7 10 11 15 17 17 18 19
12 15 16 16 19 23 27 27 26 24 23 31 37 38 38 38 36 35 35 35 35 33 32 32 32 31 30 30 31 32 32 28 26 25 25 23 20 10 8 15 18 19 19
19 17 12 6 1 7 17 25 30 26 22 24 28 32 38 37 35 35 40 39 38 37 34 35 36 34 32 33 34 35 33 29 27 28 28 24 24 23 20 15 17 18 17
18 17 16 14 12 8 2 8 16 19 22 24 26 29 29 33 36 39 40 43 42 41 36 35 36 36 35 35 35 36 34 31 25 30 30 28 25 23 22 21 18 16 16
18 15 12 10 9 8 6 4 2 10 16 17 19 24 27 29 30 30 33 41 40 40 39 39 38 38 37 37 36 36 36 32 30 30 30 28 24 23 20 18 17 16 17
17 16 14 12 11 9 10 10 9 9 11 13 15 18 22 26 29 31 30 32 35 40 43 43 41 42 40 37 36 36 33 31 30 28 27 24 22 18 16 14 14 17 17
15 16 16 16 15 15 15 17 18 19 19 19 19 20 20 20 21 25 30 35 36 36 41 43 43 40 38 36 33 31 31 31 29 27 24 20 17 14 17 17 17 17 15
13 15 17 18 19 19 21 22 23 26 28 28 26 25 23 21 18 20 26 29 33 36 36 39 38 37 35 31 30 30 30 28 26 23 19 18 14 12 14 15 16 18 19
15 16 16 16 18 21 23 22 23 25 27 30 33 30 26 22 22 20 24 29 31 32 33 32 33 33 29 29 29 28 28 24 21 20 17 14 11 10 11 14 16 19 21
15 15 16 18 18 23 21 21 21 21 23 23 26 30 27 23 22 21 22 25 26 27 27 26 27 27 26 29 30 28 24 20 16 13 11 10 9 10 12 16 19 21 22
14 13 14 16 18 21 20 21 19 18 16 15 15 17 20 22 21 18 17 16 18 20 21 22 25 25 27 27 26 23 20 17 15 13 9 8 10 13 15 18 19 21 23
12 13 14 16 19 20 21 20 19 16 9 5 8 11 14 15 15 10 11 13 15 18 20 21 23 24 25 22 20 18 18 15 13 10 9 8 11 14 16 18 21 22 24
11 11 11 12 17 18 17 18 16 14 10 8 6 4 7 9 10 10 12 13 16 19 21 22 23 23 21 20 18 17 13 10 7 8 8 10 13 16 18 20 22 23 24
6 7 7 8 13 15 13 15 15 12 8 4 3 7 9 12 11 11 13 14 16 17 18 23 23 21 19 16 12 12 10 6 5 7 8 12 15 17 19 20 20 20 22
3 4 4 6 9 13 13 11 10 9 6 4 7 10 12 13 12 14 14 15 16 17 20 21 19 17 14 11 8 5 1 5 5 7 10 13 16 18 20 20 20 19 19
3 3 2 3 6 9 11 11 8 6 4 5 5 8 10 9 10 10 13 19 20 20 20 19 16 14 13 9 5 6 3 4 7 9 13 15 17 19 20 20 19 21 24
1 1 1 0 2 5 7 8 6 4 3 7 9 10 8 11 14 16 19 21 22 21 21 19 16 11 8 7 3 2 3 8 10 11 14 18 19 20 19 17 22 26 26
1 3 3 2 1 3 4 5 3 0 2 5 8 9 11 14 20 21 21 20 20 19 16 14 11 9 6 4 2 4 7 9 12 14 16 18 20 20 15 18 24 26 23
3 4 4 3 1 2 3 3 2 3 5 9 9 13 17 21 22 22 21 19 18 16 15 12 9 5 2 1 6 9 10 13 15 17 19 19 20 20 20 19 21 21 19
5 5 5 5 4 4 2 2 5 8 10 14 18 20 22 22 21 19 20 17 15 13 10 6 4 2 1 4 7 10 13 15 18 20 20 20 21 21 20 19 17 16 18
6 7 6 6 6 6 6 5 12 14 17 20 22 21 19 18 17 17 16 14 11 8 5 3 1 2 5 7 10 12 14 17 18 18 19 20 21 21 19 16 15 16 17
8 9 9 8 9 10 7 14 19 19 19 19 19 19 18 17 16 14 12 9 6 4 2 1 3 5 7 10 12 13 15 16 17 19 19 20 20 18 16 15 13 14 16
12 13 11 13 16 18 19 19 19 18 19 18 17 16 15 13 12 10 8 5 3 1 1 3 6 7 9 10 13 15 17 18 18 20 19 19 19 17 15 13 12 14 15
16 18 16 17 20 21 20 19 17 16 14 14 15 14 12 10 8 6 4 2 1 2 4 6 8 9 11 13 15 16 17 18 19 19 20 20 18 16 16 15 15 15 17

GFSMW_850_spd_069.txt.gz
Wind_Speed
25 24 29 26 26 28 26 30 30 27 29 32 34 34 35 33 31 29 28 25 23 23 25 26 27 29 30 28 25 25 24 22 21 19 18 17 16 17 17 17 17 17 16
25 26 26 25 23 20 24 25 27 32 33 32 31 32 30 33 34 33 31 29 27 26 25 27 29 32 31 30 30 29 27 26 25 23 19 13 17 21 21 21 20 19 19
25 25 26 26 25 24 23 25 25 25 32 35 34 33 34 33 32 32 33 33 32 30 30 29 30 32 33 33 31 31 30 29 28 27 20 10 12 12 17 21 22 22 21
4 9 13 17 21 24 27 26 27 26 24 26 35 39 40 39 36 34 32 35 35 35 34 32 31 32 33 34 34 32 32 32 33 29 29 28 23 11 10 19 22 23 23
17 17 14 9 4 5 14 23 29 30 28 26 26 30 38 39 37 37 36 38 36 37 36 35 34 35 34 34 34 35 36 36 37 33 32 31 30 26 29 24 23 24 23
14 15 14 13 12 10 6 4 12 20 27 27 27 28 30 31 34 36 38 37 36 40 39 39 38 36 35 36 36 36 37 38 37 35 33 34 31 31 30 28 24 20 18
12 12 10 8 7 5 4 3 2 6 13 17 21 26 28 31 33 32 33 36 37 39 38 41 40 39 38 37 38 38 37 37 39 36 34 34 32 30 27 27 24 20 17
11 11 10 9 7 6 6 6 6 6 8 10 14 17 21 27 30 31 30 31 31 31 32 35 40 40 40 38 38 39 38 39 38 37 34 32 31 31 28 19 21 18 15
10 10 9 9 9 10 11 13 15 16 17 17 18 19 20 22 24 25 27 29 30 31 32 33 39 41 42 40 39 38 36 35 35 33 33 30 27 26 24 23 21 20 12
7 7 7 8 10 12 15 18 19 20 22 24 25 26 24 24 25 24 24 25 26 28 31 31 31 35 39 37 36 35 31 32 32 31 26 23 19 18 14 15 15 13 12
6 7 7 9 10 12 17 15 15 16 17 20 23 28 30 29 26 26 25 24 25 25 25 26 27 28 30 31 31 29 29 30 29 25 23 21 17 14 12 10 12 14 15
5 5 6 8 10 15 16 15 14 13 14 15 17 18 21 25 26 25 26 24 22 21 20 20 21 22 24 27 27 27 27 25 24 23 21 18 15 15 14 13 13 14 17
4 5 6 9 13 18 15 14 12 12 11 10 10 11 12 14 18 19 19 18 15 13 13 16 19 21 23 25 25 24 24 21 19 17 15 16 14 10 13 11 11 15 19
3 5 7 8 14 16 14 14 14 13 10 9 7 6 6 6 9 10 9 8 8 10 14 16 19 22 24 24 23 21 20 18 14 12 9 11 11 10 10 12 14 17 18
4 3 5 8 11 13 11 13 14 14 13 14 8 4 2 4 6 7 7 6 6 10 13 17 19 21 21 21 19 18 14 11 10 10 11 9 6 8 12 14 15 17 18
2 3 4 5 9 12 12 11 13 13 12 9 6 5 6 7 8 9 8 7 7 11 13 17 21 22 19 17 15 11 10 10 8 5 3 4 8 9 11 12 14 17 19
1 1 2 3 6 9 9 8 11 12 10 8 8 7 9 10 10 8 7 7 9 12 13 16 16 14 12 13 13 12 9 6 3 1 3 6 9 11 14 15 17 16 16
2 1 1 1 3 6 6 7 9 9 9 9 10 10 7 7 10 8 6 10 13 16 18 18 16 16 16 13 11 8 6 4 2 2 4 7 10 13 15 16 16 18 19
2 2 2 2 3 5 6 6 6 7 6 7 8 6 5 6 9 10 13 16 17 17 17 15 16 15 14 12 9 6 4 1 2 5 8 12 15 16 15 15 19 21 21
4 4 4 4 3 4 5 5 6 8 9 9 7 8 9 10 15 16 17 18 14 16 17 16 14 13 11 9 7 4 3 3 6 8 11 14 15 15 12 15 19 20 18
5 6 6 5 4 3 5 5 8 9 9 10 11 13 14 14 15 16 16 17 17 17 14 13 12 8 7 6 6 6 6 8 10 11 13 14 14 16 16 15 17 16 15
6 6 6 6 5 5 5 9 9 12 13 16 18 18 17 18 19 18 18 17 15 14 12 9 8 7 5 3 4 6 10 11 12 13 14 15 17 17 16 15 14 14 14
7 8 7 7 8 7 8 11 16 18 19 21 21 20 19 17 17 17 15 14 12 9 9 7 5 3 2 4 6 9 11 12 13 14 15 16 16 16 15 13 12 11 12
9 9 8 9 12 11 14 17 20 19 19 20 19 18 17 17 16 14 12 9 8 6 5 3 2 2 4 5 7 10 12 12 13 15 15 16 16 15 13 11 10 11 12
14 11 10 13 15 18 21 21 20 18 18 17 17 16 16 14 13 11 9 7 5 4 2 2 3 5 7 8 10 12 13 15 16 16 15 14 14 12 9 8 9 10 12
16 15 14 18 21 22 21 20 18 17 16 16 16 15 13 12 10 7 5 4 3 2 3 6 7 7 9 11 12 13 15 15 15 14 15 14 13 11 11 10 10 11 13

GFSMW_850_spd_072.txt.gz
Wind_Speed
19 18 22 25 26 26 27 27 26 25 24 29 31 32 33 31 31 30 28 28 27 26 26 27 27 28 29 28 28 26 26 25 25 22 23 21 20 19 19 19 19 19 18
18 17 21 26 26 26 26 28 29 29 30 31 31 35 37 37 36 35 33 32 31 30 29 28 29 31 31 28 31 32 30 29 29 26 14 10 18 24 24 24 23 22 22
19 19 17 19 25 25 25 25 27 30 32 34 32 33 33 36 35 35 34 34 36 34 34 32 32 31 33 34 34 36 34 34 32 32 18 10 13 14 21 24 25 24 25
11 16 19 21 24 26 26 27 27 30 32 32 30 31 37 39 38 36 35 35 36 40 38 36 35 34 35 37 38 37 37 36 38 34 35 32 16 9 8 17 21 23 25
7 7 7 7 10 16 23 28 31 32 34 34 32 27 29 37 40 38 39 40 38 36 39 38 38 39 37 37 39 39 40 40 39 38 37 36 36 33 27 13 21 25 25
8 10 12 11 9 7 4 9 17 27 29 31 32 31 27 28 30 36 41 41 41 40 39 38 39 41 41 40 40 40 41 42 41 40 40 40 37 35 35 31 22 19 21
8 7 7 7 7 6 4 3 4 10 17 23 29 31 31 28 27 30 33 34 39 41 41 38 37 42 43 43 42 43 43 43 43 43 41 39 38 36 33 30 27 25 23
6 5 6 5 4 2 1 3 6 8 10 14 18 22 27 32 33 34 33 34 35 33 33 35 35 35 38 44 43 43 44 43 44 44 42 39 37 36 33 28 23 25 25
4 3 3 3 3 4 6 9 11 13 15 17 19 20 22 24 27 28 31 33 34 34 32 31 32 31 34 39 41 43 41 41 42 43 39 38 37 36 34 27 19 18 14
2 2 2 4 6 8 10 14 16 17 18 21 22 23 25 26 26 26 28 29 30 30 28 28 29 29 27 29 34 37 37 35 35 35 33 36 36 31 27 22 22 20 22
1 2 3 4 6 8 13 15 13 14 15 16 19 21 24 27 29 29 29 28 28 27 26 25 24 24 24 25 28 31 31 30 30 31 29 22 18 18 18 17 18 16 16
3 3 3 4 4 9 12 11 11 11 11 11 11 13 16 18 21 25 26 25 24 22 20 20 20 19 19 22 24 27 27 27 27 26 23 23 15 18 11 13 16 17 19
5 5 4 3 4 8 8 9 8 7 7 7 6 5 7 9 11 13 16 17 17 17 16 14 13 15 17 19 22 23 24 23 20 18 17 14 12 14 14 15 16 12 12
9 7 5 3 3 6 5 6 5 6 5 6 5 5 4 2 2 5 7 8 8 9 10 10 11 13 16 17 20 21 21 20 18 16 13 12 13 11 10 9 8 10 13
8 7 6 4 1 3 4 5 7 6 6 7 4 6 6 4 3 3 3 5 6 6 7 9 11 13 14 16 18 18 17 15 13 13 12 11 9 9 8 7 11 11 14
8 7 5 3 2 2 2 5 7 8 9 7 6 8 8 7 7 7 6 5 5 5 5 6 9 12 14 13 12 12 10 11 10 7 6 6 6 4 7 8 11 14 14
8 6 5 6 4 3 4 4 7 9 10 6 8 8 8 10 11 9 8 7 7 8 9 11 12 11 11 9 10 9 8 6 6 5 2 3 4 6 8 11 12 13 14
7 7 6 6 4 4 4 4 7 5 7 7 7 9 9 9 9 8 9 10 10 11 15 16 13 13 14 10 10 10 9 6 4 3 2 4 6 9 10 11 14 15 15
8 6 6 7 6 5 4 4 5 6 6 7 8 8 7 8 10 13 14 14 15 16 17 15 13 12 14 11 10 7 5 3 0 2 4 6 8 10 10 9 15 15 17
6 7 8 8 6 4 3 4 6 7 9 10 10 12 12 14 17 17 17 16 13 17 17 17 14 13 11 9 5 3 2 2 3 6 8 10 10 10 10 13 14 16 15
6 7 8 8 6 5 4 7 9 10 12 12 13 17 17 18 18 18 15 15 16 16 14 12 11 9 7 6 4 4 4 4 7 8 10 10 11 12 12 13 13 14 14
8 8 9 9 7 6 6 9 11 13 15 17 19 20 19 19 19 17 18 15 14 13 12 10 9 6 4 3 5 7 7 9 9 10 11 12 13 14 14 14 13 12 11
8 9 9 9 9 9 9 12 17 19 21 22 22 22 20 20 18 16 15 14 12 10 9 7 4 3 2 3 5 8 10 11 11 12 13 14 14 13 12 11 10 9 9
9 10 11 11 12 13 15 18 22 22 22 23 21 20 18 17 16 14 12 10 9 7 5 3 1 1 3 5 7 9 10 12 13 14 14 13 13 12 11 8 7 7 9
12 12 12 14 15 18 20 21 22 21 20 19 19 17 16 14 13 12 10 8 6 5 3 1 1 3 5 7 9 10 11 12 14 14 14 13 11 8 6 6 6 8 10
14 14 15 17 20 23 23 21 19 16 15 17 16 16 14 13 11 8 7 6 5 3 1 1 3 5 7 9 11 12 12 14 14 13 12 10 8 6 5 5 6 8 10

GFSMW_850_spd_075.txt.gz
Wind_Speed
25 22 21 20 19 18 18 19 19 21 21 25 25 27 27 27 21 21 21 21 20 21 23 24 23 24 26 26 22 22 23 23 19 17 19 19 21 22 21 20 21 20 20
20 19 18 19 20 20 20 21 21 22 22 21 26 26 27 30 30 30 29 26 26 26 27 28 26 26 27 26 25 25 26 26 26 25 16 9 18 25 26 24 23 22 22
21 20 18 17 18 18 19 20 23 24 24 22 23 24 18 24 29 33 35 36 34 33 32 31 31 30 28 31 31 32 30 31 30 31 19 9 12 14 18 26 27 23 24
21 18 17 17 15 16 19 20 19 23 25 27 25 23 25 31 33 33 35 36 38 36 37 35 35 34 32 34 35 35 35 35 35 32 35 27 16 11 9 17 23 25 24
13 11 9 13 19 21 23 26 27 27 28 28 29 26 28 27 28 29 26 32 36 35 34 35 37 38 37 37 37 36 38 39 36 39 36 38 37 30 22 13 18 22 25
9 8 7 6 5 6 9 14 19 24 27 28 31 31 27 26 27 30 31 28 30 36 37 35 36 36 38 38 40 39 40 41 38 40 39 40 39 43 42 35 24 22 22
11 9 8 7 6 5 4 3 4 7 14 21 27 28 30 28 26 25 26 26 28 30 36 39 37 36 35 35 38 40 40 43 41 42 42 42 42 41 39 36 31 25 27
9 8 6 5 4 3 2 2 3 5 8 11 15 19 24 29 31 29 28 25 29 30 31 31 30 30 31 32 34 37 39 41 41 41 40 43 45 39 39 42 36 28 25
8 6 5 4 2 1 3 5 7 10 13 15 16 17 18 19 22 26 27 31 32 29 26 26 27 25 25 28 30 34 37 38 37 38 42 45 44 40 38 34 27 26 21
6 5 4 3 0 3 5 9 12 14 15 17 19 21 22 22 21 22 22 22 25 28 30 29 27 25 22 22 25 29 33 36 38 38 37 39 40 38 32 30 25 18 15
6 5 4 2 2 4 8 11 12 12 13 15 15 16 19 21 22 24 23 25 27 25 23 24 23 22 21 21 22 25 27 31 33 33 32 32 31 27 24 20 18 13 12
5 4 4 3 2 5 9 11 10 9 10 10 10 11 12 14 16 18 21 22 22 20 18 17 18 17 17 17 18 20 23 25 27 27 26 23 20 16 15 12 13 11 11
6 6 4 4 3 6 8 8 8 7 7 7 5 5 4 5 7 9 10 12 13 13 13 12 11 10 11 12 15 17 19 20 19 17 16 14 11 9 8 8 11 11 11
8 8 5 3 4 4 5 5 6 5 5 6 5 3 2 1 1 2 3 5 7 7 8 8 9 8 8 10 12 13 14 15 15 12 8 6 6 6 8 8 9 9 10
9 8 6 5 5 2 2 3 5 5 4 5 3 2 2 3 3 3 3 3 4 5 5 4 3 3 6 5 6 7 8 8 8 7 6 6 4 4 5 6 7 8 9
11 9 8 9 5 3 2 1 3 2 3 2 3 4 5 6 6 7 7 6 5 5 4 4 4 5 5 5 4 3 4 7 7 7 5 3 5 4 4 6 8 10 12
11 10 9 8 8 7 4 2 2 4 3 5 5 7 8 9 9 8 7 7 7 7 8 8 9 9 8 6 7 7 6 6 5 4 4 2 1 5 7 9 11 12 12
10 10 10 9 9 6 5 4 4 4 4 4 6 7 8 6 7 7 6 7 10 11 11 12 10 8 11 9 9 8 7 5 4 3 2 3 5 7 9 10 12 13 13
9 11 11 10 9 8 7 5 5 5 5 4 5 6 6 5 8 12 13 15 14 16 15 14 12 10 12 9 7 8 6 4 2 2 4 6 7 10 11 11 12 13 13
9 10 10 11 10 8 7 6 7 7 7 6 8 9 10 11 14 16 16 16 15 16 16 15 14 13 13 11 7 5 3 1 3 5 7 7 9 11 11 12 13 14 14
9 9 9 10 10 8 8 8 9 9 10 11 13 15 15 17 17 17 16 16 16 15 14 13 12 10 8 6 4 3 4 4 6 7 9 12 12 13 13 13 13 12 13
8 9 9 10 10 9 9 9 10 12 13 15 17 19 19 18 17 17 17 14 13 13 12 10 9 7 4 4 4 5 7 9 9 10 11 12 13 13 13 12 12 11 10
7 8 10 11 10 10 10 11 13 14 17 20 20 20 20 18 17 16 14 12 10 9 8 6 5 4 3 5 7 9 10 10 11 11 12 14 14 14 12 12 10 8 7
9 9 10 11 11 11 11 13 17 20 22 22 22 21 19 16 14 13 10 9 7 6 5 3 2 2 3 5 8 11 12 14 13 15 15 14 13 12 10 8 6 6 7
10 11 11 11 12 13 15 19 22 23 23 21 20 18 16 14 14 13 10 8 6 5 4 1 1 3 5 7 9 11 12 13 15 15 15 13 12 9 7 6 6 7 8
12 12 11 12 15 18 21 23 23 21 20 20 17 17 16 14 11 9 7 6 5 3 2 2 3 5 8 11 12 13 14 14 15 14 13 11 9 7 6 6 7 8 9

GFSMW_850_spd_078.txt.gz
Wind_Speed
19 21 19 19 16 17 16 22 23 19 18 21 24 27 27 25 23 20 20 20 21 21 22 21 21 22 24 24 25 25 26 25 22 20 21 23 24 25 24 23 23 24 23
26 19 19 17 19 22 21 22 21 21 20 23 23 24 25 26 28 25 24 25 26 26 25 25 24 25 26 26 28 27 27 28 27 26 22 21 25 29 28 27 27 27 26
14 15 19 21 21 18 18 20 23 24 24 21 23 24 23 25 27 30 32 31 30 29 29 29 28 28 29 31 30 30 30 31 31 32 27 12 15 16 21 27 30 29 29
17 14 10 14 15 22 25 26 21 26 26 28 23 26 28 28 28 27 27 28 34 35 34 32 33 33 31 33 33 32 33 34 34 32 37 32 15 12 10 19 23 29 31
15 17 19 21 19 19 23 27 29 26 27 28 30 26 22 24 26 27 29 31 29 30 29 37 33 34 34 34 35 34 36 38 39 39 37 36 38 26 20 20 24 27 30
12 12 14 18 20 22 23 23 25 27 28 28 29 32 35 28 23 23 24 23 24 28 31 29 29 32 35 35 35 34 37 38 40 42 41 39 39 42 38 26 24 26 27
12 10 10 8 8 8 8 10 12 14 19 24 27 29 30 32 30 24 21 24 27 27 28 26 26 28 32 32 33 35 34 37 39 42 43 41 38 38 38 39 37 27 27
16 16 14 10 9 7 6 6 6 5 6 9 14 19 24 27 28 30 29 21 19 21 24 25 25 24 24 25 28 31 34 36 39 41 41 40 40 40 40 39 36 34 28
16 14 12 10 8 6 4 2 3 6 8 10 12 13 15 17 19 22 28 29 29 24 19 20 22 21 19 19 22 26 28 30 34 36 39 42 42 41 40 39 39 35 23
15 13 11 8 6 3 1 3 6 8 11 13 14 16 17 18 19 19 18 21 27 29 28 25 26 26 24 22 21 21 24 26 32 36 36 37 38 42 40 37 32 28 23
15 13 9 7 4 1 2 6 9 10 12 12 12 14 16 18 19 20 21 21 21 23 22 21 20 20 22 20 19 19 21 24 26 28 30 31 32 32 29 25 19 15 16
12 11 9 5 3 1 4 8 9 9 10 9 9 8 9 10 13 15 17 18 18 19 18 16 15 14 14 14 14 15 16 18 20 23 25 25 24 21 16 12 9 8 5
12 10 8 7 5 2 4 7 7 7 8 7 6 6 6 7 7 8 8 8 9 10 12 11 11 11 11 11 11 12 13 14 16 16 14 12 11 8 6 6 5 8 5
11 10 9 7 6 4 4 5 6 6 6 5 6 4 3 2 1 2 2 3 3 3 4 3 3 3 4 4 6 7 8 8 8 9 8 7 7 4 3 4 4 6 6
13 14 12 10 7 5 4 3 4 5 4 5 4 2 1 2 3 3 4 3 3 3 2 2 1 1 2 2 3 3 2 3 5 6 6 5 3 5 4 4 4 5 7
15 14 14 13 8 6 4 2 2 2 1 3 1 2 4 5 6 7 7 7 7 5 4 5 3 2 3 5 5 4 3 3 4 4 4 3 5 4 1 2 6 9 9
17 17 14 11 9 8 6 4 2 1 1 1 3 6 8 9 11 10 8 8 9 7 6 7 7 8 10 10 8 9 6 6 5 4 4 4 1 2 3 6 7 7 8
14 13 13 11 9 8 7 6 5 4 2 5 7 9 8 8 9 6 4 7 9 9 9 11 11 10 13 11 10 10 8 6 5 5 4 2 2 4 6 7 8 10 11
12 12 12 9 9 9 8 7 6 6 5 5 7 8 7 7 8 10 8 12 13 15 14 13 12 10 13 12 9 8 6 5 4 4 4 5 7 8 9 10 11 11 11
12 13 10 10 11 11 10 8 7 8 7 6 6 8 8 10 12 13 13 15 14 14 14 15 13 11 10 9 6 5 4 3 2 3 4 6 8 9 10 11 11 11 12
11 11 10 11 12 13 12 13 12 9 9 8 8 10 12 14 15 15 15 15 16 15 14 13 12 9 8 6 4 3 3 4 6 7 8 8 9 11 11 12 12 11 11
9 9 9 10 12 13 13 12 11 11 10 11 12 14 15 16 16 17 17 15 13 12 11 9 8 6 5 3 2 3 4 6 6 8 9 11 12 12 12 11 9 8 7
7 8 8 10 12 13 12 12 12 12 13 15 16 18 16 16 17 16 14 13 11 9 9 7 5 3 2 2 4 6 8 8 10 10 11 11 12 12 11 10 7 6 4
8 7 8 10 12 11 11 11 12 15 17 19 19 18 19 18 16 13 11 10 9 7 6 4 3 1 2 4 7 10 12 13 14 14 14 14 13 11 9 6 4 4 5
10 8 9 9 10 10 10 11 15 19 20 19 20 21 18 17 16 15 13 9 7 6 4 2 1 3 4 7 10 10 12 13 14 14 14 12 11 9 6 4 4 4 6
11 11 10 10 10 10 12 16 19 20 22 23 23 19 18 17 15 13 10 9 8 6 4 3 3 5 7 9 11 13 14 14 15 14 13 11 11 8 6 5 6 7 7

GFSMW_850_spd_081.txt.gz
Wind_Speed
21 25 21 18 17 17 27 25 22 19 18 35 34 31 27 23 23 21 19 18 18 19 19 20 20 21 23 23 23 23 25 27 27 24 26 26 27 29 28 27 28 28 27
30 24 25 23 23 20 19 23 26 23 21 21 27 32 31 27 26 23 23 22 22 22 22 21 22 23 24 25 26 27 27 27 28 29 26 24 29 34 32 31 31 32 31
22 29 21 28 26 24 22 21 19 23 21 21 21 23 25 27 31 30 29 29 28 26 27 26 26 25 26 27 28 29 30 30 30 32 26 13 19 19 25 30 33 34 34
15 13 20 23 24 26 26 27 26 23 17 19 20 23 26 26 25 25 29 31 32 32 31 30 30 29 29 30 30 31 32 32 33 34 38 38 26 15 11 19 23 29 33
25 18 15 17 21 23 24 26 27 28 28 22 20 20 23 24 23 25 26 26 26 28 30 36 30 33 33 32 32 32 35 36 37 38 39 40 41 38 28 23 24 24 28
21 17 16 18 19 17 20 24 26 28 29 31 29 29 26 25 26 27 27 24 24 24 23 22 25 24 28 33 33 33 34 37 39 41 42 43 41 42 42 37 33 27 27
19 15 14 14 15 18 22 24 26 28 31 32 31 32 34 32 29 23 20 22 23 23 23 23 22 19 23 28 30 33 34 36 35 39 40 42 43 42 40 35 35 33 31
13 11 10 11 11 11 12 13 14 16 18 23 27 30 32 34 35 33 31 24 23 22 20 19 19 21 20 21 23 26 30 32 35 36 35 39 39 41 40 39 37 33 30
15 15 12 11 11 11 10 10 10 10 10 11 13 15 18 20 23 27 29 31 32 29 23 20 23 21 20 17 18 20 21 24 27 29 31 35 40 38 39 39 36 35 30
20 17 15 13 11 10 9 7 6 7 9 11 13 15 17 18 19 20 20 22 26 30 29 30 27 25 28 24 21 20 21 22 24 26 28 31 35 37 32 31 30 29 26
20 19 17 13 11 9 7 5 4 6 8 10 12 14 16 17 19 21 22 22 22 21 23 25 25 23 20 20 20 21 20 20 22 24 23 22 23 24 25 23 22 19 17
20 20 16 13 11 8 5 2 4 6 8 8 9 10 12 13 15 17 18 20 21 22 22 21 19 18 16 16 17 16 16 17 18 19 21 21 21 22 21 19 15 12 10
22 18 15 14 11 8 5 2 4 6 7 7 6 7 7 7 8 8 9 9 11 11 12 12 11 11 10 11 11 11 9 11 12 13 15 16 16 15 11 8 6 6 6
20 18 16 14 11 9 6 4 3 4 5 5 5 6 5 2 1 2 4 4 4 3 4 4 3 3 3 2 4 5 6 7 10 10 9 8 8 6 6 6 6 6 6
20 18 17 15 13 11 7 5 3 3 3 2 3 3 1 3 4 5 5 5 5 5 5 5 5 4 4 3 2 3 2 2 3 2 3 4 5 5 5 5 4 4 2
22 21 19 16 13 10 8 6 3 1 1 1 2 3 5 6 7 7 7 7 7 7 7 7 7 6 7 7 9 8 7 5 4 4 4 3 2 2 4 5 2 2 6
24 24 20 16 14 11 9 7 5 3 3 3 5 7 8 9 10 10 8 9 9 8 8 8 9 10 11 10 10 10 8 7 7 6 4 2 1 2 2 3 5 5 6
22 23 18 15 14 12 10 9 8 5 5 5 8 9 10 11 10 7 7 8 9 11 9 10 11 10 12 12 13 12 10 7 7 6 3 1 1 2 4 5 6 7 7
17 16 13 11 12 13 11 9 9 8 7 7 9 10 9 10 10 11 8 10 12 14 13 12 11 11 14 12 12 11 8 5 3 2 1 2 4 5 7 7 8 9 9
11 11 11 11 11 13 11 10 10 9 9 7 8 9 10 10 12 12 11 12 12 12 13 15 14 12 12 10 8 6 4 3 2 3 4 6 7 8 9 11 11 10 10
12 12 12 12 13 14 13 13 11 10 9 9 9 10 10 12 13 13 12 13 14 15 15 14 13 11 9 7 5 3 2 3 5 6 7 8 9 10 11 12 11 10 9
13 13 12 12 14 16 16 13 11 10 10 11 11 12 14 15 14 13 16 16 15 14 13 12 10 8 6 4 2 2 4 6 6 7 8 10 11 12 12 11 9 8 8
11 10 11 12 14 16 16 15 13 13 12 13 14 15 15 13 15 17 18 16 14 12 11 10 7 6 4 2 1 3 5 6 8 9 10 11 12 12 11 10 8 6 5
11 10 11 12 14 15 15 14 13 14 15 16 17 18 16 17 18 15 14 13 12 11 8 7 6 4 2 1 3 7 9 11 11 12 13 13 13 12 11 7 6 5 5
11 10 9 10 12 13 14 14 15 17 18 19 20 18 18 20 19 16 14 11 9 8 6 5 4 2 2 4 7 9 10 11 12 12 13 12 10 10 8 6 6 6 7
12 11 10 10 10 11 13 14 16 19 22 22 21 21 22 20 17 15 14 12 10 8 7 6 4 3 4 7 8 9 10 12 12 13 12 11 11 9 8 7 8 9 9

GFSMW_850_spd_084.txt.gz
Wind_Speed
17 13 22 21 18 18 21 27 30 28 34 35 32 29 29 26 24 22 21 20 20 19 20 19 20 20 20 20 21 23 23 25 24 24 26 28 28 30 31 31 30 30 28
24 21 16 26 25 22 23 25 28 28 27 36 34 33 31 28 25 23 23 23 22 21 20 20 20 20 21 22 24 26 27 26 26 28 28 28 30 34 34 34 34 33 32
28 25 21 25 27 28 23 23 24 26 27 26 31 39 35 32 30 30 28 26 24 24 23 22 22 22 23 24 25 27 28 28 27 29 26 11 16 21 20 20 27 33 34
22 21 25 26 30 30 29 26 23 23 26 25 26 27 32 38 37 33 29 27 27 28 28 28 28 28 27 26 27 27 29 30 31 32 33 36 34 21 16 19 15 20 28
27 19 12 21 31 32 30 30 29 27 26 26 26 25 26 28 26 27 26 27 29 32 34 34 32 32 33 33 31 31 30 31 34 35 35 36 39 41 39 32 32 30 24
29 26 20 16 20 22 24 27 28 27 24 24 24 24 25 27 28 29 30 30 28 26 25 26 27 26 28 30 31 32 34 36 34 36 36 38 36 36 40 43 44 41 39
35 26 23 21 19 20 21 22 24 24 25 25 24 26 28 29 30 31 32 33 33 31 27 21 22 22 23 24 25 28 29 31 35 34 36 36 38 40 43 42 40 37 36
29 26 22 20 18 18 20 22 24 25 25 28 29 29 29 31 31 30 30 30 28 29 27 24 25 23 20 23 22 23 26 28 28 29 31 33 34 34 35 40 35 35 33
25 22 19 16 15 15 16 18 21 23 25 25 25 27 30 31 33 33 33 32 31 31 26 24 23 21 23 26 24 20 21 22 25 28 29 30 29 28 29 32 36 36 27
23 20 16 15 15 14 13 13 12 12 13 14 15 16 17 19 21 22 23 23 24 26 28 26 25 24 24 24 21 21 23 23 23 23 25 26 26 27 27 27 28 26 26
21 18 16 15 14 13 12 10 9 9 10 11 13 15 17 19 20 21 22 22 21 20 20 22 25 27 29 31 29 25 22 21 22 22 20 22 21 20 17 16 15 17 18
18 16 16 14 13 12 10 8 7 7 8 9 12 13 15 16 17 19 20 20 20 20 20 20 20 21 22 21 21 18 17 17 17 17 17 18 18 17 17 18 18 17 16
20 18 16 14 13 12 10 8 6 5 6 7 8 10 11 13 14 14 14 14 15 16 17 17 17 18 18 16 14 12 12 12 11 12 13 13 13 14 14 13 12 11 11
22 20 18 16 14 13 11 9 7 5 4 5 6 7 8 9 9 9 10 9 8 7 7 8 9 8 8 8 7 6 7 8 8 8 7 8 8 10 10 9 7 7 7
22 21 20 19 17 15 13 10 7 5 4 4 5 5 5 4 5 5 6 6 6 6 5 5 5 7 7 7 6 7 6 6 6 4 5 4 4 4 4 4 3 4 5
23 22 21 19 19 16 13 10 8 6 5 4 4 2 4 6 6 7 7 7 8 8 8 8 8 7 7 7 8 7 7 7 7 6 6 5 4 3 3 3 5 5 5
24 25 24 21 18 16 13 10 9 7 6 6 6 5 7 8 9 8 8 10 10 9 9 8 8 9 10 10 11 11 10 10 9 8 6 4 2 2 2 4 6 7 8
23 27 25 21 17 16 15 12 11 9 8 7 8 8 9 10 10 9 8 8 9 9 8 8 10 9 10 12 13 13 10 9 8 7 5 2 1 4 5 7 8 9 10
16 22 24 20 17 16 15 13 13 11 9 9 9 11 11 11 10 9 8 9 10 10 12 10 8 10 13 13 12 11 9 6 5 3 1 2 4 7 8 8 9 10 11
10 15 20 17 16 16 15 14 13 12 10 9 10 10 10 10 10 11 9 9 11 13 13 13 13 12 13 11 9 7 6 3 1 2 3 5 7 8 10 11 12 11 12
11 13 14 14 15 16 16 15 14 13 11 10 9 10 11 10 11 11 11 12 13 14 15 15 14 12 10 8 6 4 2 2 3 4 6 7 9 10 11 12 11 11 11
12 12 13 14 15 16 16 15 14 13 13 13 11 12 12 14 13 13 14 14 14 15 15 14 12 10 8 5 3 1 2 4 5 7 8 9 10 11 13 13 11 11 11
11 13 14 14 16 17 17 16 14 13 13 13 13 14 14 15 15 15 15 17 16 14 13 12 10 8 5 3 1 2 3 4 6 8 9 10 10 10 10 10 10 10 8
13 13 14 14 15 16 17 17 15 14 15 16 16 16 15 16 16 16 16 16 15 14 12 10 8 7 5 3 3 4 6 7 8 9 10 10 11 12 11 10 8 8 8
13 14 13 12 13 14 16 17 17 17 18 18 18 19 18 17 18 18 16 15 13 10 8 8 7 6 5 5 5 6 7 8 10 10 11 11 11 10 10 9 8 8 10
11 13 12 11 11 12 14 16 17 18 19 20 21 22 21 19 20 20 18 17 14 12 11 10 9 8 7 6 7 7 8 10 12 12 12 12 12 11 10 10 10 11 13

GFSMW_850_spd_087.txt.gz
Wind_Speed
19 15 20 22 21 18 21 30 31 31 29 30 32 31 28 23 22 21 18 18 18 18 18 16 14 16 18 17 16 17 19 20 18 20 21 23 25 27 28 28 29 29 28
23 17 17 23 24 22 21 24 28 34 32 28 31 30 28 25 23 21 20 20 21 19 20 19 18 19 20 20 20 21 22 22 22 23 24 25 26 29 28 28 28 29 30
22 24 22 17 24 27 25 25 26 28 34 31 32 34 33 30 30 28 26 24 22 22 23 22 22 22 22 22 22 23 25 25 25 25 22 10 12 17 15 11 14 18 21
18 21 27 23 20 28 28 25 25 25 29 30 31 37 35 33 33 33 29 25 25 25 26 27 27 26 25 26 24 23 25 26 27 28 29 31 33 25 19 22 20 22 25
26 20 20 21 22 24 28 29 26 26 27 28 29 28 27 27 35 36 33 30 28 30 30 29 29 30 30 30 29 30 29 29 28 29 30 33 34 35 37 34 34 33 32
25 23 19 18 20 24 29 33 31 29 28 28 29 28 29 28 29 30 31 33 33 32 30 30 31 31 30 28 28 28 30 32 33 34 33 35 32 31 31 35 38 37 36
27 28 26 21 14 16 24 28 28 27 26 26 26 27 26 26 27 28 30 31 31 30 30 29 27 26 23 23 24 23 26 25 27 29 33 33 34 32 34 37 38 35 35
30 29 29 24 20 17 18 22 25 25 23 22 22 24 25 26 28 28 30 32 32 32 31 30 28 27 24 24 23 22 24 24 26 26 24 25 25 28 28 28 28 31 32
28 30 28 26 24 22 21 21 21 21 22 23 24 25 26 28 29 29 30 29 30 31 31 31 28 27 25 25 24 24 24 25 25 28 27 26 26 28 27 27 26 23 26
22 27 26 24 22 21 20 21 21 22 23 24 25 25 25 25 25 27 29 29 28 28 29 30 28 27 29 29 27 25 26 25 23 22 25 24 24 25 24 25 27 23 22
25 24 22 18 17 17 16 16 17 16 15 15 15 15 16 17 18 19 20 21 21 21 20 21 22 25 26 29 29 26 28 26 25 24 22 23 21 21 22 21 17 16 15
21 20 18 17 16 16 16 14 13 12 11 10 11 13 14 16 18 20 20 21 21 21 21 21 21 21 25 26 28 29 26 22 22 20 19 18 17 17 17 17 17 18 19
20 19 18 17 16 14 13 12 10 8 7 7 8 10 12 14 15 16 17 17 18 18 18 19 20 20 20 20 20 18 19 20 14 13 13 12 12 12 13 14 13 13 13
20 20 18 16 14 13 12 11 9 7 6 6 7 9 10 12 13 14 14 13 11 10 10 12 13 14 16 15 14 11 12 11 9 9 8 8 8 9 11 10 9 9 8
20 20 19 18 16 14 13 12 10 7 6 6 6 7 9 10 10 9 9 9 9 9 8 8 7 7 8 8 8 8 8 8 9 9 9 8 7 7 6 6 6 6 6
23 23 20 17 17 16 13 12 10 8 8 7 6 6 6 6 7 7 8 8 8 8 8 8 8 8 8 9 9 9 9 9 8 9 7 6 6 4 5 5 6 6 6
22 23 22 20 18 16 13 12 11 10 9 8 7 6 6 7 7 7 7 7 8 9 9 9 8 9 10 10 10 10 10 10 9 8 7 6 5 3 3 4 6 7 8
21 22 22 21 18 16 15 15 13 12 11 10 9 8 7 8 8 8 8 8 9 9 9 9 9 10 11 11 11 12 11 10 9 8 6 4 2 2 4 7 9 10 11
15 18 22 23 21 18 16 15 14 13 13 11 10 10 10 10 10 9 9 9 10 9 9 10 7 7 13 14 14 12 11 8 6 4 2 1 4 6 8 10 11 11 12
12 12 14 19 21 18 16 16 15 14 13 11 11 10 11 12 11 11 10 10 10 11 13 11 11 12 14 13 11 10 8 5 2 1 2 4 6 8 10 11 12 12 12
6 7 10 16 17 15 16 17 15 14 13 13 10 10 11 12 12 12 12 11 12 13 14 13 14 14 12 10 8 6 4 2 1 3 5 7 9 10 11 11 12 12 12
6 8 11 13 14 14 15 15 14 13 14 15 14 10 10 13 12 13 14 13 13 14 15 14 14 13 11 9 7 4 1 1 3 5 7 9 11 11 13 13 13 12 11
8 10 11 13 14 14 15 15 14 15 15 16 16 15 14 14 14 15 15 15 15 15 15 14 12 11 9 7 5 2 1 3 5 7 9 10 11 11 11 12 12 11 10
9 10 11 13 14 14 15 15 15 16 16 16 17 15 14 15 17 16 15 15 17 16 15 14 12 10 8 5 3 3 4 6 7 8 9 11 12 12 11 11 10 9 9
8 10 11 12 12 14 15 16 17 18 17 17 17 18 17 17 17 16 16 16 14 12 11 11 10 8 6 5 5 5 7 7 8 9 10 11 12 12 12 12 11 10 11
7 10 11 12 12 13 13 15 16 18 18 19 20 20 21 20 19 19 20 19 17 15 14 14 12 10 9 8 7 8 8 8 10 10 11 12 12 12 13 13 13 13 13

GFSMW_850_spd_090.txt.gz
Wind_Speed
28 12 13 17 19 21 23 26 27 26 24 26 27 28 27 23 19 18 17 17 16 15 16 15 14 15 16 12 12 14 15 16 15 17 18 19 20 21 21 21 22 22 22
35 28 17 23 24 24 21 24 27 26 27 28 28 27 27 24 20 18 19 19 18 17 17 17 17 16 16 16 16 17 18 19 18 19 19 19 22 22 19 16 14 13 15
28 32 23 22 27 26 26 24 24 26 28 29 28 26 29 29 27 25 22 20 19 18 19 19 19 18 19 19 18 19 20 21 21 21 19 10 9 13 16 14 20 20 13
24 24 23 23 22 22 26 26 23 24 26 29 29 28 29 30 29 24 24 22 22 22 21 22 22 23 24 24 23 22 22 23 23 24 26 27 28 24 20 25 26 26 25
21 18 17 20 25 24 22 27 26 24 24 25 28 29 27 26 26 26 27 28 25 25 26 26 26 27 28 27 27 28 28 27 27 27 28 29 29 29 31 29 28 28 27
24 22 24 22 20 22 23 24 27 25 24 25 26 27 26 24 25 25 25 26 29 31 31 30 30 30 28 28 27 27 27 26 29 30 30 31 30 29 27 29 32 30 29
27 27 27 26 21 18 22 25 27 28 28 26 25 25 24 25 26 27 26 25 27 28 28 28 26 26 25 24 23 23 23 22 24 25 26 25 26 27 30 29 30 29 28
24 24 25 24 21 17 15 20 25 28 31 30 28 27 26 27 26 24 24 25 26 27 28 28 27 26 26 26 25 24 22 21 21 22 21 22 24 23 22 20 22 26 25
15 20 23 25 24 20 17 16 19 20 21 22 23 23 23 24 25 26 27 27 27 28 29 30 29 28 27 26 26 25 24 24 22 21 23 23 25 28 25 24 22 23 21
13 17 21 26 26 24 22 20 19 19 18 19 20 22 25 26 28 29 30 30 29 30 30 30 30 29 27 25 27 26 28 24 24 22 25 23 22 22 22 23 25 22 21
8 13 22 23 22 21 20 19 19 18 19 19 19 20 21 21 22 22 23 23 23 22 21 21 21 21 21 22 24 25 26 25 25 25 25 24 21 22 21 21 20 20 18
12 17 20 19 18 16 16 15 16 15 15 15 15 15 15 15 16 18 19 20 20 20 20 20 20 19 19 18 22 25 29 27 26 28 27 21 22 20 18 17 16 17 17
18 17 16 15 13 13 13 13 13 13 11 11 11 11 12 13 14 16 17 17 18 18 19 19 19 20 20 21 22 25 26 27 24 22 21 19 16 15 15 14 14 13 13
17 17 16 15 14 14 13 12 11 10 9 8 7 7 8 10 12 14 16 16 17 17 17 16 16 16 16 16 16 16 16 17 17 16 15 13 12 11 11 11 13 11 10
17 17 16 15 15 15 14 13 11 10 8 7 7 7 7 10 12 13 13 14 13 11 11 9 10 10 11 12 12 12 12 12 13 12 12 11 11 11 10 8 7 6 6
20 18 16 15 15 14 13 12 11 10 9 8 8 7 8 9 10 8 8 8 8 8 8 8 8 7 8 8 9 9 10 10 10 10 11 9 9 6 5 4 4 5 6
18 17 17 16 16 15 14 13 12 12 11 10 9 8 7 7 7 7 8 7 8 7 9 9 8 8 8 9 10 11 10 10 9 9 9 8 5 4 3 4 5 7 8
14 16 18 18 18 17 16 15 15 14 13 13 11 9 8 8 8 8 8 8 8 8 9 9 8 8 9 10 11 10 10 10 10 9 8 6 4 3 3 5 7 9 10
14 16 18 21 21 21 19 17 15 15 14 14 13 12 9 9 9 8 7 8 9 9 9 8 8 8 9 11 12 11 11 10 9 8 6 4 3 3 6 7 8 10 11
11 13 15 18 21 23 21 18 17 16 15 14 12 12 11 10 11 10 10 10 10 10 10 11 9 8 12 14 13 13 10 8 7 5 4 2 4 6 7 9 10 10 11
8 10 12 12 15 19 19 17 16 16 13 14 14 13 12 12 12 12 12 12 12 12 13 13 12 12 13 13 12 11 9 7 5 3 2 4 5 7 8 8 10 10 10
6 6 6 7 12 15 15 15 15 13 15 15 14 13 13 11 13 14 14 14 13 14 15 14 14 15 14 12 10 8 6 4 3 2 3 5 8 9 10 10 10 10 10
8 8 8 10 12 13 14 14 13 15 15 16 16 16 16 14 14 15 16 16 16 15 15 15 15 15 13 11 9 7 5 4 3 3 5 7 8 9 9 10 10 10 9
8 9 11 13 13 12 13 13 15 15 15 16 16 18 18 16 16 17 17 17 17 17 17 17 16 14 12 10 8 7 5 3 3 5 6 7 9 9 9 10 10 10 9
7 8 9 9 10 12 13 14 15 17 17 17 17 18 18 18 17 17 17 17 15 14 14 14 14 13 11 9 9 6 5 5 5 6 7 8 9 10 10 10 10 10 10
7 7 7 9 10 11 12 14 14 16 18 18 18 19 18 20 18 18 18 18 17 17 17 17 15 14 13 12 9 8 7 7 7 7 8 9 10 11 12 11 11 11 12

GFSMW_850_spd_093.txt.gz
Wind_Speed
35 20 18 10 16 21 21 25 22 20 20 21 24 25 27 25 22 20 15 18 16 16 16 15 15 15 16 13 12 12 12 11 11 13 15 15 16 17 16 15 15 15 14
43 37 22 14 18 21 24 18 18 18 19 20 23 25 23 22 20 15 18 20 18 16 17 16 16 17 16 16 16 15 14 14 14 15 16 15 17 17 13 10 8 5 12
31 26 21 18 14 18 17 18 16 17 18 19 22 24 23 23 22 24 21 19 18 17 17 17 17 18 18 19 18 17 16 16 16 16 15 8 8 12 17 17 15 19 16
34 33 28 29 21 19 19 20 17 19 26 29 28 26 25 22 21 25 22 20 21 20 20 19 19 18 20 22 22 21 22 21 20 21 21 21 24 20 16 19 21 23 23
22 28 30 23 24 30 30 31 33 29 24 24 27 26 30 26 25 25 23 23 20 23 21 21 21 22 24 24 25 24 26 24 24 25 24 25 26 26 28 26 23 24 26
24 24 20 20 19 21 25 24 26 30 26 24 25 26 27 27 26 25 21 20 18 20 22 24 22 24 24 23 24 24 23 24 25 27 25 27 28 26 26 26 29 25 29
31 29 28 25 24 19 21 25 23 24 26 24 23 21 20 22 22 21 20 20 20 20 20 22 24 24 24 24 22 22 23 23 24 23 23 24 26 26 25 25 25 29 23
33 32 31 26 24 22 20 22 23 24 25 26 25 22 21 22 21 22 21 20 20 21 21 22 23 23 24 24 25 26 26 25 24 23 22 20 20 21 23 25 24 25 21
23 27 27 25 23 22 20 19 19 22 26 27 26 25 24 23 23 22 21 20 21 22 24 25 25 26 26 27 27 27 27 27 25 23 21 20 18 18 19 20 20 21 15
11 16 22 22 23 22 22 21 19 17 19 20 20 20 19 19 20 21 22 24 26 27 27 28 30 30 30 29 28 26 26 27 25 25 22 21 18 22 21 18 19 19 18
10 14 19 22 23 23 22 21 20 20 19 19 18 18 19 20 22 23 25 28 28 27 26 25 24 25 23 23 24 23 23 28 23 25 23 22 20 21 19 18 20 18 17
9 12 17 21 21 20 19 18 18 17 17 17 18 18 19 20 20 22 23 23 23 22 21 20 20 20 19 17 16 16 19 24 23 24 23 23 24 24 21 18 18 15 14
15 16 18 18 18 17 15 14 13 13 12 12 13 13 13 13 14 16 17 18 19 20 20 19 19 19 18 17 17 18 22 21 25 24 23 20 22 20 15 16 15 14 12
13 14 15 15 15 14 13 11 11 10 10 9 9 9 9 9 10 12 14 15 17 17 18 18 18 19 18 17 18 18 20 20 20 20 19 18 16 14 15 13 13 12 13
13 13 13 12 12 13 13 12 11 11 10 10 9 8 7 7 8 10 12 14 14 14 14 13 12 13 13 14 14 14 14 16 17 17 16 14 13 12 11 12 11 10 9
12 12 12 13 13 13 12 12 12 11 11 10 9 8 7 7 8 10 9 10 10 9 9 9 9 10 10 9 10 11 12 11 11 11 11 11 11 10 10 9 9 6 5
12 13 13 13 14 14 13 12 12 13 12 12 11 10 9 7 7 8 7 7 8 8 8 8 9 9 8 8 9 10 10 10 10 10 10 10 9 8 7 7 5 6 6
11 12 13 14 15 15 15 15 14 14 14 13 13 12 11 9 7 7 7 8 9 9 9 8 8 8 8 8 10 11 11 10 11 11 10 10 8 7 5 4 5 6 7
8 11 13 14 15 18 18 17 16 15 14 14 13 13 13 13 10 8 8 9 9 9 8 9 9 7 7 9 11 11 12 12 12 11 10 8 6 4 5 6 7 8 9
7 10 11 13 15 19 21 21 19 16 15 14 13 14 14 13 13 11 11 10 10 10 10 10 8 8 7 10 13 13 12 12 11 10 8 6 4 5 5 6 7 7 8
7 10 12 14 15 16 19 21 20 17 13 14 15 15 14 13 12 13 12 12 12 12 12 11 10 9 10 13 14 14 12 10 9 7 6 5 4 4 5 6 6 6 7
8 8 8 9 9 11 15 18 17 13 15 15 16 16 15 13 14 14 14 14 14 13 13 13 12 13 13 14 13 12 11 9 7 6 5 5 4 4 5 5 6 5 5
9 8 7 5 5 8 11 13 13 15 15 16 16 16 15 14 15 14 14 16 16 15 15 15 15 15 16 15 13 11 9 8 7 6 5 4 4 4 5 5 5 5 5
6 8 8 8 8 9 11 12 13 13 15 16 17 17 18 17 17 16 16 17 18 18 17 17 17 17 16 15 13 11 10 8 7 5 5 4 4 4 5 6 6 6 6
6 7 6 7 9 10 11 11 12 15 17 17 17 18 18 18 19 17 18 18 18 17 15 16 17 17 16 14 12 11 9 8 7 6 5 5 5 5 5 6 6 7 7
5 6 5 6 7 9 10 11 12 14 16 17 18 18 18 18 18 17 18 18 17 17 16 17 17 16 15 16 14 13 11 10 9 7 7 7 7 7 6 6 7 7 8

GFSMW_850_spd_096.txt.gz
Wind_Speed
30 24 15 12 10 18 21 20 26 21 21 23 25 27 30 27 27 24 22 20 20 20 19 18 18 18 18 16 14 14 14 12 12 11 11 13 15 15 14 14 14 14 12
28 30 19 12 13 13 23 23 22 24 19 18 18 20 23 25 24 22 22 22 21 20 20 19 19 18 18 18 17 16 15 14 14 11 10 7 8 11 9 8 6 8 8
25 32 27 18 18 14 26 21 20 18 17 18 13 14 18 19 20 20 23 21 20 20 19 18 19 20 19 19 18 19 18 17 17 17 12 6 7 6 11 12 12 14 16
17 27 30 24 19 15 13 14 18 19 14 9 14 15 14 12 14 17 17 21 20 21 21 21 21 20 21 23 23 21 20 21 23 21 22 21 19 11 10 15 18 19 19
19 29 33 27 23 15 17 16 16 16 16 10 12 18 18 15 14 19 21 19 19 20 19 23 21 22 25 25 23 24 26 26 26 26 25 23 23 24 24 16 16 22 23
24 26 29 32 25 19 20 22 26 24 23 20 22 15 14 25 27 27 23 24 22 20 21 25 23 27 27 27 23 28 25 23 24 25 25 25 24 25 23 25 23 23 23
26 26 31 36 32 31 32 32 32 30 29 29 28 29 30 28 28 29 30 28 25 22 24 27 27 29 32 28 27 26 27 25 25 24 25 26 27 26 24 24 25 24 23
26 25 26 28 28 28 27 25 30 31 27 34 33 30 29 30 29 31 31 28 26 26 28 26 25 23 24 24 24 24 24 25 26 25 26 26 24 23 22 22 21 22 21
24 26 25 26 27 26 27 24 22 25 25 26 29 29 29 28 28 27 26 25 24 26 23 22 21 22 23 24 25 26 26 26 26 26 26 25 23 20 19 18 18 20 16
11 16 24 26 26 25 24 24 23 22 23 24 25 27 29 28 28 27 25 23 22 22 22 23 24 25 26 27 28 30 30 29 28 25 25 25 23 22 20 18 18 19 17
9 11 16 22 25 25 23 23 21 19 18 18 18 19 21 21 21 21 21 22 22 23 23 24 25 26 27 28 29 30 29 29 26 25 26 24 25 21 20 18 20 19 17
8 11 14 19 21 22 21 20 18 17 16 14 14 14 15 16 17 18 19 19 20 21 22 22 21 21 22 21 22 21 21 19 20 23 27 24 21 22 21 21 19 19 17
10 11 13 15 16 17 17 16 16 14 13 12 11 11 12 13 14 15 17 18 18 19 19 20 20 21 20 20 20 19 18 17 18 21 22 20 22 22 20 19 19 15 14
11 12 12 14 15 15 14 14 14 13 12 11 10 10 10 11 12 12 13 15 16 18 18 19 19 19 18 18 19 18 18 20 22 25 22 22 21 18 18 16 14 15 15
10 11 13 13 14 14 13 12 10 10 9 9 9 9 9 8 8 9 10 13 15 16 17 18 18 18 17 17 18 17 18 20 21 22 20 19 17 16 15 15 14 14 14
10 10 11 11 11 11 11 11 10 10 9 9 9 9 9 9 8 8 10 12 13 14 14 14 14 14 14 12 12 13 15 16 16 17 16 16 15 15 14 14 12 11 11
9 10 10 8 9 10 10 11 11 11 11 11 12 12 11 11 10 8 8 10 12 12 10 11 13 12 12 11 11 12 13 13 13 13 12 13 13 13 13 13 11 10 9
9 9 9 9 10 11 12 13 13 13 13 13 13 13 12 12 12 11 10 7 8 12 12 12 12 12 11 10 10 12 12 13 13 13 13 12 12 13 11 10 9 9 9
8 8 8 9 11 13 15 16 16 16 15 15 14 14 14 14 14 14 14 12 8 10 12 11 11 10 9 10 11 12 13 13 13 13 13 13 12 11 9 8 8 8 9
6 7 8 9 12 15 19 21 21 20 17 16 14 14 15 15 15 15 14 15 11 11 12 11 11 9 9 7 10 12 12 14 14 14 13 12 10 8 7 7 8 8 8
2 5 8 10 13 15 18 22 24 22 19 16 15 15 15 15 15 15 14 15 14 12 12 12 11 10 10 9 11 13 13 13 13 12 11 10 8 7 7 7 7 7 7
5 7 9 10 11 13 16 20 22 19 17 16 15 15 15 16 16 15 15 16 16 15 14 14 13 12 12 12 13 14 14 12 11 10 10 8 7 6 6 6 5 6 6
3 8 10 8 6 5 8 11 13 15 15 15 15 16 16 17 17 16 17 17 17 17 17 16 15 15 14 14 15 14 13 11 11 10 9 8 7 6 5 5 5 4 5
6 7 8 7 7 6 6 9 11 13 14 14 15 16 17 18 20 18 17 17 19 19 19 18 18 17 16 16 16 15 14 12 12 10 10 8 7 6 6 5 5 5 6
6 6 6 6 7 9 10 11 12 13 13 14 16 17 18 20 20 20 19 19 20 19 19 18 18 18 19 17 15 14 13 13 12 11 10 9 8 7 7 6 6 6 6
5 5 7 6 7 9 10 11 12 12 13 15 16 19 19 19 20 20 20 19 18 18 18 18 17 16 16 16 17 16 15 14 13 13 12 11 10 9 8 8 8 8 8

GFSMW_850_spd_099.txt.gz
Wind_Speed
25 23 15 13 15 13 14 17 19 22 25 25 23 22 27 27 25 21 18 16 15 15 17 15 15 16 15 14 13 12 13 14 13 11 10 12 13 13 13 12 11 12 12
26 28 16 12 11 15 14 15 18 20 23 22 20 18 20 27 28 25 21 18 18 17 17 16 15 17 16 16 16 16 15 15 15 12 8 6 8 12 12 12 10 8 10
26 29 24 14 15 14 18 15 16 18 21 18 16 14 14 20 22 21 20 20 19 16 18 19 18 17 17 18 17 18 18 16 17 16 12 4 7 8 11 11 12 12 13
21 21 30 21 17 7 10 16 16 18 17 20 18 15 9 9 10 12 14 18 18 15 17 20 19 18 18 18 19 20 20 19 20 20 21 20 14 8 7 12 14 15 16
22 21 24 23 15 10 8 9 15 21 19 14 15 19 19 15 10 9 13 13 10 13 17 17 19 17 20 20 21 22 22 25 25 25 25 23 23 26 24 16 16 18 18
23 18 20 20 18 18 11 8 10 14 16 20 13 8 20 15 12 11 11 14 14 13 15 16 16 19 21 19 19 23 25 29 31 28 31 30 25 23 23 24 24 23 21
23 22 22 27 20 18 14 6 12 20 26 22 21 19 17 14 25 20 16 17 21 19 24 21 21 22 27 24 27 27 33 37 33 32 32 27 27 25 25 24 25 22 22
25 23 21 22 28 21 18 15 27 24 25 21 20 25 28 22 20 19 15 15 18 23 20 18 21 24 23 27 33 37 38 35 33 30 27 26 27 27 27 25 21 18 19
28 25 20 18 25 24 29 25 35 32 22 27 31 33 30 28 29 28 27 28 27 25 25 29 32 31 30 31 31 34 33 29 27 28 27 27 26 26 26 23 20 19 14
26 25 24 20 20 24 24 27 30 25 25 26 27 32 35 32 29 28 29 30 28 29 30 29 30 29 28 28 28 28 29 30 31 29 27 24 26 26 27 23 21 18 16
13 16 22 21 19 24 29 27 25 26 25 23 22 21 25 29 29 28 26 26 25 25 24 24 24 24 25 26 28 28 31 30 31 29 26 26 26 26 33 23 21 20 18
13 15 18 20 19 24 24 23 22 19 16 15 16 16 15 15 16 17 17 17 17 18 19 20 22 23 24 24 25 25 25 23 23 22 25 28 27 24 24 23 22 21 19
11 13 14 16 16 16 18 20 18 16 13 12 12 10 10 10 11 12 13 15 16 17 18 19 20 21 22 22 23 23 23 22 20 18 22 22 25 28 25 21 21 20 18
11 12 13 14 15 14 14 15 15 14 14 13 11 10 10 11 11 11 12 12 13 14 15 16 17 18 19 19 20 20 21 20 18 18 21 21 19 22 18 20 18 18 16
11 11 13 13 14 14 14 14 14 13 12 11 11 10 9 9 8 8 8 8 9 10 12 14 16 17 17 17 18 19 19 17 18 19 22 21 23 20 20 18 16 16 17
10 10 11 11 10 10 11 12 11 11 10 10 10 10 9 9 8 8 7 7 7 10 13 15 15 15 15 13 13 14 15 15 16 18 17 18 18 17 16 17 17 15 14
8 8 8 8 9 9 9 9 9 10 10 10 10 10 9 9 9 9 8 8 9 10 10 13 15 14 13 12 12 12 13 14 15 16 16 17 16 17 17 16 15 13 12
7 7 7 7 7 8 9 9 9 9 10 10 9 9 9 10 10 10 10 11 11 12 9 9 11 15 15 12 12 12 13 13 14 13 13 13 13 13 12 11 12 12 12
6 5 5 5 6 8 9 10 10 10 11 11 11 12 12 12 12 13 14 15 14 14 12 10 9 12 12 10 11 11 12 12 12 12 12 12 12 12 12 10 10 10 11
6 6 6 6 7 8 11 13 14 14 14 13 13 13 13 14 14 15 16 15 15 14 14 11 9 11 11 11 11 12 13 13 13 13 12 13 13 12 11 11 10 11 10
3 1 2 4 8 10 12 14 15 16 17 16 15 15 14 15 15 15 15 15 14 15 14 13 11 11 11 11 10 11 13 13 13 13 13 13 12 11 10 10 10 9 8
4 5 5 7 8 9 11 14 16 19 17 17 16 15 15 15 15 15 15 15 15 15 16 15 14 13 13 13 12 12 12 12 12 12 12 12 11 10 9 9 8 8 8
2 5 7 8 7 6 7 10 12 13 14 14 15 15 16 16 16 16 16 16 16 17 17 17 17 15 14 14 13 14 13 13 13 13 12 12 11 10 9 8 7 7 7
4 5 7 8 6 5 4 5 6 8 10 13 14 15 15 15 16 17 18 18 17 17 18 19 19 17 17 16 14 15 15 15 15 14 13 12 11 10 9 8 7 7 7
5 5 6 6 6 6 7 8 10 11 12 13 14 15 15 16 18 18 19 19 19 18 19 20 20 19 18 17 14 15 16 15 14 14 14 13 12 11 10 9 9 9 8
4 4 5 7 6 6 7 9 10 11 12 13 14 14 15 16 17 17 18 19 21 20 20 19 19 18 17 16 16 17 16 15 15 15 15 14 13 13 12 11 10 10 9

GFSMW_850_spd_102.txt.gz
Wind_Speed
25 26 23 18 19 22 18 15 15 20 25 27 25 24 23 24 20 19 19 15 15 17 16 18 17 18 18 15 15 14 15 13 14 13 10 10 11 13 13 13 12 12 12
23 30 25 18 15 21 22 19 16 15 21 23 20 25 26 24 23 20 21 20 17 19 19 17 17 17 17 16 15 14 13 14 13 11 8 7 9 12 11 12 11 10 12
27 27 27 20 17 17 23 23 19 16 18 20 22 24 24 23 25 29 27 25 22 20 20 15 16 16 15 16 16 16 15 13 13 12 10 4 5 6 9 11 12 13 13
23 22 29 25 19 17 23 24 22 20 16 18 19 22 21 18 18 22 24 20 21 21 21 17 17 17 17 15 15 16 15 15 16 15 16 18 14 8 7 13 14 16 16
25 24 19 29 25 16 17 23 20 18 17 16 15 15 12 12 11 10 12 16 14 14 13 16 17 17 17 17 14 19 15 16 17 17 19 19 21 23 24 17 17 17 17
12 20 21 25 24 20 18 18 19 19 20 19 15 10 7 14 11 10 12 15 18 14 12 11 13 14 16 14 11 14 18 14 17 20 21 26 29 34 28 29 27 19 19
23 15 20 24 22 20 19 17 17 18 18 16 14 12 6 1 4 14 18 11 16 18 12 13 13 13 12 12 14 14 23 19 19 23 28 32 34 34 32 27 23 21 23
25 25 24 22 20 20 19 20 17 18 16 15 12 8 7 9 4 11 21 16 14 23 23 20 15 13 17 13 11 18 23 24 34 32 34 36 36 28 32 29 25 25 24
27 29 20 23 26 24 22 21 16 16 15 10 17 17 18 18 18 27 21 21 15 11 7 15 8 8 12 16 21 30 30 32 35 34 30 28 25 24 26 25 24 26 24
28 27 26 22 22 26 24 22 15 21 19 12 20 20 25 31 26 27 26 32 26 27 24 22 23 24 27 26 31 34 34 33 32 30 28 26 26 25 26 25 28 26 26
20 30 27 21 21 21 22 24 23 18 21 18 28 30 31 37 34 34 33 32 29 30 30 31 31 33 34 29 27 27 27 29 31 31 32 31 28 28 27 26 29 23 28
9 15 18 24 24 21 22 21 23 25 26 28 28 23 20 18 20 23 22 19 17 18 17 17 17 19 21 23 25 26 27 28 29 27 28 29 26 28 25 27 29 29 25
13 14 14 16 19 19 20 22 22 21 21 20 18 16 13 12 11 11 12 12 12 13 13 15 16 18 20 22 24 24 25 25 24 23 22 21 21 26 26 21 22 27 26
13 14 15 14 12 14 19 20 21 20 18 16 15 14 15 14 13 11 10 10 10 10 11 12 13 15 18 19 21 22 23 23 22 22 22 19 21 22 23 22 24 21 18
15 15 16 15 16 16 14 16 18 18 17 17 15 14 13 11 10 9 9 8 8 8 8 9 11 14 17 18 20 21 21 21 21 19 18 20 19 21 23 19 20 20 20
14 14 16 16 16 17 16 15 15 15 15 15 13 11 11 11 11 10 8 8 7 7 7 9 10 12 14 17 17 17 19 19 20 19 20 21 22 23 22 21 20 20 17
15 15 16 15 14 14 14 14 14 13 13 12 11 11 11 10 9 8 8 8 7 6 8 10 12 12 12 12 14 15 15 16 16 17 18 20 19 18 19 20 19 19 17
11 11 9 9 10 10 10 11 11 12 12 11 11 10 10 10 10 10 10 10 9 10 10 10 11 12 11 10 14 16 15 16 16 17 18 18 17 17 16 17 16 17 16
12 11 8 6 7 9 10 10 10 11 11 11 11 11 10 10 11 12 12 12 12 12 13 14 13 13 13 10 12 14 16 14 14 15 15 15 14 14 14 14 13 13 14
10 11 11 11 8 6 9 11 12 12 12 12 12 12 11 12 12 12 11 11 12 13 14 14 13 13 13 11 11 14 13 13 13 14 14 14 14 14 13 13 11 11 12
7 6 5 5 8 11 10 11 12 13 13 14 14 13 12 12 12 13 13 14 13 13 14 14 14 14 12 12 11 13 12 13 14 14 14 14 12 13 12 11 10 11 11
6 5 3 1 4 6 10 14 14 16 16 15 15 13 12 12 13 14 14 15 14 14 14 14 14 14 13 13 14 14 13 14 13 12 12 12 11 11 11 11 11 11 10
3 3 4 5 5 3 5 9 12 14 15 14 13 12 11 12 12 14 15 16 16 16 15 14 15 15 15 15 15 14 14 14 12 12 11 11 11 11 12 11 9 10 9
3 3 3 5 5 3 3 4 3 5 8 8 8 9 10 12 13 13 15 16 17 17 17 15 15 16 17 16 17 15 14 13 13 12 13 13 13 13 12 11 9 9 9
4 4 4 4 5 4 3 4 6 6 7 8 9 9 10 13 14 15 15 16 17 18 17 16 16 17 19 17 16 16 13 14 14 15 16 16 15 13 12 11 10 9 9
4 3 4 5 6 6 5 6 7 8 9 10 11 11 12 13 14 16 16 16 16 18 18 19 17 17 18 17 16 16 15 15 16 18 18 16 15 14 12 11 11 11 10

GFSMW_850_spd_105.txt.gz
Wind_Speed
20 26 25 22 24 24 26 29 28 28 28 30 25 30 32 31 28 21 18 16 17 21 19 19 23 22 20 20 19 18 17 16 15 14 12 12 12 12 11 12 13 14 14
28 30 27 25 22 20 21 23 25 30 30 29 27 27 28 27 23 19 18 19 19 18 19 19 21 21 20 19 18 17 17 17 15 14 11 8 9 10 10 11 12 14 14
27 30 30 29 26 24 22 20 19 21 23 28 28 26 25 21 23 26 23 23 22 21 22 21 21 20 20 18 17 17 16 15 14 14 10 5 5 4 5 9 11 13 15
24 35 31 28 26 26 26 25 22 21 21 24 28 27 28 30 30 27 26 24 27 25 25 25 23 22 22 18 13 16 17 16 16 14 15 14 14 8 6 10 13 15 18
24 37 35 30 28 24 26 25 26 24 20 22 24 24 23 22 22 24 25 26 29 32 28 23 18 21 26 19 16 16 17 19 18 18 11 14 17 16 17 22 16 18 20
11 35 35 32 26 24 25 25 24 22 22 21 21 20 20 22 19 14 16 20 23 26 21 19 23 26 23 25 20 18 19 19 19 16 13 16 18 19 19 23 24 25 23
8 29 36 32 27 25 23 25 25 25 23 22 21 19 16 12 15 13 12 13 15 16 10 19 20 17 17 19 17 15 12 13 17 13 13 16 22 28 24 31 29 26 25
17 20 31 32 29 25 23 24 25 25 24 20 19 16 13 9 10 13 9 8 10 9 5 19 25 25 18 17 16 14 13 16 18 20 24 21 25 28 30 29 28 29 27
24 23 25 30 29 25 22 21 21 23 23 24 21 15 16 16 13 11 9 7 7 9 9 13 15 21 5 6 10 18 16 17 19 22 29 27 27 31 31 25 26 27 26
32 23 28 29 26 21 21 19 21 22 21 22 22 19 17 15 17 14 14 14 13 17 16 14 10 14 12 11 18 17 20 26 29 31 35 33 32 30 26 25 26 26 31
39 31 28 25 22 19 23 26 25 23 23 24 21 19 18 19 21 21 23 22 22 19 22 24 29 28 26 28 29 28 29 31 33 33 32 31 32 32 28 29 28 27 30
34 34 33 29 26 25 28 28 22 22 23 23 19 19 17 22 24 26 29 31 32 31 33 32 31 32 32 31 31 29 28 28 29 30 31 32 31 31 28 28 26 27 27
18 26 30 31 28 25 26 27 26 24 22 21 21 19 18 18 18 17 18 23 24 21 20 19 20 19 20 21 23 24 25 26 27 28 29 28 27 26 24 24 27 23 27
17 21 26 28 27 25 24 23 23 21 20 19 17 17 16 15 13 11 11 12 13 14 15 15 15 16 17 18 19 21 23 25 26 27 26 25 24 23 20 23 24 24 23
13 16 19 20 19 18 17 18 18 19 18 16 16 16 15 13 11 11 12 13 12 12 12 10 10 11 12 14 16 19 21 23 24 24 24 23 22 19 21 22 21 23 24
8 12 14 14 13 13 13 14 16 16 15 15 14 14 14 14 13 12 13 11 10 9 8 7 7 8 9 11 13 15 18 20 21 20 21 20 19 20 22 20 21 24 21
12 12 11 11 11 11 10 11 13 15 15 15 15 15 15 14 13 13 12 11 9 8 7 8 9 10 11 13 13 14 16 18 18 18 18 19 19 20 21 22 23 21 21
11 11 11 11 11 11 9 10 11 12 13 14 14 13 13 13 12 12 11 10 10 10 10 11 13 14 15 14 14 14 14 15 18 18 18 17 18 18 18 18 18 18 19
10 9 7 6 6 7 7 9 10 11 12 12 11 12 12 12 12 13 13 13 13 12 13 14 16 16 16 15 15 15 14 14 16 17 16 15 16 16 16 16 17 17 19
12 11 9 8 6 6 6 8 9 10 11 11 11 12 12 12 13 13 13 13 13 14 14 15 15 15 16 16 16 15 15 14 14 14 14 14 15 15 15 14 14 13 15
8 8 9 8 7 8 8 8 9 10 10 13 14 14 13 13 13 13 13 14 15 15 16 16 16 16 17 17 16 15 15 13 13 13 13 13 14 15 14 13 13 13 14
8 6 5 5 7 9 11 11 12 12 14 14 14 14 14 14 14 14 15 16 16 17 18 17 16 16 15 16 17 15 15 16 14 14 14 13 11 11 11 11 13 14 15
5 4 3 3 2 1 4 9 14 14 14 14 14 15 15 14 14 15 15 16 16 17 17 18 18 16 14 17 18 15 16 17 14 14 13 11 9 12 13 12 12 14 13
2 1 1 2 2 2 1 2 4 9 12 14 13 13 13 13 14 14 15 15 15 16 17 18 18 16 15 15 17 18 16 17 17 14 10 11 13 13 13 14 14 14 13
1 1 0 1 2 2 3 3 5 5 6 8 10 11 12 13 12 13 14 15 16 17 17 18 17 17 17 15 18 19 16 16 14 11 14 16 16 15 14 14 14 13 14
2 1 2 3 3 4 4 5 5 7 8 9 10 11 12 13 13 13 14 17 17 16 16 17 18 18 18 17 19 19 16 17 16 18 18 18 17 16 15 14 14 15 14

GFSMW_850_spd_108.txt.gz
Wind_Speed
22 22 23 25 35 32 35 34 35 35 36 38 38 35 29 27 25 23 21 22 23 21 18 18 19 21 22 20 19 19 20 19 17 16 17 17 17 18 16 15 15 14 13
18 19 23 23 29 33 32 33 32 34 36 39 39 42 30 26 27 25 21 20 23 24 21 20 22 23 23 22 22 22 21 20 18 18 16 13 15 16 15 15 15 13 14
19 17 25 22 22 26 29 30 31 30 32 34 32 30 36 31 33 25 22 24 22 21 21 20 19 21 23 23 21 19 20 20 20 19 15 7 8 7 8 9 12 13 14
19 17 24 25 24 23 23 23 23 23 22 34 27 33 36 43 39 36 33 27 27 24 21 21 20 25 25 24 22 18 19 20 20 18 20 21 11 6 5 7 7 12 15
13 18 27 29 27 24 22 22 22 21 22 28 30 34 32 32 28 30 28 29 29 25 21 21 21 24 29 30 26 23 23 24 22 17 20 21 21 19 18 16 12 14 15
22 32 37 30 28 27 24 20 21 20 18 20 24 26 27 27 27 28 31 29 28 28 25 24 28 29 36 35 28 29 34 31 27 26 26 24 19 15 15 18 19 20 21
14 39 37 34 31 26 25 21 20 21 21 19 20 23 23 20 18 22 23 24 30 32 29 29 32 33 26 25 28 27 20 23 23 22 23 21 18 17 19 20 25 28 22
12 34 39 34 30 27 25 22 21 20 22 20 18 15 13 13 12 14 13 11 11 9 8 9 15 17 21 20 22 21 18 15 14 16 16 15 16 22 23 23 24 32 29
19 29 38 35 31 28 24 22 20 18 19 18 17 15 14 12 10 11 11 8 8 8 10 8 8 11 16 13 12 10 9 17 24 23 23 21 19 17 22 27 28 29 27
19 22 34 34 29 24 21 20 19 18 17 20 19 19 17 15 14 12 12 12 12 12 12 11 11 11 9 16 15 11 9 8 13 16 19 24 26 26 26 30 28 28 26
21 23 31 34 30 25 21 19 18 19 20 21 23 22 19 18 17 16 16 16 16 14 15 15 16 16 16 18 19 18 18 20 25 28 29 29 29 29 29 28 28 29 28
25 25 30 35 33 28 21 20 20 22 23 23 25 23 21 19 18 17 17 21 22 22 22 23 24 25 25 27 30 30 30 32 35 30 29 28 29 31 31 31 31 32 29
26 24 32 38 34 28 24 23 24 23 23 24 24 21 20 20 18 19 20 19 21 24 27 26 28 28 29 25 26 26 24 24 24 26 29 30 31 30 29 28 28 25 22
11 26 31 35 32 28 25 24 24 23 21 21 20 21 20 19 18 18 15 13 12 13 15 16 16 15 16 18 18 20 21 22 24 25 28 29 30 29 27 26 23 22 21
10 18 26 29 29 26 23 22 23 23 22 22 21 19 17 16 15 14 14 12 11 11 11 12 12 13 14 15 16 17 18 19 21 23 26 27 26 24 22 22 21 21 23
9 12 17 19 20 20 19 19 18 19 19 19 17 16 15 14 14 13 11 11 10 9 9 9 9 9 11 12 13 14 16 16 19 21 22 24 23 22 20 20 20 21 24
10 10 10 10 11 12 11 12 14 16 17 17 17 16 14 12 12 11 11 9 9 9 9 9 9 10 12 13 15 16 17 18 18 18 18 21 21 21 20 21 21 21 21
9 9 9 8 8 8 8 9 11 14 15 16 15 14 13 12 12 12 11 10 9 10 10 10 11 12 14 15 16 16 18 19 19 18 18 20 22 21 18 18 17 17 16
8 8 7 7 6 6 7 8 9 11 11 12 12 12 12 13 12 11 10 10 11 12 12 12 13 14 15 17 17 18 20 20 19 20 18 17 18 17 16 16 16 16 17
8 8 8 7 7 7 7 7 8 9 11 11 11 11 12 12 11 11 11 12 13 14 14 15 15 16 17 16 17 19 21 20 19 19 17 16 16 17 16 15 13 14 13
8 7 8 7 7 7 8 7 8 8 9 11 12 13 13 12 12 13 13 13 15 15 17 18 18 19 18 18 18 17 18 19 19 19 17 15 16 16 16 15 13 12 11
9 8 8 8 8 8 9 10 9 9 11 12 12 13 13 13 13 13 14 15 16 17 17 18 18 18 18 19 17 16 18 19 18 19 19 18 17 17 15 13 11 12 12
6 6 5 5 4 6 8 10 11 12 12 13 12 12 13 13 14 14 15 15 16 17 17 19 19 19 20 20 19 17 16 19 20 19 20 19 18 15 11 10 11 13 12
3 3 3 2 2 2 3 3 5 7 9 11 12 13 14 13 13 14 14 15 16 17 18 19 21 21 21 20 19 17 17 20 21 20 19 17 16 12 13 13 14 14 13
2 1 1 2 2 2 3 4 5 5 6 8 9 10 11 11 13 14 15 15 15 18 20 20 20 21 20 18 18 19 19 20 20 20 19 18 16 16 15 15 15 15 14
2 2 2 2 3 4 4 5 6 7 8 9 10 11 13 14 15 16 16 16 15 18 19 18 19 19 19 19 19 20 20 20 20 22 21 19 17 19 17 16 15 15 14

GFSMW_850_spd_111.txt.gz
Wind_Speed
19 11 8 14 31 33 38 43 47 46 44 41 39 36 32 30 27 23 20 20 20 19 19 19 19 19 19 17 14 15 16 15 15 16 18 19 19 20 20 19 18 17 16
20 11 7 11 24 30 37 40 40 44 44 42 40 39 36 31 31 27 21 19 19 19 19 19 20 20 19 18 17 17 18 18 18 19 17 15 18 20 19 20 20 18 17
17 13 8 12 20 39 41 43 43 42 43 40 38 40 38 35 34 34 28 23 21 21 22 21 19 19 21 20 20 19 20 21 21 20 17 7 9 7 12 16 18 17 17
18 13 11 14 20 28 35 46 39 40 39 42 43 53 47 37 28 23 24 19 15 19 22 26 25 21 20 21 21 17 20 22 25 23 22 23 17 4 4 9 11 12 14
19 13 12 17 20 20 17 25 30 29 25 23 34 28 27 27 33 39 31 26 26 31 35 33 27 22 20 22 25 27 26 26 27 29 24 23 25 25 23 19 15 12 9
23 18 13 20 21 20 20 16 21 25 12 14 22 19 19 29 35 33 34 40 38 39 35 31 21 20 17 26 30 25 33 31 32 31 31 29 28 31 28 24 22 19 16
18 12 14 23 23 23 23 17 14 13 17 14 17 16 22 23 30 28 29 32 30 27 28 26 24 27 22 27 29 31 31 29 33 32 45 33 33 28 18 15 15 19 25
16 26 26 29 28 23 16 13 12 13 14 14 12 13 14 15 19 20 21 22 22 24 24 23 21 20 16 15 17 18 22 26 21 25 15 11 12 11 12 16 17 18 23
31 29 25 28 26 22 19 18 15 14 12 11 12 12 10 11 9 10 11 11 11 11 10 7 4 4 6 12 16 16 17 15 15 17 16 14 18 18 18 14 16 21 24
21 18 22 28 28 23 18 17 16 15 13 13 12 12 12 11 11 12 13 12 11 11 10 9 8 9 8 8 11 11 9 9 8 10 11 13 15 19 21 22 25 25 26
16 10 17 27 24 21 18 15 17 16 15 14 14 15 15 14 14 14 12 10 9 9 9 10 10 10 10 11 13 14 15 16 16 18 20 24 25 25 26 25 23 24 22
16 14 11 21 24 23 22 18 16 13 15 17 17 18 17 15 15 14 13 13 14 14 16 16 17 16 15 17 18 20 22 24 25 26 27 25 25 24 24 25 26 26 24
14 18 20 23 27 24 21 19 16 16 17 17 18 18 17 16 17 15 16 16 18 17 18 19 19 19 19 19 19 19 17 18 19 19 20 22 25 26 27 27 26 26 24
4 19 23 27 31 28 25 21 19 18 17 17 16 17 18 17 16 15 16 17 15 13 12 12 13 13 12 11 11 12 13 14 16 17 19 20 23 25 27 28 26 23 20
4 11 24 27 31 28 23 19 18 18 18 17 17 17 17 17 18 17 15 13 11 9 8 6 7 7 8 9 10 10 10 11 12 14 17 20 22 26 26 25 24 22 20
9 5 14 21 27 26 24 22 19 18 18 17 17 16 17 16 15 14 12 11 9 8 7 7 8 8 8 9 9 10 11 14 16 17 17 20 21 23 23 21 20 20 20
6 9 11 13 15 16 16 15 14 14 14 15 15 15 15 14 13 12 10 10 10 9 9 10 9 8 8 9 11 12 14 15 17 18 18 18 18 19 19 21 21 19 20
6 8 8 9 10 10 11 12 12 13 14 15 15 14 14 13 11 11 11 11 10 9 10 9 8 9 9 11 11 11 13 15 18 19 19 19 19 18 18 18 18 17 16
6 5 5 7 8 8 8 8 9 10 11 12 12 12 12 11 11 11 10 10 10 9 10 10 11 11 12 12 11 12 13 16 19 21 21 20 19 18 15 15 16 16 16
7 7 6 6 7 7 6 6 7 8 8 9 10 11 11 11 11 10 10 11 11 11 12 12 13 13 14 14 15 17 18 18 17 18 20 19 19 15 15 15 16 15 15
4 4 5 5 6 6 6 6 6 5 7 9 10 10 11 11 12 12 12 12 12 12 13 14 14 16 18 18 19 17 17 17 15 17 18 19 17 18 18 16 16 15 15
1 2 2 3 4 4 6 6 5 7 8 9 10 11 11 12 12 13 13 13 14 15 16 16 17 17 16 17 17 17 17 16 16 14 17 19 19 19 19 19 16 14 12
1 1 1 2 4 5 7 8 9 10 10 11 12 12 13 14 14 15 15 15 16 16 16 16 16 16 16 17 17 18 18 17 18 16 17 19 20 19 18 17 11 11 11
3 3 3 3 3 4 4 5 6 8 10 12 13 14 14 14 15 15 14 14 15 14 14 15 15 17 18 18 19 19 18 18 19 19 19 19 20 20 16 15 11 14 14
4 4 4 4 4 5 5 6 7 7 8 9 12 13 14 14 14 13 13 14 15 15 16 16 17 18 17 17 18 18 19 19 19 20 20 20 20 20 16 12 15 15 15
6 6 6 6 5 6 6 7 8 9 10 10 11 11 12 13 13 14 15 16 16 16 18 18 18 16 16 17 18 18 19 19 20 22 22 20 20 21 17 15 16 16 16

GFSMW_850_spd_114.txt.gz
Wind_Speed
37 29 16 8 28 26 37 46 48 42 40 41 39 36 35 32 29 29 28 28 25 24 24 23 24 22 22 20 17 15 16 14 13 14 15 17 19 20 20 19 19 18 16
31 24 10 1 20 30 24 34 36 43 42 44 42 41 38 34 29 27 30 29 27 25 24 23 23 21 21 20 19 16 15 14 14 15 16 15 17 17 19 23 23 21 19
27 18 6 3 17 32 32 27 38 39 45 48 46 43 39 34 34 32 30 28 25 22 21 20 20 19 19 19 18 17 15 14 14 16 15 7 7 9 13 16 21 21 18
21 12 5 4 11 21 29 24 39 46 48 52 51 49 46 42 40 35 32 29 27 23 20 18 18 18 18 18 16 17 14 17 18 20 20 21 25 14 8 9 11 13 16
15 10 3 1 8 10 22 29 34 30 30 45 44 46 36 38 39 39 38 32 24 24 20 17 19 21 17 15 17 14 14 26 26 24 23 29 29 29 28 25 16 12 11
15 14 4 1 3 3 9 20 26 13 22 27 20 39 34 24 27 31 28 21 19 18 18 23 23 22 21 21 19 19 27 26 29 26 29 31 32 32 30 29 31 26 18
15 9 8 5 4 10 9 8 13 6 12 6 15 17 14 5 14 26 25 21 20 23 24 25 25 30 24 22 28 24 22 28 31 27 29 31 30 35 33 29 31 24 16
10 9 7 4 2 12 14 12 15 9 15 16 17 20 15 14 18 24 20 15 23 31 31 23 23 24 26 24 20 17 17 13 15 17 16 12 10 7 1 5 11 12 13
14 8 6 12 6 14 16 12 12 14 10 10 13 13 11 12 18 24 20 18 25 29 27 27 23 16 16 14 11 9 8 9 9 8 10 12 13 11 12 11 10 8 19
9 10 5 16 8 16 15 13 11 11 13 13 11 13 15 16 16 20 20 19 17 13 14 14 11 10 9 7 6 5 3 3 5 7 9 9 11 13 14 16 15 17 20
11 6 13 11 14 15 16 18 14 10 8 9 9 10 11 15 16 18 18 16 15 14 12 9 8 9 9 8 9 9 9 10 12 14 16 17 18 21 19 19 19 20 20
18 12 8 10 16 16 16 14 13 11 10 9 9 11 14 15 16 18 18 15 12 11 10 11 12 13 13 13 12 11 14 15 17 17 16 16 16 16 18 18 18 19 19
11 12 7 13 15 16 16 14 13 11 10 10 11 12 15 14 16 15 12 10 11 12 13 15 15 15 15 16 15 15 14 13 12 12 11 12 14 15 17 19 21 22 21
8 11 9 9 14 16 16 16 13 10 10 11 11 13 13 12 12 12 11 10 12 12 12 10 10 12 14 13 11 9 8 8 8 9 10 12 14 16 17 19 21 22 22
8 3 10 13 14 16 18 18 15 13 12 11 11 11 13 13 12 11 11 12 11 10 9 7 7 7 7 7 6 5 5 5 7 9 11 13 16 18 20 21 22 23 20
12 7 3 11 13 16 16 16 14 13 12 11 11 12 12 11 12 13 11 10 10 9 8 7 8 8 6 5 3 3 4 5 8 11 13 16 17 17 17 17 18 19 19
10 10 8 4 8 13 14 14 13 12 12 11 11 12 12 13 13 11 11 11 10 9 9 8 8 7 6 5 4 5 6 9 10 12 15 17 18 18 18 17 17 16 15
7 8 8 9 9 9 10 10 10 10 10 11 11 12 12 13 13 12 11 10 10 9 8 7 7 7 6 6 6 7 7 9 10 12 13 17 17 18 18 17 15 14 13
7 7 6 5 5 5 6 6 7 7 9 11 11 12 11 11 11 12 11 11 11 10 10 10 11 10 10 10 9 10 10 10 11 13 14 16 17 18 18 16 14 13 13
5 5 5 4 4 4 4 4 4 5 5 7 8 10 11 12 12 13 13 11 12 12 12 13 12 11 10 12 11 12 12 11 13 15 16 15 16 18 15 14 14 14 14
4 5 4 2 1 2 2 3 3 4 5 6 7 9 9 10 11 11 11 11 11 11 11 11 11 11 12 13 13 14 14 15 15 15 15 13 11 14 16 16 16 16 16
1 1 1 0 1 2 3 4 4 4 5 6 7 8 8 9 10 10 11 11 12 12 11 11 11 12 12 13 14 15 16 16 15 15 14 13 13 17 19 18 17 17 15
0 1 2 3 3 3 4 5 6 7 7 8 8 9 10 11 12 12 12 13 13 13 12 12 12 12 12 13 14 15 15 15 14 14 14 14 16 19 19 18 14 13 10
2 1 1 2 2 2 3 3 5 7 9 9 10 11 12 13 13 14 14 14 13 12 12 13 14 14 12 11 12 13 14 13 14 14 15 16 16 18 16 16 13 12 11
3 3 4 4 4 4 4 4 5 6 7 7 9 12 13 14 15 15 14 13 12 13 14 14 15 14 12 11 12 13 12 12 13 16 18 18 17 17 16 15 13 13 12
7 8 7 7 6 6 6 6 7 8 9 10 10 11 12 12 12 11 12 13 13 14 16 15 15 15 14 13 13 13 12 14 15 18 19 18 17 16 16 16 15 14 13

GFSMW_850_spd_117.txt.gz
Wind_Speed
22 23 19 23 20 32 39 31 53 51 46 42 39 35 34 31 30 30 30 31 30 31 31 29 27 26 25 22 19 18 17 13 11 11 12 13 15 16 16 16 17 17 17
20 19 20 22 18 14 37 37 48 46 45 42 40 37 36 34 31 31 30 30 30 30 29 28 28 26 24 22 20 18 14 12 12 12 11 10 12 12 11 14 18 20 20
19 17 18 15 10 14 19 33 39 40 41 39 40 38 37 35 32 32 32 32 30 28 27 28 27 25 23 21 19 17 14 11 12 13 12 6 5 9 9 11 15 18 20
18 6 8 10 6 16 32 24 14 16 38 37 38 40 41 38 35 33 33 33 32 28 25 24 22 21 19 18 17 15 14 12 16 17 16 17 20 14 15 13 11 11 14
7 8 8 5 8 15 21 34 36 15 16 37 33 41 40 40 38 36 33 33 31 29 26 22 20 19 18 18 17 16 16 17 17 18 20 18 19 23 27 25 26 24 14
6 7 11 7 13 16 23 26 20 26 27 14 17 39 39 40 40 38 36 35 33 30 28 26 23 20 15 13 15 14 17 18 20 24 21 22 25 25 26 34 37 29 23
6 9 5 15 17 15 16 22 23 20 28 19 17 6 14 22 37 36 38 37 35 32 26 17 16 15 11 15 17 21 23 20 24 22 22 26 21 15 15 20 25 26 26
8 6 9 19 27 25 20 20 17 15 16 12 6 23 14 5 11 21 40 32 26 23 20 14 11 18 27 28 29 27 25 25 16 12 11 10 10 8 8 6 5 5 3
12 11 18 18 27 26 25 20 21 24 23 22 17 18 13 16 26 13 10 18 18 16 20 18 22 20 23 20 26 27 17 14 13 11 7 5 7 6 5 3 4 4 6
11 10 13 20 26 24 25 20 21 23 23 21 15 17 15 17 21 26 24 25 26 26 28 31 27 29 23 19 17 14 12 9 9 8 7 7 8 8 9 10 11 9 13
13 12 12 22 27 24 21 17 18 18 21 18 15 14 15 17 21 29 28 25 21 23 23 21 19 18 17 17 15 15 13 10 9 10 11 13 13 13 13 12 14 15 16
11 16 13 18 19 21 19 17 18 21 19 16 17 17 21 21 21 22 22 21 20 21 19 20 18 17 18 16 15 14 13 12 13 13 14 13 12 11 11 11 11 12 14
9 14 13 17 21 21 21 19 18 16 15 14 15 20 20 19 21 22 22 21 19 19 17 16 16 16 16 16 15 15 16 15 13 13 12 10 9 10 10 11 12 13 14
8 11 14 14 15 19 17 17 17 12 13 14 14 18 19 19 21 21 18 15 15 14 13 13 14 16 18 19 19 18 16 13 10 8 7 7 8 10 11 13 14 15 16
19 8 7 11 13 16 19 19 16 15 11 13 17 19 18 17 16 15 14 12 12 13 14 14 14 14 14 13 13 11 10 9 8 7 6 7 10 13 15 15 16 16 18
22 17 9 10 11 12 13 16 16 14 13 13 14 15 16 15 13 13 12 12 11 12 12 13 13 13 12 11 11 10 9 8 6 5 6 8 10 13 16 16 17 17 16
18 19 16 11 11 12 11 11 13 13 13 13 13 13 13 13 14 13 13 13 14 14 14 13 13 13 12 12 11 10 8 6 5 5 5 8 12 14 16 17 18 16 15
15 15 15 13 11 11 11 11 10 10 10 10 11 12 13 13 13 14 14 15 16 15 15 15 15 14 13 12 10 9 8 8 7 7 8 10 12 12 15 17 17 14 14
12 11 10 8 8 9 9 7 8 9 8 8 10 11 12 13 14 15 16 16 16 15 14 14 13 12 11 11 10 10 10 9 10 11 12 13 14 14 16 17 16 12 13
10 9 7 7 5 4 4 4 6 6 7 8 9 10 11 12 13 14 15 16 16 15 14 13 12 11 11 11 11 12 13 13 15 13 15 13 15 17 14 15 15 13 13
7 7 6 6 4 3 2 3 3 5 6 8 8 10 10 10 12 13 14 14 13 13 13 13 12 12 11 12 11 12 14 15 15 14 14 14 12 11 10 13 14 15 13
4 4 4 3 3 2 2 2 2 2 3 6 8 10 11 13 14 13 13 13 13 13 13 14 13 12 12 14 15 14 13 14 15 14 13 12 12 13 15 15 15 16 13
5 4 4 3 3 1 1 3 3 4 4 5 6 8 10 10 11 13 13 12 13 14 13 13 13 13 14 15 15 15 13 14 15 13 14 13 13 14 12 13 14 14 12
4 3 3 3 4 4 3 2 3 4 6 7 8 9 10 10 11 12 13 14 14 14 13 14 15 14 14 13 13 13 11 12 12 12 13 12 14 14 12 13 13 13 12
4 4 5 5 5 5 5 5 5 5 5 5 5 8 10 10 11 12 12 13 14 15 15 14 14 13 13 11 14 14 12 13 12 13 12 13 15 15 13 13 14 13 12
8 9 9 9 8 8 8 7 6 6 6 7 7 8 9 11 12 12 13 14 13 14 15 15 15 14 13 13 13 14 13 14 13 12 12 12 13 13 13 13 14 14 13